[[{"header":{"parameterUnit":"m.s-1","parameterCategory":1,"la1":30.6,"la2":28.766,"lo1":-90.7593,"lo2":-88.6598,"dy":0.0162,"dx":0.0183,"nx":116,"ny":114,"refTime":"2024-05-23T12:00:00:Z","depth":0,"parameterNumber":2,"parameterNumberName":"U-component_of_WINDS"},"data":[0.0,0.0,0.0,0.0,0.0,0.0,0.0,0.0,0.0,0.0,0.0,0.0,0.0,0.0,0.0,0.0,0.0,0.0,0.0,0.0,0.0,0.0,0.0,0.0,0.0,0.0,0.0,0.0,0.0,0.0,0.0,0.0,0.0,0.0,0.0,0.0,0.0,0.0,0.0,0.0,0.0,0.0,0.0,0.0,0.0,0.0,0.0,0.0,0.0,0.0,0.0,0.0,0.0,0.0,0.0,0.0,0.0,0.0,0.0,0.0,0.0,0.0,0.0,0.0,0.0,0.0,0.0,0.0,0.0,0.0,0.0,0.0,0.0,0.0,0.0,0.0,0.0,0.0,0.0,0.0,0.0,0.0,0.0,0.0,0.0,0.0,0.0,0.0,0.0,0.0,0.0,0.0,0.0,0.0,0.0,0.0,0.0,0.0,0.0,0.0,0.0,0.0,0.0,0.0,0.0,0.0,0.0,0.0,0.0,0.0,0.0,0.0,0.0,0.0,0.0,0.0,0.0,0.0,0.0,0.0,0.0,0.0,0.0,0.0,0.0,0.0,0.0,0.0,0.0,0.0,0.0,0.0,0.0,0.0,0.0,0.0,0.0,0.0,0.0,0.0,0.0,0.0,0.0,0.0,0.0,0.0,0.0,0.0,0.0,0.0,0.0,0.0,0.0,0.0,0.0,0.0,0.0,0.0,0.0,0.0,0.0,0.0,0.0,0.0,0.0,0.0,0.0,0.0,0.0,0.0,0.0,0.0,0.0,0.0,0.0,0.0,0.0,0.0,0.0,0.0,0.0,0.0,0.0,0.0,0.0,0.0,0.0,0.0,0.0,0.0,0.0,0.0,0.0,0.0,0.0,0.0,0.0,0.0,0.0,0.0,0.0,0.0,0.0,0.0,0.0,0.0,0.0,0.0,0.0,0.0,0.0,0.0,0.0,0.0,0.0,0.0,0.0,0.0,0.0,0.0,0.0,0.0,0.0,0.0,0.0,0.0,0.0,0.0,0.0,0.0,0.0,0.0,0.0,0.0,0.0,0.0,0.0,0.0,0.0,0.0,0.0,0.0,0.0,0.0,0.0,0.0,0.0,0.0,0.0,0.0,0.0,0.0,0.0,0.0,0.0,0.0,0.0,0.0,0.0,0.0,0.0,0.0,0.0,0.0,0.0,0.0,0.0,0.0,0.0,0.0,0.0,0.0,0.0,0.0,0.0,0.0,0.0,0.0,0.0,0.0,0.0,0.0,0.0,0.0,0.0,0.0,0.0,0.0,0.0,0.0,0.0,0.0,0.0,0.0,0.0,0.0,0.0,0.0,0.0,0.0,0.0,0.0,0.0,0.0,0.0,0.0,0.0,0.0,0.0,0.0,0.0,0.0,0.0,0.0,0.0,0.0,0.0,0.0,0.0,0.0,0.0,0.0,0.0,0.0,0.0,0.0,0.0,0.0,0.0,0.0,0.0,0.0,0.0,0.0,0.0,0.0,0.0,0.0,0.0,0.0,0.0,0.0,0.0,0.0,0.0,0.0,0.0,0.0,0.0,0.0,0.0,0.0,0.0,0.0,0.0,0.0,0.0,0.0,0.0,0.0,0.0,0.0,0.0,0.0,0.0,0.0,0.0,0.0,0.0,0.0,0.0,0.0,0.0,0.0,0.0,0.0,0.0,0.0,0.0,0.0,0.0,0.0,0.0,0.0,0.0,0.0,0.0,0.0,0.0,0.0,0.0,0.0,0.0,0.0,0.0,0.0,0.0,0.0,0.0,0.0,0.0,0.0,0.0,0.0,0.0,0.0,0.0,0.0,0.0,0.0,0.0,0.0,0.0,0.0,0.0,0.0,0.0,0.0,0.0,0.0,0.0,0.0,0.0,0.0,0.0,0.0,0.0,0.0,0.0,0.0,0.0,0.0,0.0,0.0,0.0,0.0,0.0,0.0,0.0,0.0,0.0,0.0,0.0,0.0,0.0,0.0,0.0,0.0,0.0,0.0,0.0,0.0,0.0,0.0,0.0,0.0,0.0,0.0,0.0,0.0,0.0,0.0,0.0,0.0,0.0,0.0,0.0,0.0,0.0,0.0,0.0,0.0,0.0,0.0,0.0,0.0,0.0,0.0,0.0,0.0,0.0,0.0,0.0,0.0,0.0,0.0,0.0,0.0,0.0,0.0,0.0,0.0,0.0,0.0,0.0,0.0,0.0,0.0,0.0,0.0,0.0,0.0,0.0,0.0,0.0,0.0,0.0,0.0,0.0,0.0,0.0,0.0,0.0,0.0,0.0,0.0,0.0,0.0,0.0,0.0,0.0,0.0,0.0,0.0,0.0,0.0,0.0,0.0,0.0,0.0,0.0,0.0,0.0,0.0,0.0,0.0,0.0,0.0,0.0,0.0,0.0,0.0,0.0,0.0,0.0,0.0,0.0,0.0,0.0,0.0,0.0,0.0,0.0,0.0,0.0,0.0,0.0,0.0,0.0,0.0,0.0,0.0,0.0,0.0,0.0,0.0,0.0,0.0,0.0,0.0,0.0,0.0,0.0,0.0,0.0,0.0,0.0,0.0,0.0,0.0,0.0,0.0,0.0,0.0,0.0,0.0,0.0,0.0,0.0,0.0,0.0,0.0,0.0,0.0,0.0,0.0,0.0,0.0,0.0,0.0,0.0,0.0,0.0,0.0,0.0,0.0,0.0,0.0,0.0,0.0,0.0,0.0,0.0,0.0,0.0,0.0,0.0,0.0,0.0,0.0,0.0,0.0,0.0,0.0,0.0,0.0,0.0,0.0,0.0,0.0,0.0,0.0,0.0,0.0,0.0,0.0,0.0,0.0,0.0,0.0,0.0,0.0,0.0,0.0,0.0,0.0,0.0,0.0,0.0,0.0,0.0,0.0,0.0,0.0,0.0,0.0,0.0,0.0,0.0,0.0,0.0,0.0,0.0,0.0,0.0,0.0,0.0,0.0,0.0,0.0,0.0,0.0,0.0,0.0,0.0,0.0,0.0,0.0,0.0,0.0,0.0,0.0,0.0,0.0,0.0,0.0,0.0,0.0,0.0,0.0,0.0,0.0,0.0,0.0,0.0,0.0,0.0,0.0,0.0,0.0,0.0,0.0,0.0,0.0,0.0,0.0,0.0,0.0,0.0,0.0,0.0,0.0,0.0,0.0,0.0,0.0,0.0,0.0,0.0,0.0,0.0,0.0,0.0,0.0,0.0,0.0,0.0,0.0,0.0,0.0,0.0,0.0,0.0,0.0,0.0,0.0,0.0,0.0,0.0,0.0,0.0,0.0,0.0,0.0,0.0,0.0,0.0,0.0,0.0,0.0,0.0,0.0,0.0,0.0,0.0,0.0,0.0,0.0,0.0,0.0,0.0,0.0,0.0,0.0,0.0,0.0,0.0,0.0,0.0,0.0,0.0,0.0,0.0,0.0,0.0,0.0,0.0,0.0,0.0,0.0,0.0,0.0,0.0,0.0,0.0,0.0,0.0,0.0,0.0,0.0,0.0,0.0,0.0,0.0,0.0,0.0,0.0,0.0,0.0,0.0,0.0,0.0,0.0,0.0,0.0,0.0,0.0,0.0,0.0,0.0,0.0,0.0,0.0,0.0,0.0,0.0,0.0,0.0,0.0,0.0,0.0,0.0,0.0,0.0,0.0,0.0,0.0,0.0,0.0,0.0,0.0,0.0,0.0,0.0,0.0,0.0,0.0,0.0,0.0,0.0,0.0,0.0,0.0,0.0,0.0,0.0,0.0,0.0,0.0,0.0,0.0,0.0,0.0,0.0,0.0,0.0,0.0,0.0,0.0,0.0,0.0,0.0,0.0,0.0,0.0,0.0,0.0,0.0,0.0,0.0,0.0,0.0,0.0,0.0,0.0,0.0,0.0,0.0,0.0,0.0,0.0,0.0,0.0,0.0,0.0,0.0,0.0,0.0,0.0,0.0,0.0,0.0,0.0,0.0,0.0,0.0,0.0,0.0,0.0,0.0,0.0,0.0,0.0,0.0,0.0,0.0,0.0,0.0,0.0,0.0,0.0,0.0,0.0,0.0,0.0,0.0,0.0,0.0,0.0,0.0,0.0,0.0,0.0,0.0,0.0,0.0,0.0,0.0,0.0,0.0,0.0,0.0,0.0,0.0,0.0,0.0,0.0,0.0,0.0,0.0,0.0,0.0,0.0,0.0,0.0,0.0,0.0,0.0,0.0,0.0,0.0,0.0,0.0,0.0,0.0,0.0,0.0,0.0,0.0,0.0,0.0,0.0,0.0,0.0,0.0,0.0,0.0,0.0,0.0,0.0,0.0,0.0,0.0,0.0,0.0,0.0,0.0,0.0,0.0,0.0,0.0,0.0,0.0,0.0,0.0,0.0,0.0,0.0,0.0,0.0,0.0,0.0,0.0,0.0,0.0,0.0,0.0,0.0,0.0,0.0,0.0,0.0,0.0,0.0,0.0,0.0,0.0,0.0,0.0,0.0,0.0,0.0,0.0,0.0,0.0,0.0,0.0,0.0,0.0,0.0,0.0,0.0,0.0,0.0,0.0,0.0,0.0,0.0,0.0,0.0,0.0,0.0,0.0,0.0,0.0,0.0,0.0,0.0,0.0,0.0,0.0,0.0,0.0,0.0,0.0,0.0,0.0,0.0,0.0,0.0,0.0,0.0,0.0,0.0,0.0,0.0,0.0,0.0,0.0,0.0,0.0,0.0,0.0,0.0,0.0,0.0,0.0,0.0,0.0,0.0,0.0,0.0,0.0,0.0,0.0,0.0,0.0,0.0,0.0,0.0,0.0,0.0,0.0,0.0,0.0,0.0,0.0,0.0,0.0,0.0,0.0,0.0,0.0,0.0,0.0,0.0,0.0,0.0,0.0,0.0,0.0,0.0,0.0,0.0,0.0,0.0,0.0,0.0,0.0,0.0,0.0,0.0,0.0,0.0,0.0,0.0,0.0,0.0,0.0,0.0,0.0,0.0,0.0,0.0,0.0,0.0,0.0,0.0,0.0,0.0,0.0,0.0,0.0,0.0,0.0,0.0,0.0,0.0,0.0,0.0,0.0,0.0,0.0,0.0,0.0,0.0,0.0,0.0,0.0,0.0,0.0,0.0,0.0,0.0,0.0,0.0,0.0,0.0,0.0,0.0,0.0,0.0,0.0,0.0,0.0,0.0,0.0,0.0,0.0,0.0,0.0,0.0,0.0,0.0,0.0,0.0,0.0,0.0,0.0,0.0,0.0,0.0,0.0,0.0,0.0,0.0,0.0,0.0,0.0,0.0,0.0,0.0,0.0,0.0,0.0,0.0,0.0,0.0,0.0,0.0,0.0,0.0,0.0,0.0,0.0,0.0,0.0,0.0,0.0,0.0,0.0,0.0,0.0,0.0,0.0,0.0,0.0,0.0,0.0,0.0,0.0,0.0,0.0,0.0,0.0,0.0,0.0,0.0,0.0,0.0,0.0,0.0,0.0,0.0,0.0,0.0,0.0,0.0,0.0,0.0,0.0,0.0,0.0,0.0,0.0,0.0,0.0,0.0,0.0,0.0,0.0,0.0,0.0,0.0,0.0,0.0,0.0,0.0,0.0,0.0,0.0,0.0,0.0,0.0,0.0,0.0,0.0,0.0,0.0,0.0,0.0,0.0,0.0,0.0,0.0,0.0,0.0,0.0,0.0,0.0,0.0,0.0,0.0,0.0,0.0,0.0,0.0,0.0,0.0,0.0,0.0,0.0,0.0,0.0,0.0,0.0,0.0,0.0,0.0,0.0,0.0,0.0,0.0,0.0,0.0,0.0,0.0,0.0,0.0,0.0,0.0,0.0,0.0,0.0,0.0,0.0,0.0,0.0,0.0,0.0,0.0,0.0,0.0,0.0,0.0,0.0,0.0,0.0,0.0,0.0,0.0,0.0,0.0,0.0,0.0,0.0,0.0,0.0,0.0,0.0,0.0,0.0,0.0,0.0,0.0,0.0,0.0,0.0,0.0,0.0,0.0,0.0,0.0,0.0,0.0,0.0,0.0,0.0,0.0,0.0,0.0,0.0,0.0,0.0,0.0,0.0,0.0,0.0,0.0,0.0,0.0,0.0,0.0,0.0,0.0,0.0,0.0,0.0,0.0,0.0,-2.9127,0.0,0.0,0.0,0.0,0.0,0.0,0.0,0.0,0.0,0.0,0.0,0.0,0.0,0.0,0.0,0.0,0.0,0.0,0.0,0.0,0.0,0.0,0.0,0.0,-1.6006,-1.6308,-1.7146,-1.759,-1.7987,-1.8393,0.0,0.0,0.0,0.0,0.0,-1.7748,-1.7754,-1.8133,-1.8946,-1.9819,-2.107,-2.2643,-2.2624,-2.1297,-1.8946,0.0,0.0,0.0,0.0,0.0,0.0,0.0,0.0,0.0,0.0,0.0,0.0,0.0,0.0,0.0,0.0,0.0,0.0,0.0,0.0,0.0,0.0,0.0,0.0,0.0,0.0,0.0,0.0,0.0,0.0,0.0,0.0,0.0,0.0,0.0,0.0,0.0,0.0,0.0,0.0,0.0,0.0,0.0,0.0,0.0,0.0,0.0,0.0,0.0,0.0,0.0,0.0,0.0,0.0,0.0,0.0,0.0,0.0,0.0,0.0,0.0,0.0,0.0,0.0,0.0,0.0,0.0,0.0,0.0,0.0,0.0,-3.0765,0.0,0.0,0.0,0.0,0.0,0.0,0.0,0.0,0.0,0.0,0.0,0.0,0.0,0.0,0.0,0.0,0.0,0.0,0.0,0.0,0.0,-1.4998,-1.6721,-1.6995,-1.7451,-1.8472,-1.917,-1.9554,-1.9554,-1.9532,0.0,0.0,0.0,-1.8201,-1.8152,-1.8361,-1.9206,-2.0739,-2.2198,-2.4485,-2.7505,-2.8371,-2.6509,-2.2421,-2.1718,0.0,0.0,0.0,0.0,0.0,0.0,0.0,0.0,0.0,0.0,0.0,0.0,0.0,0.0,0.0,0.0,0.0,0.0,0.0,0.0,0.0,0.0,0.0,0.0,0.0,0.0,0.0,0.0,0.0,0.0,0.0,0.0,0.0,0.0,0.0,0.0,0.0,0.0,0.0,0.0,0.0,0.0,0.0,0.0,0.0,0.0,0.0,0.0,0.0,0.0,0.0,0.0,0.0,0.0,0.0,0.0,0.0,0.0,0.0,0.0,0.0,0.0,0.0,-3.718,-3.8232,-3.8905,-4.0146,-4.106,-4.1423,-3.7008,-3.5421,-3.5749,-3.2869,0.0,0.0,0.0,0.0,0.0,0.0,0.0,0.0,0.0,0.0,0.0,0.0,0.0,0.0,0.0,0.0,0.0,0.0,0.0,-1.5875,-1.7556,-1.8408,-1.9488,-2.1068,-2.1304,-2.1359,-2.1359,-2.1304,0.0,-2.0167,-2.0034,-1.9966,-1.9962,-2.0719,-2.1556,-2.2476,-2.6251,-2.9107,-3.1044,-3.1852,-3.1789,-3.0832,-2.7324,-2.5165,-2.4037,0.0,0.0,0.0,0.0,0.0,0.0,0.0,0.0,0.0,0.0,0.0,0.0,0.0,0.0,0.0,0.0,0.0,0.0,0.0,0.0,0.0,0.0,0.0,0.0,0.0,0.0,0.0,0.0,0.0,0.0,0.0,0.0,0.0,0.0,0.0,0.0,0.0,0.0,0.0,0.0,0.0,-2.5004,-2.5949,0.0,0.0,0.0,0.0,0.0,0.0,0.0,0.0,0.0,0.0,0.0,0.0,0.0,-3.6249,-3.768,-4.0463,-4.1895,-4.2016,-4.3509,-4.426,-4.4363,-4.4553,-4.4708,-4.4759,-4.4053,0.0,-3.8922,-3.6542,0.0,0.0,0.0,0.0,0.0,0.0,0.0,0.0,0.0,0.0,0.0,0.0,0.0,0.0,0.0,0.0,0.0,0.0,0.0,0.0,0.0,-2.0113,-2.1085,-2.2272,-2.3271,-2.3426,-2.2439,-2.2355,-2.1939,-2.1078,-2.0569,-2.0536,-2.1012,-2.1876,-2.3891,-2.7074,-3.0845,-3.3314,-3.4519,-3.5372,-3.5465,-3.481,-3.2941,-3.0185,-2.6824,-2.5215,0.0,0.0,0.0,0.0,0.0,0.0,0.0,0.0,0.0,0.0,0.0,0.0,0.0,0.0,0.0,0.0,0.0,0.0,0.0,0.0,0.0,0.0,0.0,0.0,0.0,0.0,0.0,0.0,0.0,0.0,0.0,0.0,0.0,0.0,0.0,0.0,0.0,0.0,0.0,-2.4843,-2.748,-2.7039,-2.8015,-2.809,0.0,0.0,0.0,0.0,0.0,0.0,0.0,0.0,0.0,-3.784,-3.9393,-4.0888,-4.2423,-4.4199,-4.5096,-4.513,-4.6613,-4.731,-4.7327,-4.7775,-4.801,-4.7948,-4.75,-4.6362,-4.4544,-4.0974,-3.8663,-3.7146,0.0,0.0,0.0,0.0,-3.4251,-3.4197,0.0,0.0,0.0,0.0,0.0,0.0,0.0,0.0,0.0,0.0,0.0,0.0,-2.086,-2.2066,-2.3091,-2.4126,-2.5182,-2.5256,-2.3964,-2.3264,-2.2603,-2.1954,-2.1101,-2.0948,-2.159,-2.3514,-2.6776,-3.1376,-3.4571,-3.6558,-3.7392,-3.8238,-3.8274,-3.7586,-3.7228,-3.4492,-3.0002,-2.8099,-2.5476,-2.247,0.0,0.0,0.0,0.0,0.0,0.0,0.0,0.0,0.0,0.0,0.0,0.0,0.0,0.0,0.0,0.0,0.0,0.0,0.0,0.0,0.0,0.0,0.0,0.0,0.0,0.0,0.0,0.0,0.0,0.0,0.0,0.0,0.0,0.0,0.0,0.0,0.0,-2.7556,-2.9587,-2.8572,-3.0455,-3.0973,0.0,0.0,0.0,0.0,0.0,0.0,-3.6011,-3.7525,-3.9577,-4.2268,-4.3845,-4.5251,-4.6552,-4.7534,-4.8045,-4.8062,-4.9137,-4.9654,-4.9689,-5.0304,-5.0562,-5.0545,-4.9913,-4.9551,-4.9051,-4.4889,-4.2716,-4.1802,-3.9319,-3.7887,-3.7392,-3.8548,-3.8582,-3.8456,0.0,0.0,0.0,0.0,0.0,0.0,0.0,0.0,0.0,0.0,0.0,-2.0034,-2.2594,-2.4335,-2.5961,-2.7589,-2.7078,-2.6605,-2.6508,-2.4235,-2.2882,-2.2842,-2.1996,-2.1557,-2.1601,-2.6376,-3.0562,-3.4013,-3.6603,-3.8315,-3.9188,-3.9996,-4.0255,-3.9985,-3.921,-3.7269,-3.4396,-3.1704,-2.9036,-2.6405,-2.3981,0.0,0.0,0.0,0.0,0.0,0.0,0.0,0.0,0.0,0.0,0.0,0.0,0.0,0.0,0.0,0.0,0.0,0.0,0.0,0.0,0.0,0.0,0.0,0.0,0.0,0.0,0.0,0.0,0.0,0.0,0.0,0.0,0.0,0.0,0.0,0.0,0.0,0.0,-3.1594,-3.3576,0.0,0.0,0.0,0.0,-3.4852,-3.7594,-3.9939,-4.1533,-4.3069,-4.463,-4.6268,-4.7769,-4.8913,-4.9769,-5.1188,-5.1912,-5.1912,-5.1981,-5.2015,-5.2015,-5.205,-5.2084,-5.2084,-5.2033,-5.1619,-5.0752,-4.7648,-4.588,-4.5087,-4.4216,-4.3448,-4.281,-4.2879,-4.2896,-4.2879,0.0,0.0,0.0,0.0,0.0,-1.5391,-1.5391,-1.5879,-1.6542,-1.7429,-1.8993,-2.0986,-2.3509,-2.5272,-2.6734,-2.7894,-2.8741,-2.8741,-2.76,-2.616,-2.5344,-2.5352,-2.4517,-2.5318,-2.8038,-3.0933,-3.3801,-3.6642,-3.8649,-4.0046,-4.0931,-4.1777,-4.2042,-4.181,-4.1504,-4.0068,-3.7657,-3.4561,-3.1795,-2.9298,-2.7196,-2.4381,0.0,0.0,0.0,0.0,0.0,0.0,0.0,0.0,0.0,0.0,0.0,0.0,0.0,0.0,0.0,0.0,0.0,0.0,0.0,0.0,0.0,0.0,0.0,0.0,0.0,0.0,0.0,0.0,0.0,0.0,0.0,0.0,0.0,0.0,0.0,0.0,0.0,-3.5445,-3.7495,0.0,-3.6335,-3.7581,-3.8789,-3.9508,-4.1498,-4.332,-4.4872,-4.6389,-4.77,-4.8752,-5.0206,-5.1119,-5.1425,-5.1929,-5.2188,-5.2188,-5.2188,-5.2188,-5.2188,-5.2188,-5.2188,-5.2188,-5.2188,-5.2033,-5.1705,-5.0636,-4.9154,-4.7465,-4.6251,-4.5613,-4.5389,-4.5389,-4.5389,-4.5458,0.0,0.0,0.0,0.0,-1.5019,-1.5391,-1.5391,-1.6133,-1.7108,-1.8258,-2.0125,-2.2287,-2.4762,-2.656,-2.7929,-2.8803,-2.965,-2.9805,-2.8939,-2.7271,-2.6416,-2.6683,-2.6417,-2.8227,-3.2447,-3.4193,-3.6295,-3.8834,-4.0239,-4.1373,-4.225,-4.2748,-4.2871,-4.2707,-4.2618,-4.1778,-4.0282,-3.7739,-3.4864,-3.1865,-3.0064,-2.7881,-2.5458,0.0,0.0,0.0,0.0,0.0,0.0,0.0,0.0,0.0,0.0,0.0,0.0,0.0,0.0,0.0,0.0,0.0,0.0,0.0,0.0,0.0,0.0,0.0,0.0,0.0,0.0,0.0,0.0,0.0,0.0,0.0,0.0,0.0,0.0,0.0,-3.7714,-3.8553,-4.067,-4.155,-4.029,-4.1774,-4.3026,-4.3509,-4.5199,-4.6665,-4.77,-4.9137,-5.0171,-5.0735,-5.1959,-5.2615,-5.2615,-5.2843,-5.2994,-5.2994,-5.2994,-5.2994,-5.2994,-5.2994,-5.2994,-5.2994,-5.2994,-5.2808,-5.2615,-5.2615,-5.1533,-4.9826,-4.8614,-4.7976,-4.7717,-4.7458,-4.7355,-4.7389,0.0,0.0,0.0,-1.5215,-1.5371,-1.5391,-1.5391,-1.6152,-1.734,-1.8987,-2.1446,-2.3975,-2.6428,-2.8257,-2.965,-3.052,-2.9824,-2.9689,-3.054,-2.7445,-2.5952,-2.6779,-2.7677,-3.0086,-3.4238,-3.5956,-3.8046,-4.0535,-4.145,-4.2316,-4.3143,-4.29,-4.2774,-4.2754,-4.2492,-4.2359,-4.2248,-4.1224,-3.8315,-3.4253,-3.2611,-3.144,-3.0326,0.0,0.0,0.0,0.0,0.0,0.0,0.0,0.0,0.0,0.0,0.0,0.0,0.0,0.0,0.0,0.0,0.0,0.0,0.0,0.0,0.0,0.0,0.0,0.0,0.0,0.0,0.0,0.0,0.0,0.0,0.0,0.0,0.0,-3.5561,-3.7446,-3.9324,-4.086,-4.3034,-4.4138,-4.3414,-4.5354,-4.6682,-4.6717,-4.8786,-5.0045,-5.008,-5.1459,-5.2222,-5.2222,-5.3028,-5.3442,-5.3442,-5.4149,-5.4512,-5.4512,-5.4512,-5.4512,-5.4512,-5.4512,-5.4512,-5.4512,-5.4512,-5.4098,-5.3442,-5.3442,-5.2977,-5.2153,-5.1407,-5.0666,-4.9942,-4.912,-4.8827,-4.8723,0.0,0.0,-1.418,-1.4414,-1.498,-1.5391,-1.5391,-1.668,-1.8023,-1.9065,-2.1975,-2.4644,-2.6505,-2.8257,-2.965,-3.052,-3.0385,-3.0346,-3.0578,-2.8548,-2.795,-2.939,-3.1994,-3.4526,-3.6906,-3.8592,-4.0104,-4.145,-4.2893,-4.3739,-4.3989,-4.4533,-4.4593,-4.4231,-4.4345,-4.3741,-4.2656,-4.2565,-4.1047,-3.8488,-3.6272,-3.4153,-3.2109,0.0,0.0,0.0,0.0,0.0,0.0,0.0,0.0,0.0,0.0,0.0,0.0,0.0,0.0,0.0,0.0,0.0,0.0,0.0,0.0,0.0,0.0,0.0,0.0,0.0,0.0,0.0,0.0,0.0,0.0,0.0,0.0,-3.7609,-3.8131,-4.0353,-4.2499,-4.3992,-4.5717,-4.67,-4.6475,-4.7527,-4.843,-4.9028,-5.0149,-5.1045,-5.158,-5.2546,-5.308,-5.308,-5.3804,-5.4201,-5.4201,-5.4408,-5.4512,-5.4512,-5.4512,-5.4512,-5.4512,-5.4512,-5.4512,-5.4512,-5.4512,-5.4391,-5.4201,-5.4201,-5.3753,-5.2942,-5.1632,-5.0994,-5.0718,-4.9959,-4.9683,-4.9579,0.0,-1.3437,-1.4219,-1.457,-1.5059,-1.5391,-1.5391,-1.6875,-1.8414,-1.9588,-2.2403,-2.5054,-2.7032,-2.8141,-2.9113,-2.9979,-3.0056,-2.9901,-2.9534,-2.8887,-2.9419,-3.1452,-3.4083,-3.6612,-3.8988,-4.0354,-4.1643,-4.2854,-4.3816,-4.4489,-4.4855,-4.5255,-4.5282,-4.4954,-4.4896,-4.4347,-4.3453,-4.3156,-4.2464,-4.1381,-3.9151,-3.7229,-3.5464,-3.3029,-3.1778,-3.1005,-2.861,-2.804,-2.8263,-2.7092,0.0,0.0,0.0,0.0,0.0,0.0,0.0,0.0,0.0,0.0,0.0,0.0,0.0,0.0,0.0,0.0,0.0,0.0,0.0,0.0,0.0,0.0,0.0,0.0,-3.7829,-4.0121,-4.1991,-4.3332,-4.4785,-4.6603,-4.762,-4.8275,-4.8648,-4.9327,-4.9947,-5.0442,-5.1459,-5.2252,-5.2684,-5.3442,-5.3873,-5.3873,-5.4287,-5.4512,-5.4512,-5.4512,-5.4512,-5.4512,-5.4512,-5.4512,-5.4512,-5.4512,-5.4512,-5.4512,-5.4512,-5.4512,-5.4512,-5.4512,-5.4253,0.0,0.0,0.0,0.0,0.0,-5.0011,-4.9942,0.0,-1.418,-1.4492,-1.5273,-1.5391,-1.5391,-1.5391,-1.6875,-1.8608,-2.0285,-2.2713,-2.521,-2.7597,-2.7933,-2.8358,-2.9229,-2.9306,-2.9016,-2.8339,-2.9221,-3.077,-3.3053,-3.4931,-3.7369,-4.0439,-4.145,-4.272,-4.4297,-4.4393,-4.4836,-4.5586,-4.5352,-4.5232,-4.518,-4.4676,-4.4425,-4.4332,-4.3386,-4.3057,-4.305,-4.1292,-4.0157,-3.9152,-3.5888,-3.5189,-3.5499,-3.2317,-3.1232,-3.1032,-2.9359,0.0,0.0,0.0,0.0,0.0,0.0,0.0,0.0,0.0,0.0,0.0,0.0,0.0,0.0,0.0,0.0,0.0,0.0,0.0,0.0,0.0,0.0,0.0,0.0,-4.0629,-4.2489,-4.6005,-4.6115,-4.6562,-4.8551,-4.8879,-4.924,-5.0062,-5.0735,-5.1183,-5.1356,-5.2632,-5.3442,-5.3529,0.0,0.0,0.0,0.0,-5.4512,-5.4512,-5.4512,-5.4512,-5.4512,-5.4512,-5.4512,-5.4512,-5.4512,-5.4512,-5.4512,-5.4512,-5.4512,-5.4512,-5.4512,-5.4512,-5.4443,-5.3701,-5.2459,-5.1028,-5.0373,-5.008,-5.0011,0.0,-1.4668,-1.5195,-1.5371,-1.5391,-1.5391,-1.5391,-1.6875,-1.8608,-2.0285,-2.2713,-2.4977,-2.6761,-2.758,-2.8358,-2.9229,-2.9306,-2.9534,-3.0056,-3.212,-3.3536,-3.4036,-3.696,-3.916,-4.0477,-4.2047,-4.3335,-4.4297,-4.4998,-4.5441,-4.5594,-4.555,-4.541,-4.5191,-4.4861,-4.4599,-4.4383,-4.4177,-4.3741,-4.3101,-4.2104,-4.0822,-3.9357,-3.8032,-3.7094,-3.6373,-3.5207,-3.5107,-3.5268,-3.3596,-3.25,-3.1645,-3.0697,0.0,0.0,0.0,0.0,0.0,0.0,0.0,0.0,0.0,0.0,0.0,0.0,0.0,0.0,0.0,0.0,0.0,0.0,0.0,0.0,-3.9788,-4.3308,-4.6122,-4.6526,-4.7625,-4.8495,-4.8769,-4.9361,-5.0062,-5.0821,-5.1028,-5.1632,-5.2873,-5.3235,-5.3667,-5.427,-5.4425,-5.4512,-5.4512,-5.4512,-5.4512,-5.4512,-5.4512,-5.4512,-5.4512,0.0,0.0,-5.4512,-5.4512,-5.4512,-5.4512,-5.4512,-5.4512,-5.4512,-5.4512,-5.4512,-5.4443,-5.3701,-5.2459,-5.1097,-5.0942,-5.0528,-5.0011,-1.4668,-1.5098,-1.5391,-1.5391,-1.5391,-1.5391,-1.5391,-1.6875,-1.8608,-2.0285,-2.2345,-2.4435,-2.6486,-2.6343,-2.6613,-2.789,-2.8006,-2.8741,-3.0482,-3.2545,-3.4276,-3.5558,-3.7969,-4.008,-4.1759,-4.2659,-4.3701,-4.496,-4.5383,-4.5594,-4.5594,-4.5594,-4.5522,-4.54,-4.5118,-4.4938,-4.48,-4.4663,-4.4462,-4.4118,-4.3026,-4.1946,-4.0781,-3.9277,-3.8452,-3.7985,-3.7144,-3.7038,-3.7113,-3.5869,-3.4915,-3.4042,-3.2797,-3.0995,-2.8951,0.0,0.0,0.0,0.0,0.0,0.0,0.0,0.0,0.0,0.0,0.0,0.0,0.0,0.0,-3.5943,0.0,0.0,-4.2133,-4.3794,-4.5455,-4.6971,-4.8241,-4.8806,-4.9163,-4.9373,-4.9769,-5.0304,-5.1045,-5.1442,-5.2149,-5.3304,-5.3753,-5.4115,-5.4494,-5.4512,-5.4512,-5.4512,-5.4512,-5.4512,-5.4512,-5.4512,-5.4512,-5.4512,-5.4512,-5.4512,-5.4512,-5.4512,-5.4512,-5.4512,-5.4512,-5.4512,-5.4512,-5.4512,-5.4512,-5.4477,-5.4098,-5.3253,-5.2218,-5.1804,-5.1171,-5.0562,-1.5233,-1.539,-1.5391,-1.5391,-1.5391,-1.5391,-1.5391,-1.6738,-1.8355,-2.0023,-2.1574,-2.339,-2.5731,-2.4764,-2.4641,-2.6319,-2.6764,-2.806,-3.0656,-3.2564,-3.4679,-3.7049,-3.871,-4.068,-4.3054,-4.3099,-4.3929,-4.5622,-4.5622,-4.5612,-4.562,-4.5612,-4.5622,-4.5614,-4.5322,-4.5201,-4.5191,-4.4973,-4.5007,-4.5074,-4.3642,-4.2787,-4.2155,-3.9941,-3.9232,-3.9302,-3.8331,-3.7835,-3.7541,-3.6736,-3.5919,-3.5008,-3.367,-3.2685,-3.1478,-2.8672,-2.8096,0.0,0.0,0.0,0.0,0.0,0.0,0.0,0.0,0.0,-3.354,-3.546,-3.7578,-3.9751,-4.1906,-4.3238,-4.4872,-4.7579,-4.7361,-4.7578,-4.9717,-4.9642,-4.9513,-5.004,-5.0051,-5.0367,-5.1235,-5.1843,-5.2567,-5.3546,-5.4167,-5.4512,-5.4512,-5.4512,-5.4512,-5.4512,-5.4512,-5.4512,-5.4512,-5.4512,-5.4512,-5.4512,-5.4512,-5.4512,-5.4512,-5.4512,-5.4512,-5.4512,-5.4512,-5.4512,-5.4512,-5.4512,-5.4512,-5.4512,-5.4512,-5.4149,-5.3529,-5.2735,-5.1977,-5.1274,0.0,-1.5409,-1.539,-1.5391,-1.5391,-1.5391,-1.5391,-1.6211,-1.7459,-1.9138,-2.0188,-2.1441,-2.3218,-2.3185,-2.3732,-2.5488,-2.7,-2.8934,-3.1502,-3.4016,-3.619,-3.7977,-3.9651,-4.1347,-4.3054,-4.3111,-4.3959,-4.5693,-4.5693,-4.569,-4.5692,-4.569,-4.5693,-4.5665,-4.5342,-4.5201,-4.5201,-4.518,-4.518,-4.5027,-4.3217,-4.2443,-4.2155,-3.9941,-3.9129,-3.9072,-3.8465,-3.7642,-3.6718,-3.5919,-3.5064,-3.4309,-3.4123,-3.351,-3.2648,-3.1571,0.0,-2.9341,-2.9805,-3.0641,-3.1756,-3.328,-3.3187,-3.4067,0.0,0.0,-3.8098,-4.12,-4.263,-4.3633,-4.4692,-4.6706,-4.8034,-4.7482,-4.9153,-5.0253,-4.9511,-4.9886,-5.0282,-5.0341,-5.0246,-5.0674,-5.1959,-5.2136,-5.2822,-5.4287,-5.446,-5.4512,-5.4512,-5.4512,-5.4512,-5.4512,-5.4512,-5.4512,-5.4512,-5.4512,-5.4512,-5.4512,-5.4512,-5.4512,-5.4512,-5.4512,-5.4512,-5.4512,-5.4512,-5.4512,-5.4512,-5.4512,-5.4512,-5.4512,-5.4512,-5.446,-5.4287,-5.3546,-5.277,-5.1964,0.0,-1.5407,-1.5409,-1.539,-1.5391,-1.5391,-1.5391,-1.6133,-1.7303,-1.8986,-1.9952,-2.1143,-2.2821,-2.2968,-2.3231,-2.3929,-2.5975,-2.8335,-3.0926,-3.3982,-3.6452,-3.8136,-3.9799,-4.1472,-4.3122,-4.3165,-4.3991,-4.5701,-4.5701,-4.5673,-4.5646,-4.5629,-4.564,-4.564,-4.5495,-4.5429,-4.5429,-4.5429,-4.5429,-4.5314,-4.3861,-4.2995,-4.2345,-4.0278,-3.8827,-3.7823,-3.7486,-3.6783,0.0,-3.5027,-3.4829,-3.4866,-3.4364,-3.3956,-3.3436,-3.2165,-3.1998,0.0,-3.38,-3.4395,0.0,0.0,-3.6816,-3.7944,-4.0346,-4.081,-4.1274,-4.3113,-4.4915,-4.6252,-4.6624,-4.8103,-4.9229,0.0,-4.9983,-5.0597,-5.0635,-5.0187,-4.9864,-4.9864,-4.9809,-5.048,-5.2226,-5.2265,-5.2856,-5.4391,-5.4512,-5.4512,-5.4512,-5.4512,-5.4512,-5.4512,-5.4512,-5.4512,-5.4512,-5.4512,-5.4512,-5.4512,-5.4512,-5.4512,-5.4512,-5.4512,-5.4512,-5.4512,-5.4512,-5.4512,-5.4512,-5.4512,-5.4512,-5.4512,-5.4512,-5.4512,-5.4477,-5.4149,-5.3563,-5.2856,0.0,-1.5406,-1.5408,-1.541,-1.5391,-1.5391,-1.5391,-1.6133,-1.7226,-1.8682,-1.9614,-2.0693,-2.2133,-2.2275,-2.2447,-2.2868,-2.4815,-2.7209,-3.0056,-3.3228,-3.5839,-3.7748,-3.9451,-4.1151,-4.2837,-4.2874,-4.3701,-4.5367,-4.5367,-4.5467,-4.5646,-4.5637,-4.562,-4.5631,-4.5614,-4.5594,-4.5575,-4.5344,-4.5248,-4.5115,-4.3752,-4.2737,-4.181,-3.9842,-3.7832,-3.602,-3.5836,-3.507,-3.4023,-3.3169,-3.3299,-3.3745,-3.3336,-3.3361,-3.341,-3.2667,-3.3615,-3.5052,-3.5807,0.0,0.0,-3.8377,-3.9993,-4.146,-4.1698,-4.2816,-4.3986,-4.4562,-4.6122,-4.7441,-4.7664,-4.8604,0.0,-5.0472,-5.0641,-5.0892,-5.1519,-5.0503,-4.9653,-4.9581,-4.9282,-4.9844,-5.1732,-5.2144,-5.28,-5.4098,-5.4391,-5.4512,-5.4512,-5.4512,-5.4512,-5.4512,-5.4512,-5.4512,-5.4512,-5.4512,-5.4512,-5.4512,-5.4512,-5.4512,-5.4512,-5.4512,-5.4512,-5.4512,-5.4512,-5.4512,-5.4512,-5.4512,-5.4512,-5.4512,-5.4512,-5.4512,-5.4512,-5.4512,-5.4167,-5.3684,0.0,0.0,-1.5408,-1.541,-1.5391,-1.5391,-1.5391,-1.6133,-1.7012,-1.793,-1.8745,-1.9561,-2.0392,-2.0478,-2.1133,-2.2752,-2.3732,-2.5724,-2.9113,-3.1753,-3.4306,-3.6826,-3.8605,-4.0314,-4.1994,-4.2046,-4.2857,-4.4537,-4.4537,-4.4962,-4.5781,-4.5723,-4.5703,-4.5693,-4.5631,-4.5594,-4.5537,-4.4701,-4.4335,-4.4165,-4.2249,-4.0979,-4.0062,-3.8124,-3.5815,-3.3592,-3.3443,-3.2251,-3.0623,-2.9824,-2.9564,-2.9712,-3.0474,-3.1236,0.0,-3.3677,-3.5312,0.0,0.0,0.0,-3.9231,-4.0104,-4.211,-4.4116,-4.4952,-4.5788,-4.6382,-4.642,-4.6475,-4.6773,-4.7553,-4.8371,-4.9305,-5.042,-5.1293,-5.1799,-5.1618,-5.0798,-5.0049,-4.9732,-4.8766,-4.8752,0.0,-5.1697,-5.2762,-5.3373,-5.4098,-5.4512,-5.4512,-5.4512,-5.4512,-5.4512,-5.4512,-5.4512,-5.4512,-5.4512,-5.4512,-5.4512,-5.4512,-5.4512,-5.4512,-5.4512,-5.4512,-5.4512,-5.4512,-5.4512,-5.4512,-5.4512,-5.4512,-5.4512,-5.4512,-5.4512,-5.4512,-5.4512,-5.4494,-5.4374,0.0,0.0,0.0,-1.6268,-1.6738,-1.7129,-1.7129,-1.6875,-1.7227,-1.8672,-1.9609,0.0,0.0,0.0,0.0,0.0,-2.3715,-2.5401,-2.8247,-3.083,-3.3146,-3.5143,-3.6864,-3.885,-4.1145,-4.1203,-4.1995,-4.3649,-4.3649,-4.3789,-4.4075,-4.4041,-4.4052,-4.4037,-4.4021,-4.4013,-4.3994,-4.3686,-4.3879,-4.416,-4.1808,-4.1045,-4.0998,-3.8033,-3.5267,-3.2814,0.0,-3.0315,-2.8951,-2.8147,-2.8175,-2.8579,-2.8858,0.0,0.0,-3.2778,-3.4599,-3.6142,0.0,0.0,-4.1089,-4.2445,-4.3819,-4.5082,-4.59,-4.6308,-4.6494,-4.6494,-4.6494,-4.6587,-4.6847,-4.7553,-4.8578,-5.0047,-5.0704,-5.1394,-5.2466,-5.1299,-5.0111,-4.9508,-4.9273,0.0,0.0,0.0,0.0,-5.3389,-5.3677,-5.4057,-5.4669,-5.4575,-5.4512,-5.4512,-5.4512,-5.4512,-5.4512,-5.4512,-5.4512,-5.4512,-5.4512,-5.4512,-5.4512,-5.4512,-5.4512,-5.4512,-5.4512,-5.4512,-5.4512,-5.4512,-5.4512,-5.4512,-5.4512,-5.4512,-5.4512,-5.4512,-5.4512,-5.4477,0.0,0.0,0.0,0.0,0.0,0.0,0.0,0.0,0.0,0.0,0.0,0.0,0.0,0.0,0.0,0.0,0.0,0.0,-2.6963,-2.9199,-3.1217,-3.2962,-3.435,-3.6013,-3.8005,-3.8044,-3.8999,-4.0945,-4.0945,-4.1408,-4.2319,-4.2319,-4.2293,-4.2278,-4.2278,-4.2278,-4.2259,-4.1969,-4.2143,-4.2425,-4.0147,-3.9215,-3.8868,-3.5996,-3.3275,0.0,-2.9417,-2.8162,-2.7064,-2.6451,-2.6877,-2.7724,-2.8003,-2.9694,-3.1886,-3.3447,-3.5268,-3.7331,-3.9751,-4.12,-4.2482,-4.4413,-4.5528,-4.6215,-4.6438,-4.6717,-4.668,-4.5788,-4.5602,-4.5509,-4.5231,-4.5602,-4.6773,-4.928,-4.9862,-5.0722,-5.2805,-5.1849,-5.069,-5.0042,-4.9973,0.0,0.0,0.0,0.0,-5.3155,-5.3723,-5.4229,-5.4762,-5.4686,-5.4575,-5.4512,-5.4512,-5.4512,-5.4512,-5.4512,-5.4512,-5.4512,-5.4512,-5.4512,-5.4512,-5.4512,-5.4512,-5.4512,-5.4512,-5.4512,-5.4512,-5.4512,-5.4512,-5.4512,-5.4512,-5.4512,-5.4512,-5.4512,-5.4512,-5.4512,0.0,0.0,0.0,0.0,0.0,0.0,0.0,0.0,0.0,0.0,0.0,0.0,0.0,0.0,0.0,0.0,0.0,0.0,-2.5386,-2.7021,-2.8692,-3.0385,-3.1231,-3.2101,-3.301,-3.303,-3.4248,-3.6709,-3.6709,-3.7949,-4.0314,-4.0314,-4.0294,-4.0272,-4.0272,-4.0311,-4.0291,-3.9481,-3.9173,-3.9038,-3.7263,-3.5624,-3.4056,-3.2297,-3.0089,-2.7792,-2.6958,-2.5995,-2.5074,-2.4895,0.0,0.0,0.0,0.0,0.0,-3.5584,-3.7318,-3.9751,-4.2147,-4.289,-4.3559,-4.5955,-4.7107,-4.746,-4.6735,-4.7051,-4.6828,-4.4432,-4.3875,-4.3559,0.0,0.0,-4.4042,-4.8017,-4.8797,-4.9879,-5.2686,-5.2477,-5.1833,0.0,0.0,0.0,0.0,0.0,0.0,-5.277,0.0,-5.4896,-5.4811,-5.4828,-5.4717,-5.4512,-5.4512,-5.4512,-5.4512,-5.4512,-5.4512,-5.4512,-5.4512,-5.4512,-5.4512,-5.4512,-5.4512,-5.4512,-5.4512,-5.4512,-5.4512,-5.4512,-5.4512,-5.4512,-5.4512,-5.4512,-5.4512,-5.4512,-5.4512,-5.4512,0.0,0.0,0.0,0.0,0.0,0.0,0.0,0.0,0.0,0.0,0.0,0.0,0.0,0.0,0.0,0.0,0.0,0.0,-2.5385,-2.6511,-2.7563,-2.861,-2.9476,-3.0636,-3.2101,-3.2121,-3.2778,-3.4074,-3.4074,-3.4397,-3.5049,-3.5049,-3.5372,-3.5991,-3.5991,-3.6339,-3.6893,-3.6049,-3.6049,-3.643,-3.4044,-3.3203,-3.3222,-3.1477,-2.9591,-2.787,-2.7657,-2.6507,0.0,0.0,0.0,0.0,0.0,0.0,-3.4884,0.0,0.0,-4.1219,-4.2463,-4.4153,-4.5844,-4.7088,-4.7107,-4.6903,-4.7293,-4.6122,-4.4599,-4.3355,-4.2147,-4.0866,0.0,0.0,0.0,-4.4878,-4.7311,0.0,-5.2381,-5.3267,0.0,0.0,0.0,-5.3496,-5.3075,-5.3792,0.0,0.0,-5.4291,-5.446,-5.5061,-5.4917,-5.4797,-5.4717,-5.4575,-5.4512,-5.4512,-5.4512,-5.4512,-5.4512,-5.4512,-5.4512,-5.4512,-5.4512,-5.4512,-5.4512,-5.4512,-5.4512,-5.4512,-5.4512,-5.4512,-5.4512,-5.4512,-5.4512,-5.4512,-5.4512,-5.4512,-5.4512,0.0,0.0,0.0,0.0,0.0,0.0,0.0,0.0,0.0,0.0,0.0,0.0,0.0,0.0,0.0,0.0,0.0,0.0,0.0,-2.5779,-2.6434,-2.6881,-2.7369,-2.8064,-2.9007,-2.9375,-2.9993,-3.0868,-3.1231,-3.1637,-3.2005,-3.2005,-3.2261,-3.273,-3.273,-3.2996,-3.3421,-3.2938,-3.3015,0.0,0.0,-3.0767,-3.0704,-2.9342,-2.7981,-2.6799,-2.6805,0.0,0.0,0.0,0.0,-3.2481,-3.4116,-3.5677,-3.7262,-3.9008,0.0,-4.2909,-4.4098,-4.5695,-4.7144,-4.759,-4.7367,-4.6773,-4.5769,-4.4469,-4.2835,-4.0587,-3.9398,0.0,0.0,0.0,0.0,0.0,0.0,0.0,-5.2197,-5.3767,-5.4458,0.0,-5.4935,0.0,-5.4994,-5.5379,-5.5633,0.0,-5.499,-5.4797,-5.5164,-5.5066,-5.4948,-5.4886,-5.47,-5.4575,-5.4512,-5.4512,-5.4512,-5.4512,-5.4512,-5.4512,-5.4512,-5.4512,-5.4512,-5.4512,0.0,-5.4512,-5.4512,-5.4512,-5.4512,-5.4512,-5.4512,-5.4512,-5.4512,-5.4512,-5.4512,-5.4512,0.0,0.0,0.0,0.0,0.0,0.0,0.0,0.0,0.0,0.0,0.0,0.0,0.0,0.0,0.0,0.0,0.0,0.0,0.0,0.0,-2.551,-2.5501,-2.5494,-2.5507,-2.5507,-2.6184,-2.6899,-2.7662,0.0,-2.9186,-2.9921,-2.9921,-2.9979,-3.0075,-3.0075,-3.0153,-3.025,-3.0133,-3.0075,-3.0017,-2.9147,-2.8339,-2.758,0.0,-2.6062,0.0,0.0,0.0,0.0,0.0,-3.4014,-3.5144,-3.6829,-3.8897,-4.0903,-4.1813,-4.315,-4.4674,-4.6234,-4.7256,-4.7831,-4.7738,-4.7627,-4.6717,-4.3522,-4.2556,-4.12,-3.7336,0.0,-3.572,-3.416,0.0,-3.8785,-4.1962,0.0,-4.8686,-5.1992,-5.3924,-5.5039,-5.5169,-5.623,-5.6963,-5.6963,-5.6692,-5.651,-5.651,-5.6014,-5.5572,-5.5259,-5.5229,-5.5139,-5.4992,-5.4873,-5.4717,-5.4543,-5.4512,-5.4512,-5.4512,-5.4512,-5.4512,-5.4512,-5.4512,-5.4512,-5.4512,-5.4512,0.0,-5.4512,-5.4512,-5.4512,-5.4512,-5.4512,-5.4512,-5.4512,-5.4512,-5.4512,-5.4512,0.0,0.0,0.0,0.0,0.0,0.0,0.0,0.0,0.0,0.0,-2.2676,-2.2695,0.0,0.0,0.0,0.0,0.0,0.0,0.0,0.0,0.0,-2.5504,-2.5494,-2.5507,-2.5507,0.0,0.0,0.0,0.0,0.0,-2.6381,-2.6381,-2.6745,-2.7383,-2.7383,-2.7774,-2.8397,-2.7673,-2.7383,-2.7305,-2.6493,-2.6072,-2.5917,-2.5774,0.0,0.0,0.0,0.0,0.0,0.0,-3.5012,-3.8544,-4.0215,-4.1497,-4.2686,-4.4209,-4.5324,-4.6271,-4.7237,-4.8091,-4.8537,-4.7868,-4.72,-4.6011,-4.3392,-4.1219,0.0,0.0,0.0,-3.3354,-3.2388,-3.4804,0.0,-4.0383,0.0,0.0,0.0,0.0,-5.528,0.0,0.0,0.0,0.0,0.0,0.0,0.0,0.0,-5.6429,-5.549,-5.5277,-5.5139,-5.4992,-5.4873,-5.478,-5.4749,-5.4575,-5.4512,-5.4512,-5.4512,-5.4512,-5.4512,-5.4512,-5.4512,-5.4512,-5.4512,0.0,-5.4512,-5.4512,-5.4512,-5.4512,-5.4512,-5.4512,-5.4512,-5.4512,-5.4512,-5.4512,0.0,0.0,0.0,0.0,0.0,0.0,0.0,-2.2514,-2.2983,-2.4274,-2.4843,-2.4629,-2.3281,-2.3144,-2.3496,0.0,0.0,0.0,0.0,0.0,0.0,0.0,0.0,-2.5507,0.0,0.0,0.0,0.0,0.0,0.0,0.0,0.0,0.0,0.0,0.0,0.0,0.0,0.0,-2.6087,0.0,0.0,0.0,0.0,0.0,0.0,0.0,0.0,0.0,0.0,0.0,-3.4744,-3.8971,-4.0983,-4.2445,-4.3578,-4.4395,-4.5509,-4.6587,-4.6977,-4.798,-4.8612,-4.7386,-4.6475,-4.4878,-4.1107,0.0,0.0,0.0,0.0,-3.0864,-3.0028,0.0,0.0,0.0,0.0,0.0,0.0,0.0,0.0,0.0,0.0,0.0,0.0,0.0,0.0,0.0,0.0,-5.6757,-5.5957,-5.5543,-5.5294,-5.5126,-5.4961,-5.4855,-5.4797,-5.4606,-5.4512,-5.4512,-5.4512,-5.4512,-5.4512,-5.4512,-5.4512,-5.4512,-5.4512,0.0,-5.4512,-5.4512,-5.4512,-5.4512,-5.4512,-5.4512,-5.4512,-5.4512,-5.4512,-5.4512,0.0,0.0,0.0,0.0,0.0,0.0,0.0,-2.3252,-2.3996,-2.5756,-2.6735,-2.6424,-2.418,-2.3984,-2.4199,0.0,0.0,0.0,0.0,0.0,0.0,0.0,0.0,0.0,0.0,0.0,0.0,0.0,0.0,0.0,0.0,0.0,0.0,0.0,0.0,0.0,0.0,0.0,0.0,0.0,0.0,0.0,0.0,0.0,0.0,0.0,0.0,0.0,0.0,0.0,-3.3487,-3.7155,-3.9621,-4.1924,-4.3782,-4.3949,-4.5194,-4.6531,-4.6717,-4.7813,-4.8519,-4.6903,-4.59,-4.3986,-3.9027,-3.6513,0.0,0.0,-2.9248,-2.8969,-2.8467,0.0,0.0,0.0,0.0,0.0,0.0,0.0,0.0,0.0,0.0,0.0,0.0,0.0,0.0,0.0,0.0,0.0,-5.6339,-5.5918,-5.5561,-5.5259,-5.5126,-5.4992,-5.4886,-5.47,-5.4606,-5.4606,-5.4575,-5.4575,-5.4543,-5.4512,-5.4512,-5.4512,-5.4512,0.0,0.0,-5.4512,-5.4512,-5.4512,-5.4512,-5.4512,-5.4512,-5.4512,-5.4512,-5.4512,0.0,0.0,0.0,0.0,0.0,0.0,0.0,-2.3775,-2.4908,-2.6651,-2.7647,-2.7786,-2.6756,-2.664,-2.6367,0.0,0.0,0.0,0.0,0.0,0.0,0.0,0.0,0.0,0.0,0.0,0.0,0.0,0.0,0.0,0.0,0.0,0.0,0.0,0.0,0.0,0.0,0.0,0.0,0.0,0.0,0.0,0.0,0.0,0.0,0.0,0.0,0.0,0.0,0.0,0.0,-3.2465,-3.5548,-3.9458,-4.3039,-4.3782,0.0,0.0,-4.7386,-4.824,-4.8519,-4.6903,-4.59,-4.3986,-3.9027,0.0,0.0,-3.0084,-2.8765,-2.843,-2.9155,-3.0772,0.0,0.0,0.0,0.0,0.0,0.0,0.0,0.0,0.0,0.0,0.0,0.0,0.0,0.0,0.0,0.0,-5.6348,-5.6257,-5.5968,-5.5507,-5.5277,-5.5169,-5.5169,-5.5035,-5.4961,-5.4961,-5.4842,-5.4749,-5.4766,-5.4575,-5.4512,-5.4512,-5.4512,0.0,0.0,-5.4512,-5.4512,-5.4512,-5.4512,-5.4512,-5.4512,-5.4512,-5.4512,-5.4512,0.0,0.0,0.0,0.0,0.0,0.0,-2.3559,-2.3735,-2.4614,-2.7428,-2.8075,-2.8175,-2.7825,-2.7771,-2.7226,-2.582,0.0,0.0,0.0,0.0,0.0,0.0,0.0,0.0,0.0,0.0,0.0,0.0,0.0,0.0,0.0,0.0,0.0,0.0,0.0,0.0,0.0,0.0,0.0,0.0,0.0,0.0,0.0,0.0,0.0,0.0,0.0,0.0,0.0,0.0,0.0,0.0,-3.1338,-3.4471,0.0,0.0,-4.3135,-4.4726,-4.5929,-4.6828,-4.7181,-4.6048,-4.4785,-4.263,-3.8191,0.0,-3.2555,-2.9285,-2.8337,-2.8207,-2.8542,-2.9973,-3.1924,-3.4531,-3.5906,-3.8395,0.0,0.0,0.0,0.0,0.0,0.0,0.0,0.0,0.0,0.0,0.0,0.0,-5.7315,-5.6652,-5.6052,-5.5507,-5.5306,-5.5199,-5.5199,-5.5066,-5.4992,-5.4992,-5.4948,-5.4886,-5.4797,-5.4717,-5.4606,-5.4512,-5.4512,0.0,0.0,-5.4512,-5.4512,-5.4512,-5.4512,-5.4512,-5.4512,-5.4512,-5.4512,-5.4512,0.0,0.0,0.0,0.0,0.0,-2.1374,-2.3676,-2.3715,-2.4555,-2.7522,-2.8131,-2.8309,-2.8309,-2.806,-2.742,-2.6191,-2.5859,0.0,0.0,0.0,0.0,0.0,0.0,0.0,0.0,0.0,0.0,0.0,-2.5855,0.0,0.0,0.0,0.0,0.0,0.0,0.0,0.0,0.0,0.0,0.0,0.0,0.0,0.0,0.0,0.0,0.0,0.0,0.0,0.0,0.0,0.0,0.0,0.0,0.0,0.0,0.0,-4.1036,-4.3049,-4.4513,-4.5695,-4.6308,-4.5491,-4.4042,-4.172,0.0,0.0,-3.2072,-2.8783,-2.8096,-2.8096,-2.8096,-2.9285,-3.0846,-3.2704,-3.3893,-3.6222,-4.094,0.0,0.0,0.0,0.0,0.0,0.0,0.0,0.0,0.0,0.0,0.0,0.0,-5.7173,-5.6456,-5.5764,-5.5472,-5.5277,-5.5277,-5.5204,-5.5161,-5.5161,-5.5083,-5.5022,-5.4917,-5.4873,-5.4762,-5.4652,-5.4652,0.0,0.0,-5.4652,-5.4652,-5.4652,-5.4652,-5.4652,-5.462,-5.4606,-5.4575,-5.4575,0.0,0.0,0.0,0.0,0.0,0.0,-2.2857,-2.3832,-2.5023,-2.6781,-2.7756,-2.8304,-2.8309,-2.7529,-2.7005,-2.699,-2.6191,0.0,0.0,0.0,0.0,0.0,0.0,0.0,0.0,0.0,-2.5894,-2.6683,-2.6683,0.0,0.0,0.0,0.0,0.0,0.0,0.0,0.0,0.0,0.0,0.0,0.0,0.0,0.0,0.0,0.0,0.0,0.0,0.0,0.0,0.0,0.0,0.0,0.0,0.0,0.0,0.0,-3.9251,-4.2128,-4.362,-4.5231,-4.6308,-4.5491,-4.4042,-4.172,0.0,-3.4773,-3.2072,-2.8783,-2.8096,-2.8096,-2.8096,-2.882,-3.0196,-3.2611,-3.4395,-3.6922,-4.1014,0.0,0.0,0.0,0.0,0.0,0.0,0.0,0.0,0.0,0.0,0.0,0.0,-5.7882,-5.7389,-5.6339,-5.5775,-5.5507,-5.5507,-5.5478,-5.5478,-5.5478,-5.5277,-5.5199,-5.5199,-5.5066,-5.4992,0.0,0.0,0.0,0.0,-5.4992,-5.4992,-5.4992,-5.4992,-5.4992,-5.4992,-5.4842,-5.4797,-5.4749,0.0,0.0,0.0,0.0,0.0,0.0,0.0,-2.3326,-2.4341,-2.6684,-2.723,-2.764,-2.8247,-2.7528,-2.7003,-2.7005,-2.6209,0.0,0.0,0.0,0.0,0.0,0.0,0.0,0.0,0.0,-2.678,-2.758,-2.818,-2.8625,0.0,0.0,0.0,0.0,0.0,0.0,0.0,0.0,0.0,0.0,0.0,0.0,0.0,0.0,0.0,0.0,0.0,0.0,0.0,0.0,0.0,0.0,0.0,0.0,0.0,-3.1325,0.0,0.0,-3.9994,-4.1023,-4.1505,-4.0005,-3.9223,-3.8021,-3.4884,-3.3559,-3.224,-2.9545,-2.8988,-2.8988,-2.8988,-2.9211,-3.0363,-3.3336,-3.4271,0.0,0.0,0.0,0.0,0.0,0.0,0.0,0.0,0.0,0.0,0.0,0.0,0.0,0.0,-5.8105,-5.7413,-5.6339,-5.6136,-5.5861,-5.5507,-5.5507,-5.5507,-5.5507,-5.5448,-5.5336,-5.5199,-5.5169,-5.5096,0.0,0.0,0.0,0.0,-5.4992,-5.4992,-5.4992,-5.4992,-5.4992,-5.4992,-5.493,-5.4948,-5.4948,0.0,0.0,0.0,0.0,0.0,0.0,0.0,-2.2642,-2.3462,-2.5726,-2.6019,-2.6488,-2.7678,-2.7037,-2.6649,-2.6963,-2.6206,0.0,0.0,0.0,0.0,0.0,0.0,0.0,-2.5537,-2.6037,-2.7038,-2.8494,-2.936,-3.0114,-3.0733,-3.0733,-2.9824,0.0,0.0,0.0,0.0,0.0,0.0,0.0,0.0,0.0,0.0,0.0,0.0,0.0,0.0,0.0,0.0,0.0,0.0,0.0,0.0,0.0,0.0,0.0,-3.1903,0.0,0.0,-3.8137,-3.8482,-3.7367,-3.6794,-3.5907,-3.3624,-3.2817,-3.1961,-2.9842,-2.9396,-2.9396,-2.9396,-2.9396,-3.0251,-3.2871,-3.3788,0.0,0.0,0.0,0.0,0.0,0.0,0.0,0.0,0.0,0.0,0.0,0.0,0.0,0.0,-5.8385,-5.7812,-5.6938,-5.6704,-5.6429,-5.6108,-5.5901,-5.5804,-5.5804,-5.5578,-5.5431,-5.5306,-5.5306,-5.5264,0.0,0.0,0.0,0.0,-5.5191,-5.5191,-5.5191,-5.5191,-5.5191,-5.5191,-5.5096,-5.5066,-5.5066,0.0,0.0,0.0,0.0,0.0,0.0,0.0,-2.19,-2.2504,-2.4183,-2.4397,-2.5042,-2.6723,-2.6175,-2.6021,-2.6845,0.0,0.0,0.0,0.0,0.0,0.0,0.0,0.0,-2.5601,-2.5654,-2.6909,-2.9384,-3.0385,-3.17,-3.33,-3.3339,-3.2411,-3.0617,-2.8939,0.0,0.0,0.0,0.0,0.0,0.0,0.0,0.0,0.0,0.0,0.0,0.0,0.0,0.0,0.0,0.0,0.0,0.0,0.0,0.0,0.0,0.0,0.0,0.0,-3.6051,0.0,0.0,-3.594,-3.4877,-3.3302,-3.2272,0.0,-2.9545,-2.9266,-2.9341,-2.9452,-2.95,-3.0065,-3.1868,-3.3436,0.0,0.0,0.0,0.0,0.0,0.0,0.0,0.0,0.0,0.0,0.0,0.0,0.0,0.0,-5.8716,-5.8489,-5.7973,-5.7462,-5.7191,-5.7116,-5.6617,-5.6339,-5.6284,-5.5775,-5.5537,-5.5507,-5.5507,-5.5507,0.0,0.0,0.0,0.0,-5.5507,-5.5507,-5.5507,-5.5507,-5.5507,-5.5478,-5.5277,-5.5229,-5.5199,0.0,0.0,0.0,0.0,0.0,0.0,0.0,0.0,0.0,0.0,-2.4397,-2.4808,-2.5883,-2.5824,-2.5785,0.0,0.0,0.0,0.0,0.0,0.0,0.0,0.0,0.0,-2.5601,-2.6833,-2.8408,-3.0288,-3.2459,-3.404,-3.5104,-3.5723,-3.4403,-3.1463,-3.0443,-2.8412,0.0,0.0,0.0,0.0,0.0,0.0,0.0,0.0,0.0,0.0,0.0,0.0,0.0,0.0,0.0,0.0,0.0,0.0,0.0,0.0,-2.7169,-2.783,-2.9385,0.0,-3.1814,-3.1047,-3.1021,-3.0893,0.0,-2.9772,-2.9489,-2.7836,0.0,0.0,-3.0084,-3.0326,-3.1459,0.0,0.0,0.0,0.0,0.0,0.0,0.0,0.0,0.0,0.0,0.0,0.0,0.0,0.0,0.0,0.0,-5.8716,-5.8635,-5.8511,-5.8385,-5.7928,-5.7116,-5.6989,-5.6704,-5.6311,-5.6164,-5.589,-5.5507,-5.5507,-5.5507,0.0,0.0,0.0,-5.5507,-5.5507,-5.5507,-5.5507,-5.5507,-5.5507,-5.5478,-5.5448,-5.5431,-5.5431,0.0,0.0,0.0,0.0,0.0,0.0,0.0,0.0,0.0,0.0,0.0,-2.473,-2.5609,-2.5707,0.0,0.0,0.0,0.0,0.0,0.0,0.0,0.0,0.0,-2.5677,-2.5603,-2.6881,-2.8556,-3.0598,-3.2745,-3.464,-3.6265,-3.6709,-3.551,-3.2899,-3.0482,-2.8373,0.0,0.0,0.0,0.0,0.0,0.0,0.0,0.0,0.0,0.0,0.0,-2.6029,0.0,-2.7164,-2.7602,-2.7905,0.0,0.0,0.0,0.0,-2.6025,-2.6115,-2.6582,-2.8813,-3.0873,-3.0318,-3.059,-3.0865,-3.0361,0.0,0.0,0.0,0.0,0.0,0.0,0.0,0.0,0.0,0.0,0.0,0.0,0.0,0.0,0.0,0.0,0.0,0.0,0.0,0.0,0.0,0.0,0.0,0.0,-5.8716,-5.8716,-5.8716,-5.8716,-5.8406,-5.7835,-5.7582,-5.7315,-5.704,-5.6783,-5.651,-5.6229,-5.6229,-5.6108,0.0,0.0,0.0,-5.5507,-5.5507,-5.5507,-5.5507,-5.5507,-5.5507,-5.5507,-5.5507,-5.5507,-5.5507,0.0,0.0,0.0,0.0,0.0,0.0,0.0,0.0,0.0,0.0,0.0,0.0,0.0,0.0,0.0,0.0,0.0,0.0,0.0,0.0,0.0,0.0,-2.5703,-2.5795,-2.5972,-2.6706,-2.83,-3.0772,-3.2604,-3.4654,-3.6903,-3.7309,-3.6381,-3.4239,-3.0312,-2.8358,0.0,0.0,0.0,0.0,0.0,0.0,0.0,0.0,0.0,0.0,0.0,0.0,0.0,-2.7419,-2.7873,-2.8118,-2.7672,0.0,0.0,0.0,0.0,0.0,-2.5769,-2.8827,-3.1756,-3.1256,-3.1778,-3.2327,-3.2081,0.0,0.0,0.0,0.0,0.0,0.0,0.0,0.0,0.0,0.0,0.0,0.0,0.0,0.0,0.0,0.0,0.0,0.0,0.0,0.0,0.0,0.0,0.0,0.0,-5.8716,-5.8716,-5.8716,-5.8716,-5.8716,-5.8716,-5.8257,-5.7992,-5.7882,-5.7437,-5.7191,-5.7116,-5.7116,-5.6861,-5.6402,0.0,0.0,-5.5637,-5.5637,-5.5549,-5.5507,-5.5507,-5.5507,-5.5507,-5.5507,-5.5507,-5.549,0.0,0.0,0.0,0.0,0.0,0.0,0.0,0.0,0.0,0.0,0.0,0.0,0.0,0.0,0.0,0.0,0.0,0.0,0.0,0.0,0.0,-2.5702,-2.5703,-2.6323,-2.768,-2.7853,-2.9136,-3.1618,-3.4098,-3.5858,-3.6961,-3.9166,-3.8127,-3.4316,-3.2164,-3.0017,-2.7972,-2.7739,0.0,0.0,0.0,0.0,0.0,0.0,0.0,0.0,0.0,0.0,0.0,-2.6064,-2.7325,-2.8722,-2.6547,0.0,0.0,0.0,0.0,0.0,-2.7958,-3.0564,-3.2025,-2.9179,-3.0457,-3.2036,-3.0604,0.0,0.0,0.0,0.0,0.0,0.0,0.0,0.0,0.0,0.0,0.0,0.0,0.0,0.0,0.0,0.0,0.0,0.0,0.0,0.0,0.0,0.0,0.0,0.0,-5.8716,-5.8716,-5.8716,-5.8716,-5.8716,-5.8716,-5.8614,-5.8363,-5.7905,-5.7812,-5.7534,-5.7116,-5.7116,-5.7065,-5.6989,0.0,-5.6652,-5.6192,-5.6192,-5.5918,-5.5507,-5.5507,-5.5507,-5.5507,-5.5507,-5.5507,-5.542,0.0,0.0,0.0,0.0,0.0,0.0,0.0,0.0,0.0,0.0,0.0,0.0,0.0,0.0,0.0,0.0,0.0,0.0,0.0,0.0,-2.6125,-2.7068,-2.6658,-2.6949,-2.8089,-2.9484,-3.1197,-3.3209,-3.5781,-3.7483,-3.8295,-3.8127,-3.6497,-3.3596,-3.1429,-3.0056,-2.9345,-2.8397,0.0,0.0,0.0,0.0,0.0,0.0,0.0,0.0,0.0,0.0,0.0,0.0,-2.7232,-2.832,-2.6667,0.0,0.0,0.0,0.0,0.0,-2.6785,-2.9286,-3.1155,-2.95,-3.211,-3.4993,-3.4544,-3.3454,0.0,0.0,0.0,0.0,0.0,0.0,0.0,0.0,0.0,0.0,0.0,0.0,0.0,0.0,0.0,0.0,0.0,0.0,0.0,0.0,0.0,0.0,0.0,0.0,-5.8716,-5.8716,-5.8716,-5.8716,-5.8716,-5.8716,-5.8593,-5.8341,-5.8341,-5.8213,-5.7951,-5.7951,-5.7812,-5.7534,0.0,-5.7241,-5.6731,-5.6731,-5.659,-5.6339,-5.6042,-5.5929,-5.589,-5.5607,-5.5227,-5.4805,0.0,0.0,0.0,0.0,0.0,0.0,0.0,0.0,0.0,0.0,0.0,0.0,0.0,0.0,0.0,0.0,0.0,0.0,0.0,-2.5708,-2.6396,-2.7926,-2.7751,-2.8238,-2.9567,-3.1176,-3.3078,-3.5278,-3.7444,-3.905,-4.0023,-3.7483,-3.5356,-3.361,-3.1236,-3.0346,-3.0501,-2.919,-2.8881,0.0,0.0,0.0,0.0,0.0,0.0,0.0,0.0,0.0,0.0,0.0,0.0,0.0,0.0,0.0,0.0,-2.6406,-2.5863,-2.5836,-2.642,-2.8436,-3.0489,-3.087,0.0,-3.6764,-3.7777,-3.6179,0.0,0.0,0.0,0.0,0.0,0.0,0.0,0.0,0.0,0.0,0.0,0.0,0.0,0.0,0.0,0.0,0.0,0.0,0.0,0.0,0.0,0.0,0.0,0.0,-5.8716,-5.8716,-5.8716,-5.8716,-5.8716,-5.8716,-5.8716,-5.8716,-5.8716,-5.8716,-5.8716,-5.8716,-5.8489,-5.8082,-5.8082,-5.7789,-5.729,-5.729,-5.7216,-5.7065,-5.6643,-5.6376,-5.6161,-5.5748,-5.5083,-5.4376,0.0,0.0,0.0,0.0,0.0,0.0,0.0,0.0,0.0,0.0,0.0,0.0,0.0,0.0,0.0,0.0,0.0,0.0,0.0,-2.5691,-2.6125,-2.7048,-2.8573,-3.0852,-3.3963,-3.2695,-3.3946,-3.7922,-3.892,-4.0236,-4.1757,-3.9204,-3.7116,-3.5433,-3.3629,-3.2005,-3.0598,-3.0462,-2.9979,-2.9229,0.0,0.0,0.0,0.0,0.0,0.0,0.0,0.0,0.0,0.0,0.0,0.0,0.0,0.0,-2.7982,-2.784,-2.7232,-2.7103,-2.9407,-3.0219,-3.0904,-3.302,-3.3705,-3.4443,-3.661,-3.6217,0.0,-3.8377,0.0,0.0,0.0,0.0,0.0,0.0,0.0,0.0,0.0,0.0,0.0,0.0,0.0,0.0,0.0,0.0,0.0,0.0,0.0,0.0,0.0,0.0,0.0,-5.8716,-5.8716,-5.8716,-5.8716,-5.8716,-5.8716,-5.8716,-5.8716,-5.8716,-5.8716,-5.8716,-5.8677,-5.8635,-5.8635,-5.8341,-5.7835,-5.7835,-5.7558,-5.7091,-5.7065,-5.6588,-5.5912,-5.588,-5.5349,-5.4573,0.0,0.0,0.0,0.0,0.0,0.0,0.0,0.0,0.0,0.0,0.0,0.0,0.0,0.0,0.0,0.0,0.0,0.0,0.0,-2.5696,-2.6325,-2.7753,-2.8437,-3.0114,-3.2955,-3.4462,-3.6774,-3.9945,-4.0238,-4.04,-4.039,-3.727,-3.5201,-3.4016,-3.2295,-3.1463,-3.1308,-3.081,-3.0694,-3.0694,-2.8765,0.0,0.0,0.0,0.0,0.0,0.0,0.0,0.0,0.0,-2.6652,-2.7387,-2.6671,-2.7522,-2.8606,-2.751,-2.6955,-2.6899,-2.7832,-2.9619,-3.1519,-3.2745,-3.4486,0.0,0.0,-3.891,-3.9839,-4.1757,-4.2147,0.0,0.0,0.0,0.0,0.0,0.0,0.0,0.0,0.0,0.0,0.0,0.0,0.0,0.0,0.0,0.0,0.0,0.0,0.0,0.0,0.0,0.0,-5.7955,-5.7955,-5.8196,-5.8716,-5.8716,-5.8716,-5.8716,-5.8716,-5.8716,-5.8716,-5.8716,-5.8716,-5.8716,-5.8716,-5.8574,-5.8385,-5.8385,-5.7983,-5.7269,-5.6438,-5.5727,-5.5166,-5.5166,-5.4641,-5.3899,0.0,0.0,0.0,0.0,0.0,0.0,0.0,0.0,0.0,0.0,0.0,0.0,0.0,0.0,0.0,0.0,0.0,0.0,-2.5694,-2.5699,-2.6366,-2.7831,-2.8144,-2.9491,-3.2076,-3.4948,-3.7636,-4.0142,-4.0625,-4.0269,-3.9036,-3.6154,-3.4485,-3.3842,-3.214,-3.1855,-3.2551,-3.1449,-3.1294,-3.1599,-2.9321,-2.8242,0.0,0.0,0.0,0.0,0.0,0.0,0.0,0.0,-2.6478,-2.7159,-2.6807,-2.7716,-2.8707,-2.7789,-2.7694,-2.7845,-2.7557,-2.9547,-3.1929,-3.2864,0.0,0.0,-3.9524,-4.0774,-4.2129,-4.4023,-4.4413,0.0,0.0,0.0,0.0,0.0,0.0,0.0,0.0,0.0,0.0,0.0,0.0,0.0,0.0,0.0,0.0,0.0,0.0,0.0,0.0,0.0,0.0,0.0,-5.7119,-5.7398,-5.7955,-5.7955,-5.7955,-5.7955,-5.7955,-5.8215,-5.8716,-5.8716,-5.8568,-5.8326,-5.8326,-5.8196,-5.7955,-5.7955,-5.7621,-5.7023,-5.61,-5.5372,-5.4802,-5.4802,-5.4273,-5.3584,0.0,0.0,0.0,0.0,0.0,0.0,0.0,0.0,0.0,0.0,0.0,0.0,0.0,0.0,0.0,0.0,0.0,0.0,-2.5694,-2.57,-2.6093,-2.6952,-2.7832,-2.9512,-3.209,-3.3809,-3.5868,-3.8292,-3.9962,-3.9881,-3.8135,-3.6458,-3.5684,-3.5588,-3.388,-3.3576,-3.4258,-3.2532,-3.1792,-3.1657,-2.9979,-2.8784,0.0,0.0,0.0,0.0,0.0,0.0,0.0,0.0,-2.6165,-2.5956,-2.847,-2.8687,-2.8184,-2.9035,-2.9863,-3.0317,-2.9428,-3.0433,-3.2133,0.0,0.0,0.0,-4.0544,-4.1346,-4.2348,-4.4822,0.0,0.0,0.0,0.0,0.0,0.0,0.0,0.0,0.0,0.0,0.0,0.0,0.0,0.0,0.0,0.0,0.0,0.0,0.0,0.0,0.0,0.0,0.0,0.0,-5.6302,-5.6302,-5.6302,-5.6302,-5.6302,-5.6302,-5.6302,-5.7138,-5.8679,-5.8679,-5.8252,-5.749,-5.749,-5.7045,-5.6302,-5.6302,-5.6302,-5.6302,-5.6283,-5.5763,-5.5001,-5.5001,-5.4481,-5.3813,0.0,0.0,0.0,0.0,0.0,0.0,0.0,0.0,0.0,0.0,0.0,0.0,0.0,0.0,0.0,0.0,0.0,0.0,-2.5694,-2.57,-2.582,-2.6073,-2.7519,-2.8379,-2.8535,-3.1346,-3.4323,-3.7449,-3.8527,-3.7851,-3.551,-3.5013,-3.4137,-3.2996,-3.3692,-3.3479,-3.2551,-3.2024,-3.1792,-3.1657,-2.9979,-2.8784,0.0,0.0,0.0,0.0,0.0,0.0,0.0,0.0,0.0,0.0,-2.6575,-2.8103,-2.9515,-2.7944,-2.8945,-3.025,-2.8758,-3.1303,0.0,0.0,0.0,0.0,0.0,-4.4054,0.0,0.0,0.0,0.0,0.0,0.0,0.0,0.0,0.0,0.0,0.0,0.0,0.0,0.0,0.0,0.0,0.0,0.0,0.0,0.0,0.0,0.0,0.0,0.0,0.0,0.0,-5.5391,-5.5689,-5.6302,-5.6302,-5.6302,-5.6302,-5.6302,-5.6543,-5.7008,-5.7008,-5.6878,-5.6655,-5.6655,-5.6525,-5.6246,-5.5652,-5.5391,-5.5336,-5.476,-5.4388,-5.4166,-5.4166,-5.3998,-5.3813,0.0,0.0,0.0,0.0,0.0,0.0,0.0,0.0,0.0,0.0,-2.5707,-2.5707,0.0,0.0,0.0,0.0,0.0,0.0,0.0,-2.5699,-2.5858,-2.6191,-2.7226,-2.8027,-2.8535,-3.0819,-3.2844,-3.4552,-3.6033,-3.5437,-3.2924,-3.4278,-3.435,-3.3421,-3.5143,-3.5123,-3.3784,-3.3112,-3.2623,-3.2198,-3.0849,-2.9785,-2.8939,0.0,0.0,0.0,0.0,0.0,0.0,0.0,0.0,0.0,-2.6029,-2.7383,-2.8872,-2.7982,-2.9312,-3.0999,-3.0602,0.0,0.0,0.0,0.0,0.0,0.0,0.0,0.0,0.0,0.0,0.0,0.0,0.0,0.0,0.0,0.0,0.0,0.0,0.0,0.0,0.0,0.0,0.0,0.0,0.0,0.0,0.0,0.0,0.0,0.0,0.0,0.0,-5.4518,-5.4518,-5.4779,-5.5299,-5.5317,-5.5317,-5.5317,-5.5317,-5.5317,-5.5336,-5.6004,-5.6116,-5.5782,-5.5447,-5.5317,-5.528,-5.4741,-5.4518,-5.4481,-5.3998,-5.3813,-5.3813,-5.3813,-5.3813,-5.3813,0.0,0.0,0.0,0.0,0.0,0.0,0.0,0.0,0.0,0.0,-2.5707,-2.5707,0.0,0.0,0.0,0.0,0.0,0.0,0.0,-2.5698,-2.6091,-2.6952,-2.7148,-2.8398,-3.0859,-3.1469,-3.1388,-3.0579,-3.2997,-3.2943,-3.0675,-3.4098,-3.5665,-3.5646,-3.7328,-3.7458,-3.6323,-3.4737,-3.3499,-3.2565,-3.185,-3.1038,-3.0172,-2.9457,0.0,0.0,0.0,0.0,0.0,0.0,0.0,0.0,-2.6358,-2.6706,-2.7093,-2.8528,-3.0308,-3.2132,-3.3668,0.0,0.0,0.0,0.0,0.0,0.0,0.0,0.0,0.0,0.0,0.0,0.0,0.0,0.0,0.0,0.0,0.0,0.0,0.0,0.0,0.0,0.0,0.0,0.0,0.0,0.0,0.0,0.0,0.0,0.0,0.0,-5.3813,-5.3813,-5.3813,-5.3813,-5.3813,-5.3813,-5.3813,-5.3813,-5.3813,-5.3813,-5.385,-5.5373,-5.5652,-5.4853,-5.4128,-5.3813,-5.3813,-5.3813,-5.3813,-5.3813,-5.3813,-5.3813,-5.3813,-5.3813,-5.3813,-5.3813,0.0,0.0,0.0,0.0,0.0,0.0,0.0,0.0,0.0,0.0,0.0,0.0,0.0,0.0,0.0,0.0,0.0,0.0,0.0,-2.5697,-2.6091,-2.6951,-2.83,-2.9629,-3.0879,-3.0282,-2.9871,-2.9678,-3.1479,-3.1758,-3.0675,-3.4098,-3.5342,-3.4742,-3.6439,-3.5582,-3.2836,-3.1835,-3.052,-2.9152,-2.9631,-2.8915,-2.7596,-2.8083,-2.7232,0.0,0.0,0.0,0.0,0.0,0.0,0.0,-2.57,-2.6652,-2.7542,-2.6594,-2.8925,-3.1879,0.0,-3.5152,0.0,0.0,0.0,0.0,0.0,0.0,0.0,0.0,0.0,0.0,0.0,0.0,0.0,0.0,0.0,0.0,0.0,0.0,0.0,0.0,0.0,0.0,0.0,0.0,0.0,0.0,0.0,0.0,0.0,-5.3813,-5.3813,-5.3813,-5.3813,-5.3813,-5.3813,-5.3813,-5.3813,0.0,-5.3813,-5.3813,-5.3813,-5.4184,-5.424,-5.4054,-5.3887,-5.3813,-5.3813,-5.3813,-5.3813,-5.3813,-5.3813,-5.3813,-5.3813,-5.3813,-5.3813,-5.3813,0.0,0.0,0.0,0.0,0.0,0.0,0.0,0.0,0.0,0.0,0.0,0.0,0.0,0.0,0.0,0.0,0.0,0.0,0.0,-2.5694,-2.6285,-2.7576,-2.9297,-3.0234,-3.0273,-2.9329,-2.8823,-2.8838,-2.9602,-3.0192,-3.0675,-3.4098,-3.5665,-3.5646,-3.6961,-3.5858,-3.2957,-3.1719,-3.0424,-2.9248,-2.9287,-2.9012,-2.8524,-2.8146,-2.7194,-2.6029,-2.5642,0.0,0.0,0.0,0.0,0.0,0.0,0.0,-2.6787,-2.671,-2.8548,-3.1038,0.0,0.0,0.0,0.0,0.0,0.0,0.0,0.0,0.0,0.0,0.0,0.0,0.0,0.0,0.0,0.0,0.0,0.0,0.0,0.0,0.0,0.0,0.0,0.0,0.0,0.0,0.0,0.0,0.0,0.0,0.0,-5.3237,-5.3404,-5.3794,-5.3813,-5.3813,-5.3813,-5.3813,-5.3813,-5.3813,-5.3813,-5.3813,-5.3813,-5.3813,-5.3813,-5.3813,-5.3813,-5.3813,-5.3813,-5.3813,-5.3813,-5.3813,-5.3813,-5.3813,-5.3813,-5.3813,-5.3813,-5.3813,0.0,0.0,0.0,0.0,0.0,0.0,0.0,0.0,0.0,0.0,0.0,0.0,0.0,0.0,0.0,0.0,0.0,0.0,0.0,-2.5849,-2.6577,-2.8007,-2.9609,-3.0117,-2.9394,-2.8452,-2.8121,-2.8405,-2.7972,-2.905,-3.1545,-3.4369,-3.6207,-3.7135,-3.758,-3.6342,-3.3833,-3.1932,-3.0598,-2.9669,-2.9089,-2.9205,-2.9573,-2.8277,-2.7232,-2.6416,-2.5739,-2.5507,-2.5507,-2.5507,0.0,0.0,0.0,0.0,-2.5762,-2.7159,-2.8281,-2.9897,0.0,0.0,0.0,0.0,0.0,0.0,0.0,0.0,0.0,0.0,0.0,0.0,0.0,0.0,0.0,0.0,0.0,0.0,0.0,0.0,0.0,0.0,0.0,0.0,0.0,0.0,0.0,0.0,0.0,0.0,-5.2364,-5.2401,-5.2698,-5.3367,-5.3385,-5.3385,-5.3385,-5.3534,-5.359,-5.359,-5.3738,-5.3813,-5.3813,-5.3813,-5.3813,-5.3813,-5.3813,-5.3813,-5.3813,-5.3813,-5.3813,-5.3813,-5.3813,-5.3813,-5.3813,-5.3813,-5.3813,-5.3813,0.0,0.0,0.0,0.0,0.0,0.0,0.0,0.0,0.0,0.0,-2.5707,-2.5707,-2.5707,-2.5707,0.0,0.0,0.0,0.0,-2.5707,0.0,0.0,-2.7168,-2.8125,-2.8594,-2.8476,-2.7553,-2.7788,-2.9243,-2.7643,-2.9665,-3.5027,-3.5491,-3.6535,-3.7961,-3.6632,-3.4582,-3.1985,-2.9534,-2.76,-2.6223,-2.6803,-2.6706,-2.6223,-2.6706,-2.6377,-2.5642,-2.5546,-2.5507,-2.5507,-2.5507,-2.5507,0.0,0.0,0.0,0.0,0.0,-2.6942,-2.8629,0.0,0.0,0.0,0.0,0.0,0.0,0.0,0.0,0.0,0.0,0.0,0.0,0.0,0.0,0.0,0.0,0.0,0.0,0.0,0.0,0.0,0.0,0.0,0.0,0.0,0.0,0.0,0.0,0.0,0.0,-5.1546,-5.1565,-5.1602,-5.1714,-5.1714,-5.1714,-5.1714,-5.2419,-5.2754,-5.2772,-5.3478,-5.3813,-5.3813,-5.3813,-5.3813,-5.3813,-5.3813,-5.3813,-5.3813,-5.3813,-5.3813,-5.3813,-5.3813,-5.3813,-5.3813,-5.3813,-5.3813,-5.3813,0.0,0.0,0.0,0.0,0.0,0.0,0.0,0.0,0.0,0.0,0.0,-2.5707,-2.5707,-2.5707,0.0,0.0,0.0,0.0,-2.5695,-2.6519,0.0,-2.6992,-2.7832,-2.8066,-2.7578,-2.7123,-2.726,-2.7991,-2.7135,-2.9781,-3.5704,-3.5704,-3.7367,-4.023,-3.8063,-3.5936,-3.375,-3.0211,-2.803,-2.6845,-2.6261,-2.7228,-2.8814,-2.6783,-2.6996,-2.8103,-2.6188,-2.5507,-2.5507,-2.5507,-2.5507,0.0,0.0,0.0,0.0,0.0,0.0,0.0,0.0,0.0,0.0,0.0,0.0,0.0,0.0,0.0,0.0,0.0,0.0,0.0,0.0,0.0,0.0,0.0,0.0,0.0,0.0,0.0,0.0,0.0,0.0,0.0,0.0,0.0,0.0,0.0,0.0,-5.0209,-5.0655,-5.0673,-5.0896,-5.1379,-5.1398,-5.1398,-5.1398,-5.1751,-5.1936,-5.1936,-5.2289,-5.2457,-5.2475,-5.2921,-5.3367,-5.3813,-5.3813,-5.3813,-5.3813,-5.3813,-5.3813,-5.3813,-5.3813,-5.3813,-5.3813,-5.3813,-5.3813,-5.3813,0.0,0.0,0.0,0.0,0.0,0.0,0.0,0.0,0.0,0.0,0.0,0.0,-2.5707,0.0,0.0,0.0,0.0,0.0,-2.57,0.0,0.0,0.0,-2.7285,-2.7324,-2.668,-2.6594,-2.6673,-2.6898,-2.6763,-2.9897,-3.5994,-3.5994,-3.8489,-4.2841,-4.0094,-3.756,-3.5129,-3.1487,-2.9437,-2.8552,-2.731,-2.8678,-3.125,-2.8954,-2.9689,-3.1449,-2.8025,-2.6807,0.0,0.0,0.0,0.0,0.0,0.0,0.0,0.0,0.0,0.0,0.0,0.0,0.0,0.0,0.0,0.0,0.0,0.0,0.0,0.0,0.0,0.0,0.0,0.0,0.0,0.0,0.0,0.0,0.0,0.0,0.0,0.0,0.0,0.0,0.0,0.0,0.0,0.0,0.0,-4.9169,-4.9763,-4.98,-5.0098,-5.0748,-5.0766,-5.0766,-5.0766,-5.0971,-5.1193,-5.1398,-5.1398,-5.1398,-5.1416,-5.2029,-5.2624,-5.3218,-5.3627,-5.3813,-5.3813,-5.3813,-5.3813,-5.3813,-5.3813,-5.3813,-5.3775,-5.3571,-5.3497,-5.3478,0.0,0.0,0.0,0.0,0.0,0.0,0.0,0.0,0.0,0.0,0.0,0.0,-2.5707,-2.5707,-2.5707,-2.5707,0.0,0.0,0.0,0.0,0.0,0.0,0.0,0.0,-2.5762,-2.5696,-2.6065,-2.6898,-2.6763,-3.0187,-3.6845,-3.6845,-3.9978,-4.5459,-4.2151,-3.8359,-3.4336,-3.2474,-3.1197,-3.0462,-3.0366,-3.0462,-3.0984,-3.4021,-3.5278,-3.4988,-3.1565,0.0,0.0,0.0,0.0,0.0,0.0,0.0,0.0,0.0,0.0,0.0,0.0,0.0,0.0,0.0,0.0,0.0,0.0,0.0,0.0,0.0,0.0,0.0,0.0,0.0,0.0,0.0,0.0,0.0,0.0,0.0,0.0,0.0,0.0,0.0,0.0,0.0,0.0,0.0,0.0,-4.8927,-4.8964,-4.8964,-4.8983,-4.9039,-4.9039,-4.9039,-4.9039,-4.9856,-5.0655,-5.1398,-5.1398,-5.1398,-5.1398,-5.1435,-5.1491,-5.1602,-5.3144,-5.3813,-5.3813,-5.3813,-5.3813,-5.3813,-5.3813,-5.3813,-5.372,-5.294,-5.2661,-5.2549,0.0,0.0,0.0,0.0,0.0,0.0,0.0,0.0,0.0,0.0,0.0,0.0,0.0,-2.5707,-2.5707,-2.5707,-2.5707,0.0,0.0,0.0,0.0,0.0,0.0,0.0,-2.5703,-2.5637,-2.5755,-2.6065,-2.5971,-2.8562,-3.3629,-3.419,-3.6472,-4.0113,-4.0584,-3.9946,-3.8243,-3.4306,-3.2469,0.0,-3.2198,-3.3513,-3.5491,-3.5646,-3.7063,-3.8533,0.0,0.0,0.0,0.0,0.0,0.0,-2.6455,-2.5913,-2.5507,-2.5507,0.0,0.0,0.0,0.0,0.0,0.0,0.0,0.0,0.0,0.0,0.0,0.0,0.0,0.0,0.0,0.0,0.0,0.0,0.0,0.0,0.0,0.0,0.0,0.0,0.0,0.0,0.0,0.0,0.0,0.0,0.0,0.0,-4.8909,-4.8909,-4.8909,-4.8909,-4.8909,-4.8909,-4.8909,-4.9206,-4.9503,-4.98,-4.98,-4.98,-4.9819,-5.0339,-5.058,-5.0636,-5.1769,-5.2271,-5.2271,-5.2271,-5.2271,-5.2271,-5.2271,-5.2271,-5.2215,-5.1936,-5.1825,-5.1788,0.0,0.0,0.0,0.0,0.0,0.0,0.0,0.0,-2.5707,-2.5707,0.0,0.0,0.0,0.0,-2.645,-2.6159,-2.5868,-2.5694,-2.5698,-2.57,0.0,0.0,0.0,0.0,-2.5703,-2.5919,-2.5894,-2.5619,-2.6126,-2.8105,-3.1428,-3.2271,-3.4171,-3.6942,-3.7812,-3.9011,-4.012,0.0,0.0,-3.4847,0.0,0.0,-3.8663,-3.8972,-4.0507,-4.2035,0.0,0.0,0.0,0.0,0.0,0.0,-2.7924,-2.6609,-2.5507,-2.5507,-2.5507,0.0,0.0,0.0,0.0,0.0,0.0,0.0,0.0,0.0,0.0,0.0,0.0,0.0,0.0,0.0,0.0,0.0,0.0,0.0,0.0,0.0,0.0,0.0,0.0,0.0,0.0,0.0,0.0,0.0,0.0,0.0,-4.8909,-4.8909,-4.8909,-4.8909,-4.8909,-4.8909,-4.8909,-4.8909,-4.8909,-4.8909,-4.8909,-4.8909,-4.8927,-4.9447,-4.9707,-4.9745,-5.0302,-5.0878,-5.1398,-5.1398,-5.1398,-5.1398,-5.1398,-5.1398,-5.1361,-5.1063,-5.0971,-5.0933,0.0,0.0,0.0,0.0,0.0,0.0,0.0,0.0,-2.5707,-2.5726,0.0,0.0,0.0,0.0,0.0,-2.7159,-2.6284,-2.5779,-2.5741,-2.5702,0.0,0.0,0.0,0.0,-2.5703,-2.6478,-2.6489,-2.5707,-2.7252,-2.8864,-3.0513,-3.1312,-3.3499,-3.6613,-3.4151,-3.5394,-3.9249,0.0,-3.8077,-3.8309,0.0,-3.9481,-4.0062,0.0,0.0,0.0,-4.2112,-4.0913,0.0,-3.6038,0.0,0.0,0.0,-2.7561,-2.5526,-2.5507,-2.5526,0.0,0.0,0.0,0.0,0.0,0.0,0.0,0.0,0.0,0.0,0.0,0.0,0.0,0.0,0.0,0.0,0.0,0.0,0.0,0.0,0.0,0.0,0.0,0.0,0.0,0.0,0.0,0.0,0.0,0.0,-4.8834,-4.8872,-4.889,-4.8909,-4.8909,-4.8909,-4.8909,-4.8909,-4.8909,-4.8909,-4.8909,-4.8909,-4.8909,-4.8909,-4.8909,-4.8909,-4.8909,-4.8909,-4.9819,-5.1323,-5.1323,-5.1323,-5.1323,-5.1323,-5.1323,-5.1212,-5.0376,-5.006,-4.9949,0.0,0.0,0.0,0.0,0.0,-2.5707,-2.5707,-2.5707,-2.5922,0.0,0.0,0.0,-2.7932,-2.8713,-2.9144,-2.8895,-2.8076,-2.7318,-2.6677,-2.6053,-2.5702,-2.5703,-2.5703,-2.5703,-2.5703,-2.5911,-2.5922,-2.5707,-2.6096,-2.6823,-2.7861,-2.8717,-3.0287,-3.2338,-3.2217,-3.3165,-3.4775,-3.3325,0.0,-3.8998,-3.7392,-3.8953,0.0,0.0,0.0,0.0,0.0,-4.3634,-4.2338,0.0,-3.7928,-3.4756,0.0,0.0,-2.6242,-2.5662,-2.5913,-2.6242,-2.5662,0.0,0.0,0.0,0.0,0.0,0.0,0.0,0.0,0.0,0.0,0.0,0.0,0.0,0.0,0.0,0.0,0.0,0.0,0.0,0.0,0.0,0.0,0.0,0.0,0.0,0.0,0.0,-4.7163,-4.7423,-4.7999,-4.8574,-4.8909,-4.8909,-4.8909,-4.8909,-4.8909,-4.8909,-4.8909,-4.8909,-4.8909,-4.8909,-4.8909,-4.8909,-4.8909,-4.8909,-4.8909,-4.9169,-4.9596,-4.9596,-4.9596,-4.9596,-4.9596,-4.9596,-4.9559,-4.9317,-4.9243,-4.9206,0.0,0.0,0.0,-2.6312,-2.6839,-2.7327,-2.7327,-2.7327,-2.762,0.0,0.0,0.0,-3.0351,-3.1214,-3.1431,-3.0711,-2.921,-2.8081,-2.7576,-2.6386,-2.5703,-2.5703,-2.6055,-2.623,-2.623,-2.6599,-2.6616,-2.6245,-2.6186,-2.6209,-2.6312,-2.6795,-2.7713,-2.8969,-2.9104,-3.0032,-3.1386,-2.934,0.0,0.0,-3.8218,0.0,0.0,-4.4485,-4.5722,0.0,0.0,0.0,-4.4755,-4.3885,-4.0848,0.0,0.0,0.0,0.0,-2.7097,-2.7387,-2.8156,-2.731,-2.7155,0.0,0.0,0.0,0.0,0.0,0.0,0.0,0.0,0.0,0.0,0.0,0.0,0.0,0.0,0.0,0.0,0.0,0.0,0.0,0.0,0.0,0.0,0.0,0.0,0.0,-4.6559,-4.6525,-4.6731,-4.7181,-4.7646,-4.7906,-4.7906,-4.8221,-4.8407,-4.8407,-4.8723,-4.8909,-4.8909,-4.8909,-4.8909,-4.8909,-4.8909,-4.8909,-4.8909,-4.8909,-4.8909,-4.8909,-4.8909,-4.8909,-4.8909,-4.8909,-4.8909,-4.8909,-4.8909,-4.8909,-4.8909,0.0,0.0,-2.7971,-2.7387,-2.8577,-2.9651,-2.9846,-2.9807,-3.0099,0.0,-3.1405,-3.2225,-3.406,-3.469,-3.4399,-3.2955,-3.0307,-2.8689,-2.8592,-2.6875,-2.5801,-2.5703,-2.6523,-2.6953,-2.6855,-2.7793,-2.7832,-2.6855,-2.6889,-2.6459,-2.56,-2.5537,-2.59,-2.6551,-2.5816,-2.6768,-2.8741,-2.6865,0.0,-3.5742,-3.9611,-4.2086,0.0,0.0,-4.756,-4.8392,-4.8392,-4.7908,-4.7096,-4.6136,-4.2589,0.0,0.0,0.0,0.0,0.0,-2.9805,0.0,-2.9998,-2.9229,-2.9364,0.0,0.0,0.0,-3.3731,-3.3209,0.0,0.0,0.0,0.0,0.0,0.0,0.0,0.0,0.0,0.0,0.0,0.0,0.0,0.0,0.0,0.0,0.0,-4.6417,-4.6421,-4.6326,-4.6419,-4.6443,-4.6364,-4.6438,-4.6494,-4.6494,-4.7181,-4.7571,-4.7571,-4.837,-4.8779,-4.8779,-4.8872,-4.8909,-4.8909,-4.8909,-4.8909,-4.8909,-4.8909,-4.8909,-4.8909,-4.8909,-4.8909,-4.8909,-4.8909,-4.8909,-4.8909,-4.8909,-4.8909,-4.8909,0.0,-2.7503,-2.764,-2.887,-2.9378,-3.0041,-3.1408,-3.1016,-3.1387,-3.3632,-3.5154,-3.6931,-3.9331,-3.7927,-3.6933,-3.7309,-3.368,-3.1086,-3.0447,-2.8104,-2.6425,-2.5723,-2.6523,-2.668,-2.5977,-2.75,-2.7539,-2.5957,-2.664,-2.6514,-2.5601,-2.5591,-2.5632,-2.572,-2.5565,-2.5782,-2.6401,0.0,0.0,-3.3745,-3.5259,0.0,-4.4485,-4.5691,-4.7083,-4.8392,-4.8392,-4.8295,-4.7908,-4.6329,-4.3769,-4.079,0.0,0.0,0.0,0.0,0.0,-3.435,-3.2798,-3.2745,-3.2827,-3.1429,0.0,0.0,0.0,-3.0192,0.0,0.0,0.0,0.0,0.0,0.0,0.0,0.0,0.0,0.0,0.0,0.0,0.0,0.0,0.0,0.0,0.0,-4.4741,-4.4741,-4.4665,-4.5264,-4.5605,-4.5544,-4.6141,-4.6494,-4.6494,-4.6643,-4.6735,-4.6735,-4.7534,-4.7924,-4.7943,-4.8593,-4.8909,-4.8909,-4.8909,-4.8909,-4.8909,-4.8909,-4.8909,-4.8909,-4.8909,-4.8909,-4.8909,-4.8909,-4.8909,-4.8909,-4.8909,-4.8909,-4.8909,-2.8303,-2.8615,-2.9162,-3.004,-3.0919,-3.207,-3.3788,-3.367,-3.4314,-3.6911,-3.9136,-4.0483,-4.0444,-4.0093,-3.9333,-3.8067,-3.516,-3.286,-3.1575,-2.9079,-2.7264,-2.6386,-2.6777,-2.6992,-2.6992,-2.7422,-2.7441,-2.6992,-2.6562,-2.6086,-2.5601,-2.5601,-2.6246,-2.7368,-2.6493,-2.6822,-2.8103,0.0,-3.052,-3.2798,-3.6632,0.0,-4.5432,-4.7154,-4.8566,-4.9649,-4.9649,-4.9107,-4.8063,-4.5916,-4.4349,0.0,0.0,-3.9417,-3.9417,0.0,-3.6226,-3.7218,-3.5472,-3.5027,-3.493,-3.4505,0.0,0.0,0.0,0.0,0.0,0.0,0.0,0.0,0.0,0.0,0.0,0.0,0.0,0.0,0.0,0.0,0.0,0.0,0.0,0.0,0.0,-4.43,-4.4304,-4.4259,-4.4522,-4.4718,-4.4736,-4.5077,-4.5249,-4.5249,-4.5658,-4.59,-4.59,-4.6698,-4.7293,-4.7701,-4.811,-4.8519,-4.8909,-4.8909,-4.8909,-4.8909,-4.8909,-4.8909,-4.8909,-4.8909,-4.8909,-4.8909,-4.8909,-4.8909,-4.8909,-4.8909,-4.8909,-4.8909,-2.8654,-2.965,-3.0665,-3.0997,-3.2498,-3.4236,-3.5973,-3.6383,-3.7417,-3.9976,-4.2298,-4.3021,-4.1244,-4.2006,-4.1732,-3.9488,-3.6935,-3.4926,-3.3678,-3.0736,-2.865,-2.7791,-2.7421,-2.7578,-2.8281,-2.7617,-2.7422,-2.7793,-2.6562,-2.5832,-2.5601,-2.5601,-2.6748,-2.8741,-2.7673,-2.8466,0.0,0.0,0.0,-3.3789,0.0,-4.3073,-4.4994,-4.8043,-4.961,-5.0221,-5.0724,-4.9939,-4.8314,-4.609,0.0,-4.4543,-4.1448,-4.199,0.0,0.0,0.0,0.0,0.0,0.0,0.0,0.0,0.0,-3.3518,0.0,0.0,0.0,-3.273,0.0,0.0,0.0,0.0,0.0,0.0,0.0,0.0,0.0,0.0,0.0,0.0,0.0,0.0,0.0,-4.3722,-4.3777,-4.4252,-4.37,-4.3583,-4.4131,-4.4085,-4.402,-4.4005,-4.4674,-4.5045,-4.5045,-4.5862,-4.6587,-4.7237,-4.7553,-4.8036,-4.8667,-4.8834,-4.8909,-4.8909,-4.8909,-4.8909,-4.8909,-4.8909,-4.8909,-4.8909,-4.8909,-4.8909,-4.8909,-4.8909,-4.8909,-4.8909,-2.9319,-2.9612,-3.0197,-3.168,-3.3398,-3.5135,-3.6891,-3.7809,-3.9216,-4.1771,-4.304,-4.4172,-4.5421,-4.4367,-4.4328,-4.6259,-4.1363,-3.8397,-3.8986,-3.4401,-3.1301,-3.0487,-2.8983,-2.8202,-2.8301,-2.8203,-2.7441,-2.5996,-2.6562,-2.6419,-2.5601,-2.5601,-2.6107,-2.7054,-2.8393,0.0,0.0,0.0,-3.4872,0.0,-4.1081,-4.1293,0.0,-4.5575,-4.7444,-4.7831,-5.0086,-5.0318,-4.9397,0.0,-4.7444,-4.6496,0.0,-4.4717,-4.513,0.0,0.0,0.0,0.0,0.0,0.0,0.0,-3.8411,0.0,0.0,0.0,-3.1927,-2.9268,0.0,0.0,0.0,0.0,0.0,0.0,0.0,0.0,0.0,0.0,0.0,0.0,0.0,0.0,0.0,0.0,-4.1913,-4.4046,-4.2221,-4.1861,-4.3909,-4.4119,-4.4119,-4.4005,-4.4098,-4.4153,-4.4153,-4.4989,-4.5472,-4.5584,-4.7014,-4.7757,-4.7868,-4.8574,-4.8909,-4.8909,-4.8909,-4.8909,-4.8909,-4.8909,-4.8909,-4.8909,-4.8909,-4.8909,-4.8909,-4.8909,-4.8909,-4.8909,-2.8674,-2.9241,-2.9963,-3.1133,-3.2363,-3.412,-3.6872,-4.0151,-4.2513,-4.3079,-4.4797,-4.6241,-4.6963,0.0,0.0,0.0,0.0,-4.1617,0.0,0.0,-3.3992,-3.3137,-3.0505,-2.9295,-2.9804,-2.832,-2.7187,-2.6445,-2.6309,-2.6032,-2.5651,-2.5613,-2.7073,-2.9749,-3.0442,0.0,-3.5027,0.0,0.0,0.0,0.0,0.0,0.0,-4.6612,-4.9301,-4.9455,-5.0511,-5.0376,-4.9494,0.0,-4.7405,0.0,0.0,0.0,0.0,0.0,0.0,0.0,0.0,0.0,0.0,0.0,0.0,0.0,-3.3214,0.0,-3.1521,0.0,0.0,0.0,0.0,0.0,0.0,0.0,0.0,0.0,0.0,0.0,0.0,0.0,0.0,0.0,0.0,0.0,0.0,0.0,-4.1463,-4.1463,-4.3319,-4.3919,-4.4184,-4.4119,-4.4119,-4.407,-4.4005,-4.4358,-4.4804,-4.5305,-4.5974,-4.655,-4.7014,-4.7348,-4.7757,-4.8203,-4.8203,-4.8481,-4.8909,-4.8909,-4.8909,-4.8909,-4.8909,-4.8909,-4.8909,-4.8909,-4.8909,-4.8909,-2.8186,0.0,0.0,-3.0664,-3.1914,-3.4061,-3.777,-4.1732,-4.4231,-4.4075,-4.5714,0.0,-4.8172,-4.8074,0.0,0.0,-4.71,-4.4972,0.0,0.0,-3.7115,-3.6489,-3.2943,0.0,0.0,-2.9159,-2.748,-2.6992,-2.6133,-2.5818,-2.6019,-2.5736,-2.7612,-3.1255,-3.2125,-3.4505,-3.7864,0.0,0.0,-3.863,-4.0487,-4.1409,-4.2273,-4.7765,-5.0279,-5.0898,-5.0898,-5.0511,-4.9803,-4.8314,-4.7811,0.0,-4.6109,0.0,0.0,0.0,0.0,0.0,-4.4156,0.0,0.0,0.0,0.0,0.0,0.0,0.0,0.0,0.0,0.0,0.0,0.0,0.0,0.0,0.0,0.0,0.0,0.0,0.0,0.0,0.0,0.0,0.0,0.0,0.0,0.0,0.0,0.0,-4.0433,-4.2851,-4.3535,-4.3972,-4.4199,-4.4199,-4.415,-4.4055,-4.402,-4.4321,-4.4952,-4.5175,-4.5602,-4.6178,-4.6401,-4.694,-4.7701,-4.7701,-4.8166,-4.8909,-4.8909,-4.8909,-4.8909,-4.8909,-4.8909,-4.8909,-4.8909,-4.8909,-4.8909,-2.8283,-2.9006,0.0,0.0,0.0,-3.6052,-4.0328,-4.183,-4.3079,0.0,0.0,0.0,0.0,0.0,0.0,0.0,0.0,-4.8623,-4.8525,0.0,-4.0922,-4.0903,-3.6808,-3.4547,0.0,-3.1248,-2.869,-2.6992,-2.6133,-2.6092,-2.684,-2.5992,-2.6997,-2.9625,-3.287,-3.5298,-3.7154,-4.0442,-4.3247,-4.5478,-4.5575,-4.756,-5.0241,0.0,-4.8759,-5.0898,-5.0898,0.0,0.0,-4.99,-4.9629,0.0,0.0,0.0,0.0,0.0,0.0,0.0,0.0,0.0,0.0,-3.9533,0.0,0.0,0.0,0.0,-3.404,0.0,0.0,0.0,0.0,0.0,-3.3678,-3.1985,0.0,0.0,0.0,0.0,0.0,0.0,0.0,0.0,0.0,0.0,0.0,0.0,0.0,0.0,-4.2656,-4.299,-4.3397,-4.418,-4.4199,-4.4199,-4.4184,-4.407,-4.4005,-4.4061,-4.4896,-4.5305,-4.5361,-4.6141,-4.694,-4.7701,-4.7701,-4.8166,-4.8909,-4.8909,-4.8909,-4.8909,-4.8909,-4.8909,-4.8909,-4.8909,-4.8909,-4.8909,0.0,0.0,0.0,0.0,0.0,-3.4433,-3.8786,-4.2591,0.0,0.0,0.0,0.0,0.0,-5.4147,-5.4771,0.0,0.0,-5.2858,-5.2273,-4.7401,0.0,0.0,0.0,-3.8141,0.0,-3.4745,-3.1855,-2.957,-2.8711,-2.8418,-2.867,-2.7759,-2.8694,-3.1309,0.0,-3.658,0.0,0.0,0.0,0.0,0.0,-4.785,-5.0801,0.0,0.0,-5.0898,-5.0898,-5.0898,0.0,-5.0589,-5.0152,-4.9649,-4.9359,-4.8662,-4.785,-4.727,-4.6883,0.0,0.0,0.0,-4.4975,-4.1564,0.0,0.0,0.0,0.0,0.0,0.0,0.0,0.0,0.0,0.0,-3.3833,-3.2082,-3.1792,0.0,0.0,0.0,0.0,0.0,0.0,0.0,0.0,0.0,0.0,0.0,-3.6214,0.0,0.0,-4.2128,-4.3069,-4.3397,-4.3975,-4.4274,-4.4274,-4.4226,-4.4192,-4.4192,-4.449,-4.4609,-4.4581,-4.4861,-4.5388,-4.6141,-4.6661,-4.7367,-4.8147,-4.8686,-4.8909,-4.8909,-4.8909,-4.8909,-4.8909,-4.8909,-4.8909,-4.8909,-3.1679,0.0,0.0,0.0,0.0,0.0,0.0,0.0,0.0,0.0,-5.1043,0.0,-5.6684,0.0,-5.7172,0.0,-5.7172,-5.5435,-5.3659,-5.0426,0.0,-4.9247,-4.5008,0.0,0.0,-3.8766,-3.5429,-3.2246,-3.1387,-3.0801,-3.0508,-2.9251,-2.9885,-3.2202,0.0,-3.7049,0.0,0.0,-4.5413,0.0,0.0,-4.8933,0.0,0.0,-5.0898,-5.0898,0.0,-5.0898,-5.0898,-5.0898,-5.055,-5.0132,-5.0132,-4.9533,-4.8759,-4.8198,-4.7811,-4.7444,-4.6883,-4.6709,0.0,-4.3556,-4.1467,0.0,-3.64,0.0,0.0,0.0,0.0,0.0,0.0,0.0,-3.5182,-3.3479,-3.2164,-3.0187,0.0,0.0,0.0,0.0,0.0,0.0,0.0,0.0,-3.2226,-3.4503,0.0,0.0,0.0,0.0,-4.2777,-4.3127,-4.3909,-4.4344,-4.444,-4.4358,-4.43,-4.43,-4.43,-4.4289,-4.4244,-4.4244,-4.4646,-4.54,-4.5922,-4.6762,-4.7789,-4.831,-4.8647,-4.8909,-4.8909,-4.8909,-4.8909,-4.8909,-4.8909,-4.8909,0.0,0.0,0.0,0.0,-3.6482,0.0,0.0,0.0,-4.9169,0.0,-5.2565,-5.5162,-5.7719,-5.7309,-5.7836,-6.0256,-5.8909,0.0,-5.3368,-5.2944,0.0,0.0,-4.8786,-4.7424,-4.6505,-4.3115,-3.9272,-3.5017,-3.4023,-3.3125,-3.2285,-3.0521,-3.0552,-3.2228,-3.4749,0.0,-3.8699,-4.4588,-4.7611,-4.8612,-5.0256,-5.0906,-5.0898,-5.0898,-5.0898,-5.0898,-5.0898,-5.0898,-5.0898,-5.0898,-5.0898,-5.0898,-5.0898,-5.0376,-4.9745,-4.9707,-4.9107,-4.845,-4.8411,-4.8392,-4.7811,-4.5394,-4.4078,0.0,0.0,0.0,-4.0681,0.0,0.0,0.0,0.0,0.0,0.0,-3.5936,-3.2764,-2.9399,0.0,0.0,0.0,0.0,0.0,0.0,0.0,0.0,-2.9699,-3.3628,-3.3894,0.0,0.0,0.0,-4.2329,-4.3253,-4.3966,-4.444,-4.4699,-4.444,-4.4329,-4.43,-4.43,-4.43,-4.43,-4.43,-4.473,-4.5443,-4.548,-4.6349,-4.776,-4.7779,-4.825,-4.8909,-4.8909,-4.8909,-4.8909,-4.8909,-4.8909,-4.8909,-3.5387,-3.6851,-3.8355,0.0,-3.9331,-4.0366,0.0,0.0,0.0,0.0,-5.524,-5.7816,-6.0412,-6.0508,-6.0644,-6.131,-6.0354,0.0,0.0,0.0,0.0,-5.5786,-5.299,-5.069,-4.916,-4.6398,0.0,-3.9451,-3.6699,-3.4902,-3.4023,-3.2929,-3.2323,-3.2303,0.0,0.0,-3.8758,-4.3499,-4.703,-4.953,-5.0604,-5.099,0.0,0.0,-5.0898,-5.0898,-5.0898,-5.0898,-5.0898,-5.0898,-5.0898,-5.0898,-5.0898,-5.0763,-5.0473,-4.9881,-4.9533,-4.9223,-4.8585,-4.8392,-4.8237,-4.7599,-4.5838,-4.3859,0.0,0.0,0.0,0.0,0.0,0.0,0.0,0.0,0.0,-3.5322,-3.186,-2.9321,0.0,0.0,0.0,0.0,0.0,0.0,0.0,0.0,-2.9675,-3.136,-3.1853,0.0,0.0,0.0,0.0,-4.1578,-4.3548,-4.4576,-4.4551,-4.4629,-4.4589,-4.4458,-4.4458,-4.443,-4.4368,-4.4368,-4.447,-4.4636,-4.5238,-4.6063,-4.7021,-4.7572,-4.8302,-4.9032,-4.8926,-4.8909,-4.8909,-4.8909,-4.8909,-4.8909,-3.7651,0.0,0.0,-4.2222,0.0,0.0,-4.5753,0.0,0.0,-5.36,-5.6216,0.0,-5.9827,-6.1015,-6.1698,-6.1698,-6.1252,0.0,-6.0041,0.0,0.0,-5.7289,-5.5425,-5.3592,-5.1829,-4.9284,0.0,-4.2242,0.0,-3.6875,-3.5234,-3.3633,-3.2637,-3.2324,0.0,-3.7397,0.0,-4.4241,-4.7793,-4.9926,-5.0787,0.0,0.0,-5.0983,-5.094,-5.0898,-5.0898,-5.0898,-5.0898,-5.0898,-5.0898,-5.0898,-5.0898,-5.0898,-5.0801,-5.0357,-5.0221,-5.0132,-4.9629,-4.9494,-4.9494,-4.9494,-4.8159,-4.6496,-4.5258,-4.4678,-4.402,0.0,-4.3305,-4.3827,0.0,0.0,0.0,0.0,0.0,0.0,0.0,0.0,0.0,0.0,0.0,0.0,0.0,0.0,0.0,0.0,0.0,0.0,0.0,0.0,0.0,-4.1089,-4.3099,-4.4367,-4.4758,-4.4782,-4.4733,-4.4635,-4.4635,-4.4573,-4.444,-4.444,-4.4411,-4.4406,-4.4874,-4.5705,-4.6778,-4.7199,-4.8066,-4.9133,-4.9013,-4.8962,-4.8909,-4.8909,-4.8909,-4.8909,0.0,0.0,0.0,0.0,0.0,0.0,0.0,-5.0321,0.0,-5.4186,0.0,-5.8304,-5.8304,-6.0334,-6.1698,-6.1698,0.0,-6.0744,-5.846,-5.9612,-5.9417,-5.7192,-5.6996,-5.6157,-5.4537,-5.1716,0.0,0.0,0.0,-3.8398,-3.5781,-3.3457,-3.2305,0.0,0.0,0.0,0.0,-4.5772,-4.8964,-4.9827,-5.0825,-5.1165,-5.1109,-5.1109,-5.1043,-5.0929,-5.0929,-5.0921,-5.0898,-5.0898,-5.0898,-5.0898,-5.0898,-5.0898,-5.0898,-5.0898,-5.0898,-5.0898,-5.0898,-5.0898,-5.0898,-5.0898,-5.0376,-4.9397,-4.7676,-4.667,-4.5877,-4.4949,-4.4156,-4.4001,0.0,0.0,0.0,0.0,0.0,0.0,0.0,0.0,0.0,0.0,0.0,0.0,0.0,0.0,0.0,0.0,0.0,0.0,0.0,0.0,0.0,-4.115,-4.275,-4.4068,-4.5107,0.0,-4.4884,-4.4849,-4.4812,-4.4714,-4.4537,-4.4496,-4.4501,-4.4501,-4.4613,-4.5485,-4.6817,-4.693,-4.7857,-4.9179,-4.9133,-4.9049,-4.8926,-4.8926,-4.8909,-4.8909,0.0,0.0,0.0,0.0,0.0,-5.0787,-5.278,-5.4439,-5.5864,-5.6996,-5.9397,-6.1015,-6.1015,-6.1425,-6.1698,-6.1698,-6.1698,0.0,0.0,0.0,0.0,-5.9749,-5.9046,-5.8187,-5.7153,-5.3219,-4.9769,0.0,-4.148,-3.7499,-3.4902,-3.373,-3.2832,0.0,0.0,0.0,-4.1972,-4.6052,0.0,-4.9055,-5.064,-5.1249,-5.1178,-5.1178,-5.1137,-5.1069,-5.1069,-5.099,-5.0898,-5.0898,-5.0898,-5.0898,-5.0898,-5.0898,-5.0898,-5.0898,-5.0898,-5.0898,-5.0898,-5.0898,-5.0898,-5.0898,-5.0782,-5.0241,-4.8566,-4.8043,-4.7502,-4.5916,-4.5478,-4.5026,-4.3943,0.0,0.0,0.0,0.0,0.0,0.0,0.0,0.0,0.0,0.0,0.0,0.0,0.0,0.0,0.0,0.0,0.0,0.0,0.0,0.0,0.0,-4.2848,0.0,0.0,0.0,-4.5285,-4.5137,-4.4915,-4.4782,-4.4733,-4.4573,-4.4501,-4.4538,-4.5209,-4.604,-4.702,-4.7619,-4.8399,-4.9214,-4.9197,-4.9115,-4.9049,-4.9049,-4.8996,-4.8909,0.0,0.0,0.0,0.0,0.0,0.0,0.0,-5.7836,0.0,-5.7933,-5.8909,-5.969,-5.969,-6.09,-6.1698,-6.1698,-6.1698,-6.1698,-6.1698,-6.131,-6.0861,-6.0412,-6.0002,0.0,-5.7211,-5.4268,-5.1054,-4.7608,-4.2435,-3.8357,-3.5332,-3.3594,-3.2578,-3.2363,0.0,-4.0156,0.0,0.0,0.0,-4.9582,-5.0852,-5.1304,-5.1258,-5.1258,-5.1214,-5.1152,-5.1152,-5.1116,-5.1048,-5.094,-5.0898,-5.0898,-5.0898,-5.0898,-5.0898,-5.0898,-5.0898,-5.0898,-5.0898,-5.0898,-5.0898,-5.0898,-5.0898,-5.0453,-4.8778,-4.8392,-4.7908,-4.6155,-4.5807,-4.5284,-4.3614,-4.1583,0.0,0.0,0.0,0.0,0.0,0.0,0.0,0.0,0.0,0.0,0.0,0.0,0.0,0.0,0.0,0.0,0.0,0.0,0.0,0.0,0.0,0.0,0.0,0.0,0.0,-4.5352,-4.5225,-4.511,-4.5007,-4.4764,-4.4655,-4.4661,-4.4946,-4.581,-4.7091,-4.8318,-4.8987,-4.926,-4.926,-4.9214,-4.915,-4.9118,-4.9049,-4.8996,0.0,-5.1492,0.0,0.0,-5.5123,0.0,-5.7699,-6.0022,-6.0959,-5.8909,-5.8636,-5.8636,-5.8636,-6.0471,-6.1698,-6.1698,-6.1698,-6.1698,-6.1698,-6.1698,-6.1388,-6.0705,-6.049,-5.9456,-5.7445,-5.5532,-5.2436,0.0,0.0,-3.9995,-3.623,-3.4023,-3.3203,0.0,0.0,0.0,0.0,0.0,-4.9668,-5.0547,-5.1543,-5.1911,-5.1875,-5.1875,-5.183,-5.1755,-5.156,-5.1491,-5.1416,-5.1076,-5.0942,-5.0944,-5.0914,-5.0898,-5.0898,-5.0898,-5.0898,-5.0898,-5.0898,-5.0898,-5.0898,-5.0898,-5.0898,-5.0453,-4.8778,-4.8392,-4.7908,-4.6155,-4.5807,-4.5284,-4.3614,-4.2512,0.0,0.0,0.0,0.0,0.0,0.0,0.0,0.0,0.0,0.0,0.0,0.0,0.0,0.0,0.0,0.0,-3.0733,-3.2764,-3.5807,0.0,0.0,-4.2818,-4.501,0.0,-4.5549,-4.5549,-4.5516,-4.5418,-4.5263,-4.4988,-4.4849,-4.4795,-4.4836,-4.5773,-4.7368,-4.8889,-4.944,-4.934,-4.934,-4.9292,-4.9211,-4.9166,-4.9116,-4.9084,0.0,0.0,0.0,0.0,0.0,0.0,-5.7797,-6.0022,-6.1601,-6.1366,-6.1327,-6.1327,-6.1327,-6.1542,-6.1698,-6.1698,-6.1698,-6.1698,-6.1698,-6.1698,-6.1659,-6.1581,-6.0822,-6.0295,-6.0041,-5.7621,-5.4229,0.0,0.0,-4.2083,0.0,-3.6133,-3.6484,0.0,0.0,0.0,0.0,-4.8633,-5.0547,-5.1426,-5.3086,-5.375,-5.375,-5.375,-5.3703,-5.3537,-5.2757,-5.2431,-5.2255,-5.1436,-5.1137,-5.1063,-5.0944,-5.0898,-5.0898,-5.0898,-5.0898,-5.0898,-5.0898,-5.0898,-5.0898,-5.0898,-5.0898,-5.0453,-4.8778,-4.8392,-4.7908,-4.6155,-4.5807,-4.5284,-4.3614,-4.4407,-4.4317,0.0,0.0,0.0,0.0,0.0,0.0,0.0,0.0,0.0,0.0,0.0,0.0,0.0,0.0,0.0,-3.1463,-3.1908,-3.4364,-3.9424,0.0,-4.2473,-4.3497,-4.5005,-4.5766,-4.5759,-4.5594,-4.5481,-4.5463,-4.5254,-4.503,-4.4845,-4.5628,-4.6758,-4.8157,-4.9114,-4.949,-4.9474,-4.9474,-4.9409,-4.9292,-4.9292,-4.9197,-4.9101,0.0,0.0,0.0,0.0,0.0,0.0,0.0,-6.1035,-6.1698,-6.1698,-6.1698,-6.1698,-6.1698,-6.1698,-6.1698,-6.1698,-6.1698,-6.1698,-6.1698,-6.1698,-6.1698,-6.1698,-6.1369,-6.0939,-6.0412,-5.8382,-5.5712,0.0,0.0,0.0,0.0,0.0,0.0,0.0,0.0,-4.7086,-4.9,-5.1444,-5.3261,-5.4589,-5.5273,-5.5566,-5.5566,-5.5566,-5.5214,-5.4683,-5.4351,-5.3876,-5.3258,-5.2352,-5.1651,-5.1157,-5.1097,-5.1081,-5.1064,-5.1024,-5.1024,-5.1004,-5.0929,-5.0898,-5.0898,-5.0898,-5.0898,-5.0453,-4.8778,-4.8392,-4.7908,-4.6155,-4.5807,-4.5594,-4.491,-4.4523,-4.4194,-4.3853,0.0,0.0,0.0,0.0,0.0,0.0,0.0,0.0,0.0,0.0,0.0,0.0,0.0,0.0,0.0,-3.125,0.0,-3.7812,0.0,-4.2415,-4.3285,-4.4949,-4.5807,-4.5807,-4.5723,-4.5673,-4.5665,-4.5463,-4.5532,-4.586,-4.653,-4.7432,-4.8508,-4.9209,-4.9509,-4.9509,-4.9509,-4.9474,-4.9409,-4.9276,-4.9214,-4.9131,-5.9436,0.0,-5.8363,0.0,-5.9768,-5.9573,-6.1425,-6.1698,-6.1698,-6.1698,-6.1698,-6.1698,-6.1698,-6.1698,-6.1698,-6.1698,-6.1698,-6.1698,-6.1698,-6.1698,-6.1698,-6.1698,-6.1698,0.0,-6.0412,-5.9456,-5.7565,-5.4759,-5.1464,0.0,0.0,0.0,0.0,0.0,-4.8272,-5.0479,-5.2257,-5.3746,-5.5095,-5.6248,-5.6504,-5.6601,-5.6601,-5.6601,-5.6387,-5.6035,-5.5762,-5.5293,-5.4629,-5.3702,-5.278,-5.1924,-5.1374,-5.1203,-5.1191,-5.1137,-5.1136,-5.1089,-5.0997,-5.0954,-5.094,-5.0914,-5.0898,-5.0453,-4.8778,-4.8392,-4.7908,-4.6155,-4.5807,-4.5807,-4.5807,-4.4833,-4.4253,-4.4949,0.0,0.0,0.0,0.0,0.0,0.0,0.0,-3.2256,0.0,0.0,0.0,0.0,0.0,0.0,0.0,0.0,0.0,0.0,0.0,0.0,-4.3285,-4.4949,-4.5807,-4.5807,-4.5807,-4.5807,-4.578,-4.5594,-4.5898,-4.6614,-4.7182,-4.7909,-4.8764,-4.9423,-4.9659,-4.9604,-4.9673,-4.9619,-4.949,-4.9387,-4.9273,-4.9181,-6.0217,-6.0373,-6.0646,-6.1522,-6.1679,-6.1659,-6.1698,-6.1698,-6.1698,-6.1698,-6.1698,-6.1698,-6.1698,-6.1698,-6.1698,-6.1698,-6.1698,-6.1698,-6.1698,-6.1698,-6.1698,0.0,0.0,-6.1291,-6.0412,-6.1213,-5.9981,-5.6567,0.0,0.0,-5.002,0.0,-5.0907,-5.2606,-5.3525,-5.3936,-5.4034,-5.4918,-5.5291,-5.5388,-5.625,-5.6601,-5.6601,-5.6601,-5.7129,-5.7754,-5.6894,-5.6582,-5.6445,-5.5566,-5.4687,-5.3631,-5.1778,-5.1203,-5.1203,-5.1199,-5.1199,-5.1183,-5.1114,-5.1099,-5.1069,-5.0925,-5.0898,-5.0453,-4.8778,-4.8392,-4.7908,-4.6155,-4.5807,-4.5807,-4.5807,-4.5787,-4.522,-4.3595,0.0,0.0,0.0,0.0,0.0,0.0,-3.388,-3.1811,-3.1792,0.0,0.0,0.0,0.0,0.0,0.0,0.0,0.0,-3.9307,-4.11,0.0,-4.3285,-4.4949,-4.5807,-4.5807,-4.5807,-4.5807,-4.578,-4.5594,-4.597,-4.6827,-4.7429,-4.8192,-4.9064,-4.9851,-5.0038,-4.9811,-5.0099,-4.9908,-4.9521,-4.965,-4.9469,-4.9197,-6.1232,-6.1291,-6.1369,-6.164,-6.1698,-6.1698,-6.1698,-6.1698,-6.1698,-6.1698,-6.1698,-6.1698,-6.1698,-6.1698,-6.1698,0.0,-6.1698,-6.1698,0.0,-6.1698,-6.1698,-6.1698,-6.1698,-6.1562,-6.1291,-6.0978,-6.0276,-5.9183,0.0,0.0,0.0,-5.1875,-5.2169,-5.277,-5.4234,-5.523,-5.5835,-5.6645,-5.7351,-5.7918,-5.8239,-5.8378,-5.8378,-5.8379,-5.8183,-5.7851,-5.7598,-5.7109,-5.6465,-5.5586,-5.5117,-5.4687,-5.3489,-5.3112,-5.2971,-5.234,-5.2152,-5.2005,-5.1338,-5.1176,-5.1152,-5.1056,-5.1037,-5.0726,-4.9555,-4.8372,-4.7192,-4.6039,-4.5807,-4.5807,-4.5807,-4.5807,-4.5633,-4.5084,-4.4987,0.0,0.0,0.0,0.0,0.0,0.0,-3.4833,0.0,-3.3098,0.0,0.0,0.0,0.0,0.0,0.0,0.0,0.0,-4.1661,0.0,-4.3305,-4.4949,-4.5807,-4.5807,-4.5807,-4.5807,-4.58,-4.5737,-4.6499,-4.7882,-4.7895,-4.873,-5.0102,-5.0179,-5.0159,-5.0087,-5.0171,-5.0099,-4.9955,-4.9768,-4.9598,-4.9442,-6.1698,-6.1698,-6.1698,-6.1698,-6.1698,-6.1698,-6.1698,-6.1698,-6.1698,-6.1698,-6.1698,-6.1698,-6.1698,-6.1698,0.0,-6.1698,-6.1698,-6.1698,-6.1698,-6.1698,-6.1698,-6.1698,-6.1698,-6.1698,-6.1698,-6.1174,0.0,-6.0881,-5.8968,-5.7192,-5.5593,-5.5597,-5.5773,-5.6098,-5.6528,-5.7035,-5.7523,-5.7399,-5.7656,-5.8165,-5.8216,-5.8219,-5.822,-5.8222,-5.8086,-5.789,-5.789,-5.7558,-5.7012,-5.6465,-5.6055,-5.5683,-5.5156,-5.498,-5.4726,-5.3489,-5.2899,-5.2501,-5.1888,-5.1499,-5.1229,-5.1157,-5.1152,-5.0886,-4.9944,-4.8386,-4.6978,-4.6413,-4.6039,-4.5807,-4.5807,-4.5807,-4.5807,-4.5807,-4.5123,-4.4304,-4.3421,0.0,0.0,0.0,0.0,0.0,0.0,-3.5748,-3.5955,0.0,0.0,0.0,0.0,0.0,0.0,-3.8798,-4.2589,-4.4485,-4.4233,-4.5284,-4.5807,-4.5807,-4.5807,-4.5807,-4.5807,-4.5807,-4.6748,-4.8384,-4.8216,-4.9129,-5.0709,-5.0538,-5.0417,-5.0372,-5.0427,-5.0363,-5.0171,-4.9936,-4.9749,-4.9588,-6.1698,-6.1698,-6.1698,0.0,-6.1698,-6.1698,-6.1698,-6.1698,-6.1698,-6.1698,-6.1698,-6.1698,-6.1698,-6.1698,-6.1698,-6.1698,0.0,0.0,-6.1698,-6.1698,-6.1698,-6.1698,-6.1698,-6.1698,-6.1698,-6.1698,-6.1698,-6.1698,-6.0822,-6.0393,-6.0393,-6.0334,-6.0744,-6.1444,-5.9824,-5.9102,-5.9007,-5.7436,-5.6776,-5.6777,-5.6765,-5.6732,-5.6677,-5.6696,-5.7167,-5.7812,-5.7812,-5.7812,-5.7812,-5.7812,-5.7265,-5.6601,-5.6601,-5.6601,-5.6269,-5.457,-5.3516,-5.2851,-5.2736,-5.2064,-5.1388,-5.1307,-5.1246,-5.0968,-5.0017,-4.8558,-4.734,-4.7145,-4.6472,-4.5865,-4.5807,-4.5807,-4.5807,-4.5807,-4.5065,-4.4226,-4.3421,0.0,0.0,0.0,0.0,0.0,-3.6226,-3.8243,-3.9288,0.0,0.0,0.0,0.0,0.0,-3.8798,-4.199,-4.3788,-4.5045,-4.5787,-4.5807,-4.5807,-4.5807,-4.5865,-4.5884,-4.5884,-4.5962,-4.6902,-4.8488,-4.8488,-4.9417,-5.0898,-5.0898,-5.0789,-5.0644,-5.0841,-5.0634,-5.0241,-5.0152,-4.9955,-4.967,0.0,0.0,-6.1698,-6.1698,-6.1698,-6.1698,-6.1698,-6.1698,-6.1698,-6.1698,-6.1698,-6.1698,-6.1698,-6.1698,-6.1698,-6.1698,-6.1698,-6.1698,-6.1698,-6.1698,-6.1698,-6.1698,-6.1698,-6.1698,-6.1698,-6.1698,-6.1698,-6.1698,-6.0822,-6.0393,-6.0393,-5.9729,-5.9514,-5.9707,-5.9278,-5.9102,-5.9065,-5.8677,-5.8502,-5.8504,-5.8513,-5.8108,-5.7525,-5.7569,-5.73,-5.6913,-5.6913,-5.6914,-5.6914,-5.6914,-5.6777,-5.6601,-5.6601,-5.6601,-5.6387,-5.5312,-5.4844,-5.4531,-5.3846,-5.3026,-5.2358,-5.2288,-5.1733,-5.0965,-5.0073,-4.9523,-4.8794,-4.7451,-4.6972,-4.66,-4.5923,-4.5807,-4.5807,-4.5807,-4.4562,-4.3537,-4.3324,-4.2396,0.0,0.0,-4.1313,-4.1429,-3.9771,-4.0694,-4.079,0.0,0.0,0.0,0.0,-4.1429,-4.2164,-4.2976,-4.462,-4.5613,-4.5807,-4.5807,-4.5807,-4.5807,-4.6464,-4.6786,-4.6806,-4.7482,-4.8372,-4.9397,-4.9397,-4.9977,-5.0898,-5.0898,-5.0874,-5.0822,-5.0882,-5.083,-5.0717,-5.0538,-5.0286,-4.9955,-6.1698,-6.1698,-6.1698,-6.1698,-6.1698,-6.1698,-6.1698,-6.1698,-6.1698,-6.1698,-6.1698,-6.1698,-6.1698,-6.1698,-6.1698,-6.1698,-6.1698,-6.1698,-6.1698,-6.1698,-6.1698,-6.1698,-6.1698,-6.1698,-6.1698,-6.1698,-6.1698,-6.1698,-6.1232,-6.0998,-6.0978,-6.051,-6.0293,-6.0273,-5.9866,-5.969,-5.9671,-5.928,-5.9102,-5.9104,-5.9091,-5.8822,-5.8398,-5.8422,-5.8154,-5.769,-5.7339,-5.7184,-5.7127,-5.6737,-5.6601,-5.6601,-5.6601,-5.6601,-5.6504,-5.6035,-5.5605,-5.5195,-5.4726,-5.3965,-5.3183,-5.2748,-5.1952,-5.1169,-5.0659,-5.0196,-4.9616,-4.8593,-4.7724,-4.6991,-4.6498,-4.6078,-4.5691,-4.5316,-4.4156,-4.3169,-4.2763,-4.2299,0.0,-4.139,-4.286,-4.3382,-4.2067,-4.3034,-4.3034,-4.1351,-4.2383,0.0,-4.255,-4.375,-4.4272,-4.3904,-4.5123,-4.5807,-4.5807,-4.5807,-4.5807,-4.5807,-4.629,-4.6709,-4.7115,-4.7579,-4.8508,-4.9707,-4.9707,-5.0171,-5.0898,-5.0898,-5.0898,-5.0898,-5.0898,-5.0898,-5.0882,-5.0663,-5.0477,-5.0286,-6.1698,-6.1698,-6.1698,-6.1698,-6.1698,-6.1698,-6.1698,-6.1698,-6.1698,-6.1698,-6.1698,-6.1698,-6.1698,-6.1698,-6.1698,-6.1698,-6.1698,-6.1698,-6.1698,-6.1698,-6.1698,-6.1698,-6.1698,-6.1698,-6.1698,-6.1698,-6.1698,-6.1698,-6.1698,-6.1698,-6.1698,-6.1698,-6.1698,-6.1679,-6.0939,-6.0607,-6.0549,-5.9807,-5.9493,-5.9493,-5.9493,-5.9402,-5.9292,-5.9292,-5.92,-5.9012,-5.833,-5.8076,-5.7941,-5.7086,-5.6794,-5.6775,-5.664,-5.6601,-5.6601,-5.6601,-5.6074,-5.5508,-5.5508,-5.4765,-5.3789,-5.293,-5.2031,-5.1386,-5.1331,-5.0736,-5.0128,-4.9877,-4.854,-4.734,-4.7139,-4.6382,-4.5529,-4.4736,-4.3982,-4.315,-4.2144,0.0,-4.2338,-4.2202,-4.373,-4.4485,-4.375,-4.4852,-4.5084,-4.3788,-4.4871,-4.5374,-4.4813,-4.5432,-4.549,-4.4794,-4.5432,-4.5807,-4.5807,-4.5807,-4.5807,-4.5807,-4.6078,-4.6581,-4.7289,-4.756,-4.8488,-4.9881,-4.9881,-5.026,-5.0898,-5.0898,-5.0898,-5.0898,-5.0898,-5.0898,-5.0882,-5.0718,-5.0635,-5.0557,-6.1698,-6.1698,-6.1698,-6.1698,-6.1698,-6.1698,-6.1698,-6.1698,-6.1698,-6.1698,-6.1698,-6.1698,-6.1698,-6.1698,-6.1698,-6.1698,-6.1698,-6.1698,-6.1698,-6.1698,-6.1698,-6.1698,-6.1698,-6.1698,-6.1698,-6.1698,-6.1698,-6.1698,-6.1698,-6.1698,-6.1698,-6.1698,-6.1698,-6.1698,-6.1562,-6.1503,-6.1483,-6.1347,-6.1308,-6.1308,-6.1308,-6.0861,-6.02,-6.02,-5.9738,-5.9081,-5.8966,-5.891,-5.8798,-5.7961,-5.7707,-5.757,-5.6829,-5.6597,-5.66,-5.66,-5.6503,-5.6406,-5.6406,-5.5215,-5.3789,-5.293,-5.2031,-5.1406,-5.1386,-5.1239,-5.0885,-5.0133,-4.9083,-4.8061,-4.7326,-4.6435,-4.5529,-4.4736,-4.4478,-4.3846,-4.2222,0.0,-4.3924,-4.3189,-4.4581,-4.5555,-4.5439,-4.5026,-4.4968,-4.5381,-4.5026,-4.5026,-4.5568,-4.5729,-4.5749,-4.5633,-4.5729,-4.5807,-4.5807,-4.5807,-4.5807,-4.5826,-4.7289,-4.8063,-4.8256,-4.9668,-5.0453,-5.0705,-5.0705,-5.0782,-5.0898,-5.0898,-5.0898,-5.0898,-5.0898,-5.0898,-5.0898,-5.0855,-5.0745,-5.0587,-6.1698,-6.1698,-6.1698,-6.1698,-6.1698,-6.1698,-6.1698,-6.1698,-6.1698,-6.1698,-6.1698,-6.1698,-6.1698,-6.1698,-6.1698,-6.1698,-6.1698,-6.1698,-6.1698,-6.1698,-6.1698,-6.1698,-6.1698,-6.1698,-6.1698,-6.1698,-6.1698,-6.1698,-6.1698,-6.1698,-6.1698,-6.1698,-6.1698,-6.1698,-6.1698,-6.1698,-6.1698,-6.1698,-6.1698,-6.1698,-6.1698,-6.1464,-6.1095,-6.1095,-6.0844,-6.0438,-5.997,-5.9798,-5.9665,-5.8831,-5.8559,-5.8404,-5.7568,-5.7298,-5.7202,-5.6733,-5.66,-5.6601,-5.6601,-5.5664,-5.4492,-5.3613,-5.2734,-5.1973,-5.1504,-5.1385,-5.122,-5.0795,-4.9956,-4.9025,-4.812,-4.7192,-4.6137,-4.4864,-4.4628,0.0,-4.2879,-4.3808,-4.4439,-4.4059,-4.5065,-4.5807,-4.5807,-4.5452,-4.5394,-4.5768,-4.5452,-4.5413,-4.5787,-4.5807,-4.5807,-4.5807,-4.5807,-4.5807,-4.5807,-4.5807,-4.5807,-4.5826,-4.7096,-4.7947,-4.843,-4.9687,-5.0492,-5.0898,-5.0898,-5.0898,-5.0898,-5.0898,-5.0898,-5.0898,-5.0898,-5.0898,-5.0898,-5.0898,-5.083,-5.0763,-6.1991,-6.2169,-6.2306,-6.2306,-6.2306,-6.2306,-6.2306,-6.2306,-6.2228,-6.2032,-6.1991,-6.1932,-6.1718,-6.1698,-6.1698,-6.1698,-6.1698,-6.1698,-6.1698,-6.1698,-6.1698,-6.1698,-6.1698,-6.1698,-6.1698,-6.1698,-6.1698,-6.1698,-6.1698,-6.1698,-6.1698,-6.1698,-6.1698,-6.1698,-6.1698,-6.1698,-6.1698,-6.1698,-6.1698,-6.1698,-6.1698,-6.1698,-6.1698,-6.1698,-6.1698,-6.1601,-6.0939,-6.0705,-6.0571,-5.9699,-5.941,-5.9253,-5.8442,-5.8171,-5.8016,-5.7137,-5.6754,-5.6601,-5.6601,-5.5957,-5.5137,-5.4473,-5.3496,-5.2519,-5.1855,-5.1543,-5.1386,-5.1334,-5.0622,-4.9788,-4.9061,-4.8152,-4.6975,-4.5288,0.0,-4.4757,-4.3485,-4.4214,-4.4813,-4.4613,-4.5316,-4.5807,-4.5807,-4.5807,-4.5807,-4.5807,-4.5807,-4.5807,-4.5807,-4.5807,-4.5807,-4.5807,-4.5807,-4.5807,-4.5807,-4.5807,-4.5904,-4.6116,-4.698,-4.785,-4.874,-4.9591,-5.0318,-5.0898,-5.0898,-5.0898,-5.0898,-5.0898,-5.0898,-5.0898,-5.0898,-5.0898,-5.0898,-5.0898,-5.0898,-5.0898,-6.2891,-6.3555,-6.4104,-6.4104,-6.4104,-6.4104,-6.4104,-6.4104,-6.3828,-6.3008,-6.2891,-6.2598,-6.1796,-6.1698,-6.1698,-6.1698,-6.1698,-6.1698,-6.1698,-6.1698,-6.1698,-6.1698,-6.1698,-6.1698,-6.1698,-6.1698,-6.1698,-6.1698,-6.1698,-6.1698,-6.1698,-6.1698,-6.1698,-6.1698,-6.1698,-6.1698,-6.1698,-6.1698,-6.1698,-6.1698,-6.1698,-6.1698,-6.1698,-6.1698,-6.1698,-6.1698,-6.162,-6.1601,-6.1466,-6.0607,-6.0297,-6.0141,-5.9282,-5.9015,-5.8847,-5.797,-5.7175,-5.6595,-5.6599,-5.5956,-5.5273,-5.5215,-5.3945,-5.2676,-5.2617,-5.1973,-5.1406,-5.1386,-5.0655,-4.9973,-4.9911,-4.9132,-4.793,-4.6183,0.0,0.0,-4.3653,-4.4697,-4.5432,-4.469,-4.5316,-4.5807,-4.5807,-4.5807,-4.5807,-4.5807,-4.5807,-4.5807,-4.5807,-4.5807,-4.5807,-4.5807,-4.5807,-4.5807,-4.5807,-4.5807,-4.6213,-4.6999,-4.7889,-4.8759,-4.9629,-5.0434,-5.084,-5.0898,-5.0898,-5.0898,-5.0898,-5.0898,-5.0898,-5.0898,-5.0898,-5.0898,-5.0898,-5.0898,-5.0898,-5.0898,-6.3691,-6.4336,-6.4687,-6.4358,-6.457,-6.4687,-6.4358,-6.4299,-6.4182,-6.3848,-6.3809,-6.3477,-6.2598,-6.2501,-6.2286,-6.1757,-6.1698,-6.1698,-6.1698,-6.1698,-6.1698,-6.1698,-6.1698,-6.1698,-6.1698,-6.1698,-6.1698,-6.1698,-6.1698,-6.1698,-6.1698,-6.1698,-6.1698,-6.1698,-6.1698,-6.1698,-6.1698,-6.1698,-6.1698,-6.1698,-6.1698,-6.1698,-6.1698,-6.1698,-6.1698,-6.1698,-6.1698,-6.1698,-6.164,-6.133,-6.1213,-6.1056,-6.0178,-5.9907,-5.9638,-5.8213,-5.7576,-5.7231,-5.6745,-5.636,-5.5973,-5.5446,-5.4802,-5.4023,-5.2948,-5.2441,-5.2051,-5.1504,-5.1112,-5.0719,-5.0211,-4.9763,-4.9084,-4.793,0.0,-4.6851,-4.5856,-4.577,-4.5691,-4.5374,-4.5613,-4.5807,-4.5807,-4.5807,-4.5807,-4.5807,-4.5807,-4.5807,-4.5807,-4.5807,-4.5807,-4.5807,-4.5807,-4.5807,-4.5807,-4.5807,-4.6252,-4.7115,-4.7985,-4.8856,-4.9726,-5.0531,-5.0898,-5.0898,-5.0898,-5.0898,-5.0898,-5.0898,-5.0898,-5.0898,-5.0898,-5.0898,-5.0898,-5.0898,-5.0898,-5.0898,-6.4589,-6.5214,-6.5526,-6.5158,-6.539,-6.5507,-6.5138,-6.5099,-6.4982,-6.4746,-6.4475,-6.3965,-6.3106,-6.2755,-6.2345,-6.1757,-6.1698,-6.1698,-6.1698,-6.1698,-6.1698,-6.1698,-6.1698,-6.1698,-6.1698,-6.1698,-6.1698,-6.1698,-6.1698,-6.1698,-6.1698,-6.1698,-6.1698,-6.1698,-6.1698,-6.1698,-6.1698,-6.1698,-6.1698,-6.1698,-6.1698,-6.1698,-6.1698,-6.1698,-6.1698,-6.1698,-6.1698,-6.1698,-6.1698,-6.1698,-6.1698,-6.1601,-6.0998,-6.0627,-6.0178,-5.8968,-5.8232,-5.7672,-5.7124,-5.6797,-5.645,-5.5869,-5.5501,-5.4996,-5.3785,-5.3084,-5.2539,-5.1933,-5.1582,-5.123,-5.0683,-5.0504,-5.0161,-4.9311,-4.8571,-4.7975,-4.7655,-4.7041,-4.6539,-4.6232,-4.6213,-4.6097,-4.5826,-4.5807,-4.5807,-4.5807,-4.5807,-4.5807,-4.5807,-4.5807,-4.5807,-4.5807,-4.6078,-4.6213,-4.6213,-4.6213,-4.6658,-4.7521,-4.8392,-4.9243,-5.0113,-5.0647,-5.0898,-5.0898,-5.0898,-5.0898,-5.0898,-5.0898,-5.0898,-5.0898,-5.0898,-5.0898,-5.0898,-5.0898,-5.0898,-5.0898,-6.5604,-6.6249,-6.6795,-6.6795,-6.6795,-6.6795,-6.6795,-6.6795,-6.6502,-6.5702,-6.4843,-6.3984,-6.3106,-6.2228,-6.1718,-6.1698,-6.1698,-6.1698,-6.1698,-6.1698,-6.1698,-6.1698,-6.1698,-6.1698,-6.1698,-6.1698,-6.1698,-6.1698,-6.1698,-6.1698,-6.1698,-6.1698,-6.1698,-6.1698,-6.1698,-6.1698,-6.1698,-6.1698,-6.1698,-6.1698,-6.1698,-6.1698,-6.1698,-6.1698,-6.1698,-6.1698,-6.1698,-6.1698,-6.1698,-6.1698,-6.1698,-6.1698,-6.1698,-6.1115,-6.0412,-6.0393,-5.9183,-5.7816,-5.7797,-5.7211,-5.661,-5.6609,-5.5948,-5.5303,-5.5303,-5.3959,-5.2712,-5.2712,-5.2011,-5.1406,-5.1406,-5.1406,-5.1093,-5.0155,-4.9994,-4.965,-4.8647,-4.8494,-4.8157,-4.7214,-4.7115,-4.6767,-4.5904,-4.5826,-4.5826,-4.5826,-4.5826,-4.5826,-4.5826,-4.5826,-4.5826,-4.5826,-4.6651,-4.7115,-4.7115,-4.7115,-4.754,-4.8411,-4.9301,-5.0132,-5.0898,-5.0898,-5.0898,-5.0898,-5.0898,-5.0898,-5.0898,-5.0898,-5.0898,-5.0898,-5.0898,-5.0898,-5.0898,-5.0898,-5.0898,-5.0898,-6.6189,-6.6571,-6.6795,-6.6795,-6.6795,-6.6795,-6.6795,-6.6795,-6.6502,-6.5702,-6.537,-6.4648,-6.3164,-6.2774,-6.2364,-6.1757,-6.1698,-6.1698,-6.1698,-6.1698,-6.1698,-6.1698,-6.1698,-6.1698,-6.1698,-6.1698,-6.1698,-6.1698,-6.1698,-6.1698,-6.1698,-6.1698,-6.1698,-6.1698,-6.1698,-6.1698,-6.1698,-6.1698,-6.1698,-6.1698,-6.1698,-6.1698,-6.1698,-6.1698,-6.1698,-6.1698,-6.1698,-6.1698,-6.1698,-6.1698,-6.1698,-6.1698,-6.1698,-6.1522,-6.1193,-6.0588,-6.0022,-5.9358,-5.8128,-5.7621,-5.7311,-5.6731,-5.6405,-5.6058,-5.5433,-5.4892,-5.435,-5.3747,-5.2928,-5.2304,-5.2305,-5.1816,-5.1308,-5.1033,-5.0437,-4.9907,-4.9583,-4.8937,-4.84,-4.8113,-4.8037,-4.7908,-4.7657,-4.7618,-4.7618,-4.7618,-4.7618,-4.7618,-4.7618,-4.7618,-4.7618,-4.7618,-4.7869,-4.8005,-4.8005,-4.8005,-4.845,-4.932,-4.9591,-5.0132,-5.0898,-5.0898,-5.0898,-5.0898,-5.0898,-5.0898,-5.0898,-5.0898,-5.0898,-5.0898,-5.0898,-5.0898,-5.0898,-5.0898,-5.0898,-5.0898,-6.6386,-6.6615,-6.6716,-6.6716,-6.6762,-6.6795,-6.6795,-6.6795,-6.6502,-6.5702,-6.5292,-6.4687,-6.3633,-6.3204,-6.293,-6.2735,-6.2735,-6.2579,-6.2247,-6.2208,-6.2052,-6.1718,-6.1698,-6.1698,-6.1698,-6.1698,-6.1698,-6.1698,-6.1698,-6.1698,-6.1698,-6.1698,-6.1698,-6.1698,-6.1698,-6.1698,-6.1698,-6.1698,-6.1698,-6.1698,-6.1698,-6.1698,-6.1698,-6.1698,-6.1698,-6.1698,-6.1698,-6.1698,-6.1698,-6.1698,-6.1698,-6.1698,-6.1698,-6.1698,-6.1601,-6.1076,-6.0666,-6.0178,-5.9104,-5.8324,-5.768,-5.7192,-5.6844,-5.6458,-5.5931,-5.5547,-5.5144,-5.462,-5.355,-5.2693,-5.2695,-5.1992,-5.1406,-5.1406,-5.0915,-5.0533,-5.0521,-4.9997,-4.9463,-4.9063,-4.8981,-4.8811,-4.8438,-4.8392,-4.8392,-4.8392,-4.8392,-4.8392,-4.8392,-4.8392,-4.8392,-4.8392,-4.874,-4.8914,-4.8914,-4.9223,-4.9494,-4.9707,-5.0016,-5.0434,-5.0898,-5.0898,-5.0898,-5.0898,-5.0898,-5.0898,-5.0898,-5.0898,-5.0898,-5.0898,-5.0898,-5.0898,-5.0898,-5.0898,-5.0898,-5.0898,-6.6291,-6.6432,-6.6579,-6.6579,-6.6674,-6.6762,-6.6762,-6.6765,-6.6494,-6.5675,-6.4899,-6.4397,-6.4319,-6.3594,-6.3438,-6.424,-6.4299,-6.3965,-6.3164,-6.3125,-6.2735,-6.1854,-6.1815,-6.1776,-6.1698,-6.1698,-6.1698,-6.1698,-6.1698,-6.1698,-6.1698,-6.1698,-6.1698,-6.1698,-6.1698,-6.1698,-6.1698,-6.1698,-6.1698,-6.1698,-6.1698,-6.1698,-6.1698,-6.1698,-6.1698,-6.1698,-6.1698,-6.1698,-6.1698,-6.1698,-6.1698,-6.1698,-6.1698,-6.1698,-6.1698,-6.1698,-6.1134,-6.049,-6.0412,-5.9241,-5.7992,-5.7836,-5.725,-5.6684,-5.6626,-5.5987,-5.5428,-5.5428,-5.4092,-5.2907,-5.2829,-5.2108,-5.1484,-5.1406,-5.1406,-5.1385,-5.1325,-5.1299,-5.0951,-5.0038,-4.9918,-4.9588,-4.8718,-4.8631,-4.8624,-4.8624,-4.8624,-4.8624,-4.8624,-4.8624,-4.8624,-4.8624,-4.9397,-4.9803,-4.9803,-5.0531,-5.0531,-4.9823,-5.055,-5.0898,-5.0898,-5.0898,-5.0898,-5.0898,-5.0898,-5.0898,-5.0898,-5.0898,-5.0898,-5.0898,-5.0898,-5.0898,-5.0898,-5.0898,-5.0898,-5.0898,-6.6138,-6.627,-6.6358,-6.6358,-6.6386,-6.6413,-6.6413,-6.6535,-6.6336,-6.5479,-6.5338,-6.5058,-6.4377,-6.4123,-6.4084,-6.4279,-6.4299,-6.4221,-6.4026,-6.4026,-6.3633,-6.2755,-6.2716,-6.2403,-6.1718,-6.1698,-6.1698,-6.1698,-6.1698,-6.1698,-6.1698,-6.1698,-6.1698,-6.1698,-6.1698,-6.1698,-6.1698,-6.1698,-6.1698,-6.1698,-6.1698,-6.1698,-6.1698,-6.1698,-6.1698,-6.1698,-6.1698,-6.1698,-6.1698,-6.1698,-6.1698,-6.1698,-6.1698,-6.1698,-6.1698,-6.1698,-6.1562,-6.1271,-6.0588,-6.0119,-5.9514,-5.8148,-5.766,-5.7367,-5.6743,-5.645,-5.6317,-5.6327,-5.5471,-5.4538,-5.384,-5.3005,-5.2186,-5.1503,-5.1406,-5.1386,-5.1386,-5.1334,-5.1213,-5.0993,-5.0879,-5.0744,-5.0519,-5.0412,-5.0357,-5.0357,-5.0357,-5.0357,-5.0357,-5.0357,-5.0357,-5.0357,-5.0531,-5.0647,-5.0647,-5.0801,-5.0801,-5.0647,-5.0821,-5.0898,-5.0898,-5.0898,-5.0898,-5.0898,-5.0898,-5.0898,-5.0898,-5.0898,-5.0898,-5.0898,-5.0898,-5.0898,-5.0898,-5.0898,-5.0898,-5.0898,-6.6005,-6.6109,-6.6202,-6.6202,-6.6259,-6.6295,-6.6295,-6.6399,-6.6153,-6.5317,-6.5343,-6.5285,-6.4836,-6.4866,-6.5077,-6.547,-6.549,-6.5331,-6.4941,-6.4921,-6.4531,-6.3652,-6.3613,-6.3204,-6.2345,-6.2325,-6.213,-6.1698,-6.1698,-6.1698,-6.1698,-6.1698,-6.1698,-6.1698,-6.1698,-6.1698,-6.1698,-6.1698,-6.1698,-6.1698,-6.1698,-6.1698,-6.1698,-6.1698,-6.1698,-6.1698,-6.1698,-6.1698,-6.1698,-6.1698,-6.1698,-6.1698,-6.1698,-6.1698,-6.1698,-6.1698,-6.1698,-6.1601,-6.1134,-6.0725,-6.0178,-5.9261,-5.8421,-5.7582,-5.6782,-5.6606,-5.6606,-5.6593,-5.5915,-5.5157,-5.4693,-5.3566,-5.2554,-5.2086,-5.1678,-5.1406,-5.1406,-5.1365,-5.1334,-5.1299,-5.1245,-5.1161,-5.1111,-5.0976,-5.0898,-5.0898,-5.0898,-5.0898,-5.0898,-5.0898,-5.0898,-5.0898,-5.0898,-5.0898,-5.0898,-5.0898,-5.0898,-5.0898,-5.0898,-5.0898,-5.0898,-5.0898,-5.0898,-5.0898,-5.0898,-5.0898,-5.0898,-5.0898,-5.0898,-5.0898,-5.0898,-5.0898,-5.0898,-5.0898,-5.0898,-5.0898,-6.5897,-6.599,-6.6065,-6.6065,-6.6157,-6.6226,-6.6226,-6.6251,-6.6034,-6.5355,-6.5395,-6.5473,-6.5473,-6.564,-6.6043,-6.6737,-6.6795,-6.6522,-6.5858,-6.5819,-6.5429,-6.455,-6.4514,-6.4101,-6.3243,-6.3086,-6.2579,-6.1698,-6.1698,-6.1698,-6.1698,-6.1698,-6.1698,-6.1698,-6.1698,-6.1698,-6.1698,-6.1698,-6.1698,-6.1698,-6.1698,-6.1698,-6.1698,-6.1698,-6.1698,-6.1698,-6.1698,-6.1698,-6.1698,-6.1698,-6.1698,-6.1698,-6.1698,-6.1698,-6.1698,-6.1698,-6.1698,-6.1698,-6.1698,-6.1174,-6.0588,-6.0432,-5.93,-5.7992,-5.7035,-5.6704,-5.6606,-5.6606,-5.6027,-5.5485,-5.5329,-5.4126,-5.3096,-5.296,-5.2183,-5.1618,-5.1618,-5.1484,-5.1386,-5.1312,-5.1302,-5.1258,-5.1136,-5.101,-5.0925,-5.0925,-5.0914,-5.0898,-5.0898,-5.0898,-5.0898,-5.0898,-5.0898,-5.0898,-5.0898,-5.0898,-5.0898,-5.0898,-5.0898,-5.0898,-5.0898,-5.0898,-5.0898,-5.0898,-5.0898,-5.0898,-5.0898,-5.0898,-5.0898,-5.0898,-5.0898,-5.0898,-5.0898,-5.0898,-5.0801,-5.0685,-6.5897,-6.5916,-6.594,-6.594,-6.5946,-6.595,-6.595,-6.6044,-6.609,-6.5974,-6.6087,-6.6169,-6.6169,-6.6332,-6.6553,-6.6773,-6.6795,-6.6756,-6.6639,-6.6639,-6.6268,-6.5468,-6.5429,-6.5019,-6.4143,-6.3399,-6.2579,-6.1698,-6.1698,-6.1698,-6.1698,-6.1698,-6.1698,-6.1698,-6.1698,-6.1698,-6.1698,-6.1698,-6.1698,-6.1698,-6.1698,-6.1698,-6.1698,-6.1698,-6.1698,-6.1698,-6.1698,-6.1698,-6.1698,-6.1698,-6.1698,-6.1698,-6.1698,-6.1698,-6.1698,-6.1698,-6.1698,-6.1698,-6.1698,-6.1601,-6.1349,-6.0588,-6.0217,-5.9631,-5.8011,-5.7094,-5.6606,-5.6606,-5.6508,-5.6198,-5.5437,-5.5113,-5.4709,-5.3948,-5.3095,-5.2512,-5.2512,-5.1872,-5.1405,-5.1386,-5.1338,-5.1274,-5.1195,-5.1131,-5.1075,-5.1075,-5.0981,-5.0898,-5.0898,-5.0898,-5.0898,-5.0898,-5.0898,-5.0898,-5.0898,-5.0898,-5.0898,-5.0898,-5.0898,-5.0898,-5.0898,-5.0898,-5.0898,-5.0898,-5.0898,-5.0898,-5.0898,-5.0898,-5.0898,-5.0898,-5.0898,-5.0898,-5.0898,-5.0898,-5.0453,-4.9861,-6.5897,-6.5897,-6.5897,-6.5897,-6.5897,-6.5897,-6.5897,-6.5938,-6.599,-6.599,-6.6118,-6.6184,-6.6184,-6.6439,-6.661,-6.6674,-6.6756,-6.6795,-6.6795,-6.6795,-6.6639,-6.6288,-6.6268,-6.5878,-6.5038,-6.4648,-6.3789,-6.2423,-6.1932,-6.1698,-6.1698,-6.1698,-6.1698,-6.1698,-6.1698,-6.1698,-6.1698,-6.1698,-6.1698,-6.1698,-6.1698,-6.1698,-6.1698,-6.1698,-6.1698,-6.1698,-6.1698,-6.1698,-6.1698,-6.1698,-6.1698,-6.1698,-6.1698,-6.1698,-6.1698,-6.1698,-6.1698,-6.1698,-6.1698,-6.1698,-6.1601,-6.1213,-6.0764,-6.0061,-5.8812,-5.7875,-5.7133,-5.6684,-5.6606,-5.6489,-5.6098,-5.5634,-5.5169,-5.4799,-5.3985,-5.327,-5.2765,-5.2379,-5.1951,-5.1464,-5.1338,-5.1288,-5.1266,-5.1195,-5.1132,-5.1105,-5.105,-5.0976,-5.0906,-5.0898,-5.0898,-5.0898,-5.0898,-5.0898,-5.0898,-5.0898,-5.0898,-5.0898,-5.0898,-5.0898,-5.0898,-5.0898,-5.0898,-5.0898,-5.0898,-5.0898,-5.0898,-5.0898,-5.0647,-5.0221,-5.0221,-5.0221,-5.0221,-5.0221,-4.9997,-4.9629]},{"header":{"parameterUnit":"m.s-1","parameterCategory":1,"la1":30.6,"la2":28.766,"lo1":-90.7593,"lo2":-88.6598,"dy":0.0162,"dx":0.0183,"nx":116,"ny":114,"refTime":"2024-05-23T12:00:00:Z","depth":0,"parameterNumber":3,"parameterNumberName":"V-component_of_WINDS"},"data":[0.0,0.0,0.0,0.0,0.0,0.0,0.0,0.0,0.0,0.0,0.0,0.0,0.0,0.0,0.0,0.0,0.0,0.0,0.0,0.0,0.0,0.0,0.0,0.0,0.0,0.0,0.0,0.0,0.0,0.0,0.0,0.0,0.0,0.0,0.0,0.0,0.0,0.0,0.0,0.0,0.0,0.0,0.0,0.0,0.0,0.0,0.0,0.0,0.0,0.0,0.0,0.0,0.0,0.0,0.0,0.0,0.0,0.0,0.0,0.0,0.0,0.0,0.0,0.0,0.0,0.0,0.0,0.0,0.0,0.0,0.0,0.0,0.0,0.0,0.0,0.0,0.0,0.0,0.0,0.0,0.0,0.0,0.0,0.0,0.0,0.0,0.0,0.0,0.0,0.0,0.0,0.0,0.0,0.0,0.0,0.0,0.0,0.0,0.0,0.0,0.0,0.0,0.0,0.0,0.0,0.0,0.0,0.0,0.0,0.0,0.0,0.0,0.0,0.0,0.0,0.0,0.0,0.0,0.0,0.0,0.0,0.0,0.0,0.0,0.0,0.0,0.0,0.0,0.0,0.0,0.0,0.0,0.0,0.0,0.0,0.0,0.0,0.0,0.0,0.0,0.0,0.0,0.0,0.0,0.0,0.0,0.0,0.0,0.0,0.0,0.0,0.0,0.0,0.0,0.0,0.0,0.0,0.0,0.0,0.0,0.0,0.0,0.0,0.0,0.0,0.0,0.0,0.0,0.0,0.0,0.0,0.0,0.0,0.0,0.0,0.0,0.0,0.0,0.0,0.0,0.0,0.0,0.0,0.0,0.0,0.0,0.0,0.0,0.0,0.0,0.0,0.0,0.0,0.0,0.0,0.0,0.0,0.0,0.0,0.0,0.0,0.0,0.0,0.0,0.0,0.0,0.0,0.0,0.0,0.0,0.0,0.0,0.0,0.0,0.0,0.0,0.0,0.0,0.0,0.0,0.0,0.0,0.0,0.0,0.0,0.0,0.0,0.0,0.0,0.0,0.0,0.0,0.0,0.0,0.0,0.0,0.0,0.0,0.0,0.0,0.0,0.0,0.0,0.0,0.0,0.0,0.0,0.0,0.0,0.0,0.0,0.0,0.0,0.0,0.0,0.0,0.0,0.0,0.0,0.0,0.0,0.0,0.0,0.0,0.0,0.0,0.0,0.0,0.0,0.0,0.0,0.0,0.0,0.0,0.0,0.0,0.0,0.0,0.0,0.0,0.0,0.0,0.0,0.0,0.0,0.0,0.0,0.0,0.0,0.0,0.0,0.0,0.0,0.0,0.0,0.0,0.0,0.0,0.0,0.0,0.0,0.0,0.0,0.0,0.0,0.0,0.0,0.0,0.0,0.0,0.0,0.0,0.0,0.0,0.0,0.0,0.0,0.0,0.0,0.0,0.0,0.0,0.0,0.0,0.0,0.0,0.0,0.0,0.0,0.0,0.0,0.0,0.0,0.0,0.0,0.0,0.0,0.0,0.0,0.0,0.0,0.0,0.0,0.0,0.0,0.0,0.0,0.0,0.0,0.0,0.0,0.0,0.0,0.0,0.0,0.0,0.0,0.0,0.0,0.0,0.0,0.0,0.0,0.0,0.0,0.0,0.0,0.0,0.0,0.0,0.0,0.0,0.0,0.0,0.0,0.0,0.0,0.0,0.0,0.0,0.0,0.0,0.0,0.0,0.0,0.0,0.0,0.0,0.0,0.0,0.0,0.0,0.0,0.0,0.0,0.0,0.0,0.0,0.0,0.0,0.0,0.0,0.0,0.0,0.0,0.0,0.0,0.0,0.0,0.0,0.0,0.0,0.0,0.0,0.0,0.0,0.0,0.0,0.0,0.0,0.0,0.0,0.0,0.0,0.0,0.0,0.0,0.0,0.0,0.0,0.0,0.0,0.0,0.0,0.0,0.0,0.0,0.0,0.0,0.0,0.0,0.0,0.0,0.0,0.0,0.0,0.0,0.0,0.0,0.0,0.0,0.0,0.0,0.0,0.0,0.0,0.0,0.0,0.0,0.0,0.0,0.0,0.0,0.0,0.0,0.0,0.0,0.0,0.0,0.0,0.0,0.0,0.0,0.0,0.0,0.0,0.0,0.0,0.0,0.0,0.0,0.0,0.0,0.0,0.0,0.0,0.0,0.0,0.0,0.0,0.0,0.0,0.0,0.0,0.0,0.0,0.0,0.0,0.0,0.0,0.0,0.0,0.0,0.0,0.0,0.0,0.0,0.0,0.0,0.0,0.0,0.0,0.0,0.0,0.0,0.0,0.0,0.0,0.0,0.0,0.0,0.0,0.0,0.0,0.0,0.0,0.0,0.0,0.0,0.0,0.0,0.0,0.0,0.0,0.0,0.0,0.0,0.0,0.0,0.0,0.0,0.0,0.0,0.0,0.0,0.0,0.0,0.0,0.0,0.0,0.0,0.0,0.0,0.0,0.0,0.0,0.0,0.0,0.0,0.0,0.0,0.0,0.0,0.0,0.0,0.0,0.0,0.0,0.0,0.0,0.0,0.0,0.0,0.0,0.0,0.0,0.0,0.0,0.0,0.0,0.0,0.0,0.0,0.0,0.0,0.0,0.0,0.0,0.0,0.0,0.0,0.0,0.0,0.0,0.0,0.0,0.0,0.0,0.0,0.0,0.0,0.0,0.0,0.0,0.0,0.0,0.0,0.0,0.0,0.0,0.0,0.0,0.0,0.0,0.0,0.0,0.0,0.0,0.0,0.0,0.0,0.0,0.0,0.0,0.0,0.0,0.0,0.0,0.0,0.0,0.0,0.0,0.0,0.0,0.0,0.0,0.0,0.0,0.0,0.0,0.0,0.0,0.0,0.0,0.0,0.0,0.0,0.0,0.0,0.0,0.0,0.0,0.0,0.0,0.0,0.0,0.0,0.0,0.0,0.0,0.0,0.0,0.0,0.0,0.0,0.0,0.0,0.0,0.0,0.0,0.0,0.0,0.0,0.0,0.0,0.0,0.0,0.0,0.0,0.0,0.0,0.0,0.0,0.0,0.0,0.0,0.0,0.0,0.0,0.0,0.0,0.0,0.0,0.0,0.0,0.0,0.0,0.0,0.0,0.0,0.0,0.0,0.0,0.0,0.0,0.0,0.0,0.0,0.0,0.0,0.0,0.0,0.0,0.0,0.0,0.0,0.0,0.0,0.0,0.0,0.0,0.0,0.0,0.0,0.0,0.0,0.0,0.0,0.0,0.0,0.0,0.0,0.0,0.0,0.0,0.0,0.0,0.0,0.0,0.0,0.0,0.0,0.0,0.0,0.0,0.0,0.0,0.0,0.0,0.0,0.0,0.0,0.0,0.0,0.0,0.0,0.0,0.0,0.0,0.0,0.0,0.0,0.0,0.0,0.0,0.0,0.0,0.0,0.0,0.0,0.0,0.0,0.0,0.0,0.0,0.0,0.0,0.0,0.0,0.0,0.0,0.0,0.0,0.0,0.0,0.0,0.0,0.0,0.0,0.0,0.0,0.0,0.0,0.0,0.0,0.0,0.0,0.0,0.0,0.0,0.0,0.0,0.0,0.0,0.0,0.0,0.0,0.0,0.0,0.0,0.0,0.0,0.0,0.0,0.0,0.0,0.0,0.0,0.0,0.0,0.0,0.0,0.0,0.0,0.0,0.0,0.0,0.0,0.0,0.0,0.0,0.0,0.0,0.0,0.0,0.0,0.0,0.0,0.0,0.0,0.0,0.0,0.0,0.0,0.0,0.0,0.0,0.0,0.0,0.0,0.0,0.0,0.0,0.0,0.0,0.0,0.0,0.0,0.0,0.0,0.0,0.0,0.0,0.0,0.0,0.0,0.0,0.0,0.0,0.0,0.0,0.0,0.0,0.0,0.0,0.0,0.0,0.0,0.0,0.0,0.0,0.0,0.0,0.0,0.0,0.0,0.0,0.0,0.0,0.0,0.0,0.0,0.0,0.0,0.0,0.0,0.0,0.0,0.0,0.0,0.0,0.0,0.0,0.0,0.0,0.0,0.0,0.0,0.0,0.0,0.0,0.0,0.0,0.0,0.0,0.0,0.0,0.0,0.0,0.0,0.0,0.0,0.0,0.0,0.0,0.0,0.0,0.0,0.0,0.0,0.0,0.0,0.0,0.0,0.0,0.0,0.0,0.0,0.0,0.0,0.0,0.0,0.0,0.0,0.0,0.0,0.0,0.0,0.0,0.0,0.0,0.0,0.0,0.0,0.0,0.0,0.0,0.0,0.0,0.0,0.0,0.0,0.0,0.0,0.0,0.0,0.0,0.0,0.0,0.0,0.0,0.0,0.0,0.0,0.0,0.0,0.0,0.0,0.0,0.0,0.0,0.0,0.0,0.0,0.0,0.0,0.0,0.0,0.0,0.0,0.0,0.0,0.0,0.0,0.0,0.0,0.0,0.0,0.0,0.0,0.0,0.0,0.0,0.0,0.0,0.0,0.0,0.0,0.0,0.0,0.0,0.0,0.0,0.0,0.0,0.0,0.0,0.0,0.0,0.0,0.0,0.0,0.0,0.0,0.0,0.0,0.0,0.0,0.0,0.0,0.0,0.0,0.0,0.0,0.0,0.0,0.0,0.0,0.0,0.0,0.0,0.0,0.0,0.0,0.0,0.0,0.0,0.0,0.0,0.0,0.0,0.0,0.0,0.0,0.0,0.0,0.0,0.0,0.0,0.0,0.0,0.0,0.0,0.0,0.0,0.0,0.0,0.0,0.0,0.0,0.0,0.0,0.0,0.0,0.0,0.0,0.0,0.0,0.0,0.0,0.0,0.0,0.0,0.0,0.0,0.0,0.0,0.0,0.0,0.0,0.0,0.0,0.0,0.0,0.0,0.0,0.0,0.0,0.0,0.0,0.0,0.0,0.0,0.0,0.0,0.0,0.0,0.0,0.0,0.0,0.0,0.0,0.0,0.0,0.0,0.0,0.0,0.0,0.0,0.0,0.0,0.0,0.0,0.0,0.0,0.0,0.0,0.0,0.0,0.0,0.0,0.0,0.0,0.0,0.0,0.0,0.0,0.0,0.0,0.0,0.0,0.0,0.0,0.0,0.0,0.0,0.0,0.0,0.0,0.0,0.0,0.0,0.0,0.0,0.0,0.0,0.0,0.0,0.0,0.0,0.0,0.0,0.0,0.0,0.0,0.0,0.0,0.0,0.0,0.0,0.0,0.0,0.0,0.0,0.0,0.0,0.0,0.0,0.0,0.0,0.0,0.0,0.0,0.0,0.0,0.0,0.0,0.0,0.0,0.0,0.0,0.0,0.0,0.0,0.0,0.0,0.0,0.0,0.0,0.0,0.0,0.0,0.0,0.0,0.0,0.0,0.0,0.0,0.0,0.0,0.0,0.0,0.0,0.0,0.0,0.0,0.0,0.0,0.0,0.0,0.0,0.0,0.0,0.0,0.0,0.0,0.0,0.0,0.0,0.0,0.0,0.0,0.0,0.0,0.0,0.0,0.0,0.0,0.0,0.0,0.0,0.0,0.0,0.0,0.0,0.0,0.0,0.0,0.0,0.0,0.0,0.0,0.0,0.0,0.0,0.0,0.0,0.0,0.0,0.0,0.0,0.0,0.0,0.0,0.0,0.0,0.0,0.0,0.0,0.0,0.0,0.0,0.0,0.0,0.0,0.0,0.0,0.0,0.0,0.0,0.0,0.0,0.0,0.0,0.0,0.0,0.0,0.0,0.0,0.0,0.0,0.0,0.0,0.0,0.0,0.0,0.0,0.0,0.0,0.0,0.0,0.0,0.0,0.0,0.0,0.0,0.0,0.0,0.0,0.0,0.0,0.0,0.0,0.0,0.0,0.0,0.0,0.0,0.0,0.0,0.0,0.0,0.0,0.0,0.0,0.0,0.0,0.0,0.0,0.0,0.0,0.0,0.0,0.0,0.0,0.0,0.0,0.0,0.0,0.0,0.0,0.0,0.0,0.0,0.0,0.0,0.0,0.0,0.0,0.0,0.0,0.0,0.0,0.0,0.0,0.0,0.0,0.0,0.0,0.0,0.0,0.0,0.0,0.0,0.0,0.0,0.0,0.0,0.0,0.0,0.0,0.0,0.0,0.0,0.0,0.0,0.0,0.0,0.0,0.0,-1.5487,0.0,0.0,0.0,0.0,0.0,0.0,0.0,0.0,0.0,0.0,0.0,0.0,0.0,0.0,0.0,0.0,0.0,0.0,0.0,0.0,0.0,0.0,0.0,0.0,-0.0961,-0.1391,-0.1859,-0.2257,-0.2528,-0.2585,0.0,0.0,0.0,0.0,0.0,-0.305,-0.3011,-0.3116,-0.3341,-0.345,-0.3668,-0.3967,-0.3964,-0.3731,-0.3341,0.0,0.0,0.0,0.0,0.0,0.0,0.0,0.0,0.0,0.0,0.0,0.0,0.0,0.0,0.0,0.0,0.0,0.0,0.0,0.0,0.0,0.0,0.0,0.0,0.0,0.0,0.0,0.0,0.0,0.0,0.0,0.0,0.0,0.0,0.0,0.0,0.0,0.0,0.0,0.0,0.0,0.0,0.0,0.0,0.0,0.0,0.0,0.0,0.0,0.0,0.0,0.0,0.0,0.0,0.0,0.0,0.0,0.0,0.0,0.0,0.0,0.0,0.0,0.0,0.0,0.0,0.0,0.0,0.0,0.0,0.0,-1.6358,0.0,0.0,0.0,0.0,0.0,0.0,0.0,0.0,0.0,0.0,0.0,0.0,0.0,0.0,0.0,0.0,0.0,0.0,0.0,0.0,0.0,-0.0213,-0.0767,-0.1114,-0.1546,-0.2125,-0.2524,-0.2748,-0.2748,-0.2767,0.0,0.0,0.0,-0.2944,-0.3119,-0.3052,-0.3214,-0.3633,-0.3789,-0.4207,-0.485,-0.5003,-0.4764,-0.4206,-0.3927,0.0,0.0,0.0,0.0,0.0,0.0,0.0,0.0,0.0,0.0,0.0,0.0,0.0,0.0,0.0,0.0,0.0,0.0,0.0,0.0,0.0,0.0,0.0,0.0,0.0,0.0,0.0,0.0,0.0,0.0,0.0,0.0,0.0,0.0,0.0,0.0,0.0,0.0,0.0,0.0,0.0,0.0,0.0,0.0,0.0,0.0,0.0,0.0,0.0,0.0,0.0,0.0,0.0,0.0,0.0,0.0,0.0,0.0,0.0,0.0,0.0,0.0,0.0,-1.9769,-2.0328,-2.0686,-2.1346,-2.1832,-2.2025,-1.9677,-1.8834,-1.9008,-1.7477,0.0,0.0,0.0,0.0,0.0,0.0,0.0,0.0,0.0,0.0,0.0,0.0,0.0,0.0,0.0,0.0,0.0,0.0,0.0,-0.0329,-0.1208,-0.1348,-0.1791,-0.2774,-0.2923,-0.2954,-0.2954,-0.3065,0.0,-0.3014,-0.3106,-0.3162,-0.3184,-0.3398,-0.3607,-0.3786,-0.454,-0.51,-0.5474,-0.5616,-0.6071,-0.6659,-0.5188,-0.5034,-0.5799,0.0,0.0,0.0,0.0,0.0,0.0,0.0,0.0,0.0,0.0,0.0,0.0,0.0,0.0,0.0,0.0,0.0,0.0,0.0,0.0,0.0,0.0,0.0,0.0,0.0,0.0,0.0,0.0,0.0,0.0,0.0,0.0,0.0,0.0,0.0,0.0,0.0,0.0,0.0,0.0,0.0,-1.1726,-1.2377,0.0,0.0,0.0,0.0,0.0,0.0,0.0,0.0,0.0,0.0,0.0,0.0,0.0,-1.9274,-2.0035,-2.1458,-2.2217,-2.2282,-2.3134,-2.3595,-2.365,-2.3751,-2.3834,-2.3862,-2.3485,0.0,-2.0695,-1.943,0.0,0.0,0.0,0.0,0.0,0.0,0.0,0.0,0.0,0.0,0.0,0.0,0.0,0.0,0.0,0.0,0.0,0.0,0.0,0.0,0.0,-0.1826,-0.2309,-0.3056,-0.3245,-0.3266,-0.3129,-0.3167,-0.3181,-0.3127,-0.3097,-0.3184,-0.3422,-0.3587,-0.3971,-0.4591,-0.5369,-0.5874,-0.6126,-0.6237,-0.6493,-0.6806,-0.659,-0.6692,-0.6968,-0.6404,0.0,0.0,0.0,0.0,0.0,0.0,0.0,0.0,0.0,0.0,0.0,0.0,0.0,0.0,0.0,0.0,0.0,0.0,0.0,0.0,0.0,0.0,0.0,0.0,0.0,0.0,0.0,0.0,0.0,0.0,0.0,0.0,0.0,0.0,0.0,0.0,0.0,0.0,0.0,-1.0996,-1.2887,-1.3703,-1.4623,-1.4857,0.0,0.0,0.0,0.0,0.0,0.0,0.0,0.0,0.0,-2.0067,-2.0891,-2.1741,-2.2557,-2.3501,-2.3978,-2.3996,-2.4785,-2.5221,-2.5231,-2.547,-2.5527,-2.5561,-2.5323,-2.4716,-2.3684,-2.1786,-2.0558,-1.9751,0.0,0.0,0.0,0.0,-1.8164,-1.8183,0.0,0.0,0.0,0.0,0.0,0.0,0.0,0.0,0.0,0.0,0.0,0.0,-0.1802,-0.2319,-0.281,-0.3337,-0.3539,-0.3578,-0.3368,-0.3295,-0.3227,-0.3208,-0.3106,-0.3201,-0.3516,-0.3856,-0.4481,-0.5391,-0.6057,-0.6487,-0.6593,-0.6742,-0.6878,-0.7051,-0.7659,-0.7924,-0.7864,-0.7496,-0.6946,-0.6311,0.0,0.0,0.0,0.0,0.0,0.0,0.0,0.0,0.0,0.0,0.0,0.0,0.0,0.0,0.0,0.0,0.0,0.0,0.0,0.0,0.0,0.0,0.0,0.0,0.0,0.0,0.0,0.0,0.0,0.0,0.0,0.0,0.0,0.0,0.0,0.0,0.0,-1.2631,-1.4231,-1.5032,-1.6193,-1.6425,0.0,0.0,0.0,0.0,0.0,0.0,-1.9097,-1.9952,-2.1044,-2.2474,-2.3251,-2.406,-2.4817,-2.5341,-2.5546,-2.5555,-2.6195,-2.6471,-2.6489,-2.6747,-2.6885,-2.6875,-2.6609,-2.6416,-2.6149,-2.3868,-2.2712,-2.2226,-2.0906,-2.0145,-1.9829,-2.0442,-2.0461,-2.0448,0.0,0.0,0.0,0.0,0.0,0.0,0.0,0.0,0.0,0.0,0.0,-0.1335,-0.2524,-0.2773,-0.3159,-0.3816,-0.3806,-0.3798,-0.3785,-0.3541,-0.3343,-0.321,-0.3189,-0.3222,-0.3325,-0.4384,-0.5286,-0.5959,-0.6454,-0.6756,-0.6866,-0.7007,-0.7552,-0.8408,-0.82,-0.8305,-0.8656,-0.8755,-0.8704,-0.8484,-0.7792,0.0,0.0,0.0,0.0,0.0,0.0,0.0,0.0,0.0,0.0,0.0,0.0,0.0,0.0,0.0,0.0,0.0,0.0,0.0,0.0,0.0,0.0,0.0,0.0,0.0,0.0,0.0,0.0,0.0,0.0,0.0,0.0,0.0,0.0,0.0,0.0,0.0,0.0,-1.6755,-1.7853,0.0,0.0,0.0,0.0,-1.8531,-1.9989,-2.1236,-2.2025,-2.284,-2.373,-2.4601,-2.5399,-2.6076,-2.6463,-2.7289,-2.7675,-2.7675,-2.7711,-2.773,-2.773,-2.7748,-2.7767,-2.7767,-2.7739,-2.7519,-2.6985,-2.5335,-2.4459,-2.4036,-2.351,-2.3041,-2.2702,-2.2739,-2.2748,-2.2739,0.0,0.0,0.0,0.0,0.0,0.0,0.0,0.0,-0.0162,-0.0647,-0.1078,-0.1698,-0.2601,-0.3159,-0.3579,-0.3889,-0.4039,-0.4039,-0.3879,-0.3735,-0.3647,-0.3591,-0.3637,-0.3953,-0.4629,-0.5315,-0.5922,-0.6461,-0.6771,-0.7061,-0.7217,-0.7366,-0.7982,-0.8935,-0.8775,-0.9297,-1.0311,-0.9707,-0.908,-0.8574,-0.8575,-0.7951,0.0,0.0,0.0,0.0,0.0,0.0,0.0,0.0,0.0,0.0,0.0,0.0,0.0,0.0,0.0,0.0,0.0,0.0,0.0,0.0,0.0,0.0,0.0,0.0,0.0,0.0,0.0,0.0,0.0,0.0,0.0,0.0,0.0,0.0,0.0,0.0,0.0,-1.8747,-1.9884,0.0,-1.932,-1.993,-2.057,-2.1007,-2.2007,-2.3033,-2.3859,-2.4666,-2.5362,-2.5922,-2.6765,-2.7252,-2.7343,-2.7684,-2.7822,-2.7822,-2.7822,-2.7822,-2.7822,-2.7822,-2.7822,-2.7822,-2.7822,-2.7739,-2.7564,-2.6995,-2.6205,-2.5304,-2.4592,-2.4253,-2.4134,-2.4134,-2.4134,-2.417,0.0,0.0,0.0,0.0,0.0,0.0,0.0,0.0,-0.0243,-0.0917,-0.1429,-0.2072,-0.2986,-0.3556,-0.3925,-0.4016,-0.4167,-0.4189,-0.4035,-0.3833,-0.3742,-0.3809,-0.4007,-0.4565,-0.5503,-0.5952,-0.64,-0.6848,-0.7095,-0.7295,-0.7497,-0.7923,-0.8528,-0.9224,-0.9448,-1.0127,-1.1077,-1.0599,-0.9997,-0.9401,-0.9479,-0.9059,-0.8302,0.0,0.0,0.0,0.0,0.0,0.0,0.0,0.0,0.0,0.0,0.0,0.0,0.0,0.0,0.0,0.0,0.0,0.0,0.0,0.0,0.0,0.0,0.0,0.0,0.0,0.0,0.0,0.0,0.0,0.0,0.0,0.0,0.0,0.0,0.0,-1.9424,-2.0391,-2.1568,-2.2034,-2.1366,-2.2153,-2.2878,-2.3134,-2.4033,-2.4812,-2.5362,-2.6195,-2.6747,-2.6976,-2.7627,-2.7976,-2.7976,-2.8171,-2.8177,-2.8177,-2.8177,-2.8177,-2.8177,-2.8177,-2.8177,-2.8177,-2.8177,-2.8152,-2.7976,-2.7976,-2.7473,-2.6563,-2.5848,-2.5509,-2.5372,-2.5234,-2.5179,-2.5197,0.0,0.0,0.0,0.0,0.0,0.0,0.0,0.0,-0.0378,-0.1453,-0.1829,-0.2467,-0.3655,-0.3971,-0.4167,-0.4289,-0.4191,-0.4172,-0.4292,-0.3857,-0.3676,-0.3823,-0.4291,-0.4934,-0.5806,-0.63,-0.6709,-0.7102,-0.7309,-0.7461,-0.7607,-0.8679,-0.9189,-0.9283,-1.025,-1.0709,-1.0828,-1.1481,-1.1486,-1.1129,-1.0557,-1.0178,-0.9817,0.0,0.0,0.0,0.0,0.0,0.0,0.0,0.0,0.0,0.0,0.0,0.0,0.0,0.0,0.0,0.0,0.0,0.0,0.0,0.0,0.0,0.0,0.0,0.0,0.0,0.0,0.0,0.0,0.0,0.0,0.0,0.0,0.0,-1.7489,-1.9389,-2.0854,-2.1668,-2.2821,-2.3407,-2.3023,-2.4115,-2.4821,-2.484,-2.594,-2.6609,-2.6628,-2.7361,-2.784,-2.784,-2.8196,-2.8416,-2.8416,-2.8792,-2.8984,-2.8984,-2.8984,-2.8984,-2.8984,-2.8984,-2.8984,-2.8984,-2.8984,-2.8764,-2.8416,-2.8416,-2.8168,-2.7803,-2.7334,-2.694,-2.6554,-2.6186,-2.603,-2.5975,0.0,0.0,0.0,0.0,0.0,0.0,0.0,0.0,-0.0393,-0.1459,-0.1826,-0.2454,-0.3666,-0.3971,-0.4167,-0.4289,-0.427,-0.4265,-0.4298,-0.4012,-0.4053,-0.4589,-0.5246,-0.5855,-0.6425,-0.6761,-0.7071,-0.7309,-0.7563,-0.7712,-0.7756,-0.8153,-0.9174,-1.0619,-1.0136,-1.1058,-1.299,-1.2406,-1.2305,-1.2506,-1.1742,-1.1056,-1.0394,0.0,0.0,0.0,0.0,0.0,0.0,0.0,0.0,0.0,0.0,0.0,0.0,0.0,0.0,0.0,0.0,0.0,0.0,0.0,0.0,0.0,0.0,0.0,0.0,0.0,0.0,0.0,0.0,0.0,0.0,0.0,0.0,-1.6991,-1.8546,-2.0783,-2.2538,-2.3391,-2.4308,-2.4831,-2.4711,-2.5271,-2.5819,-2.6068,-2.6664,-2.7141,-2.7426,-2.7939,-2.8223,-2.8223,-2.8608,-2.8819,-2.8819,-2.8929,-2.8984,-2.8984,-2.8984,-2.8984,-2.8984,-2.8984,-2.8984,-2.8984,-2.8984,-2.892,-2.8819,-2.8819,-2.8581,-2.815,-2.7453,-2.7114,-2.6967,-2.6564,-2.6417,-2.6362,0.0,0.0,0.0,0.0,0.0,0.0,0.0,0.0,-0.0402,-0.1542,-0.1862,-0.2468,-0.3709,-0.3955,-0.4059,-0.4213,-0.4224,-0.4202,-0.4151,-0.4124,-0.4397,-0.5052,-0.5665,-0.6291,-0.6875,-0.7115,-0.7343,-0.7556,-0.7726,-0.7845,-0.7909,-0.8439,-0.9316,-1.0534,-1.0779,-1.1831,-1.3389,-1.3091,-1.2881,-1.275,-1.2485,-1.1828,-1.0927,-1.0533,-1.002,-0.9479,-0.9089,-0.9077,-0.9149,-0.877,0.0,0.0,0.0,0.0,0.0,0.0,0.0,0.0,0.0,0.0,0.0,0.0,0.0,0.0,0.0,0.0,0.0,0.0,0.0,0.0,0.0,0.0,0.0,0.0,-1.6497,-1.8496,-2.0029,-2.2079,-2.3813,-2.4845,-2.5387,-2.5736,-2.5867,-2.6296,-2.6627,-2.682,-2.7361,-2.7783,-2.8012,-2.8416,-2.8645,-2.8645,-2.8865,-2.8984,-2.8984,-2.8984,-2.8984,-2.8984,-2.8984,-2.8984,-2.8984,-2.8984,-2.8984,-2.8984,-2.8984,-2.8984,-2.8984,-2.8984,-2.8847,0.0,0.0,0.0,0.0,0.0,-2.6591,-2.6554,0.0,0.0,0.0,0.0,0.0,0.0,0.0,0.0,-0.0426,-0.1641,-0.1912,-0.2483,-0.3756,-0.3895,-0.3954,-0.4075,-0.4086,-0.4046,-0.3951,-0.4269,-0.4736,-0.5309,-0.5806,-0.6379,-0.7085,-0.7309,-0.7533,-0.7811,-0.7828,-0.7906,-0.8038,-0.897,-0.946,-0.9706,-1.1658,-1.2581,-1.2764,-1.3472,-1.3215,-1.2344,-1.2772,-1.2277,-1.1273,-1.1143,-1.0758,-1.0263,-0.9996,-0.9997,-1.0045,-0.9504,0.0,0.0,0.0,0.0,0.0,0.0,0.0,0.0,0.0,0.0,0.0,0.0,0.0,0.0,0.0,0.0,0.0,0.0,0.0,0.0,0.0,0.0,0.0,0.0,-1.7403,-1.9982,-2.182,-2.337,-2.4757,-2.5883,-2.6058,-2.6251,-2.6619,-2.6976,-2.7215,-2.7306,-2.7985,-2.8416,-2.8462,0.0,0.0,0.0,0.0,-2.8984,-2.8984,-2.8984,-2.8984,-2.8984,-2.8984,-2.8984,-2.8984,-2.8984,-2.8984,-2.8984,-2.8984,-2.8984,-2.8984,-2.8984,-2.8984,-2.8948,-2.8553,-2.7893,-2.7132,-2.6784,-2.6628,-2.6591,0.0,0.0,0.0,0.0,0.0,0.0,0.0,0.0,-0.0426,-0.1641,-0.1912,-0.246,-0.3672,-0.3876,-0.3954,-0.4075,-0.4086,-0.4151,-0.4224,-0.4693,-0.5124,-0.5467,-0.6102,-0.6685,-0.7092,-0.7414,-0.7641,-0.7811,-0.7884,-0.7961,-0.7988,-0.8237,-0.8775,-0.9657,-1.0925,-1.195,-1.2727,-1.2876,-1.2698,-1.2308,-1.2173,-1.1754,-1.1193,-1.0995,-1.1208,-1.1425,-1.0429,-1.0691,-1.1417,-1.0875,-1.0521,-1.0244,-0.9937,0.0,0.0,0.0,0.0,0.0,0.0,0.0,0.0,0.0,0.0,0.0,0.0,0.0,0.0,0.0,0.0,0.0,0.0,0.0,0.0,-1.643,-1.8439,-2.0777,-2.377,-2.4792,-2.5447,-2.5931,-2.6315,-2.6619,-2.7022,-2.7132,-2.7453,-2.8113,-2.8306,-2.8535,-2.8856,-2.8938,-2.8984,-2.8984,-2.8984,-2.8984,-2.8984,-2.8984,-2.8984,-2.8984,0.0,0.0,-2.8984,-2.8984,-2.8984,-2.8984,-2.8984,-2.8984,-2.8984,-2.8984,-2.8984,-2.8948,-2.8553,-2.7893,-2.7169,-2.7086,-2.6866,-2.6591,0.008,0.0016,0.0,0.0,0.0,0.0,0.0,0.0,-0.0426,-0.1641,-0.1857,-0.238,-0.3663,-0.3702,-0.374,-0.392,-0.3936,-0.4039,-0.4284,-0.4755,-0.5199,-0.5473,-0.6226,-0.6752,-0.7129,-0.7426,-0.7706,-0.7877,-0.7951,-0.7988,-0.7988,-0.7988,-0.8283,-0.8825,-0.9899,-1.0685,-1.117,-1.1707,-1.155,-1.1,-1.1781,-1.1583,-1.0879,-1.1541,-1.171,-1.1568,-1.1312,-1.1589,-1.2059,-1.1655,-1.1303,-1.102,-1.0617,-1.0033,-0.9372,0.0,0.0,0.0,0.0,0.0,0.0,0.0,0.0,0.0,0.0,0.0,0.0,0.0,0.0,-1.1679,0.0,0.0,-1.5805,-1.7306,-1.9823,-2.2153,-2.3659,-2.4801,-2.5729,-2.6252,-2.6463,-2.6747,-2.7141,-2.7352,-2.7728,-2.8342,-2.8581,-2.8773,-2.8975,-2.8984,-2.8984,-2.8984,-2.8984,-2.8984,-2.8984,-2.8984,-2.8984,-2.8984,-2.8984,-2.8984,-2.8984,-2.8984,-2.8984,-2.8984,-2.8984,-2.8984,-2.8984,-2.8984,-2.8984,-2.8966,-2.8764,-2.8315,-2.7765,-2.7545,-2.728,-2.6885,0.0166,0.0067,0.0017,0.0,0.0,0.0,0.0,0.0,-0.0401,-0.1488,-0.1698,-0.2226,-0.3416,-0.3425,-0.3463,-0.3728,-0.3791,-0.3975,-0.4308,-0.4758,-0.5144,-0.5537,-0.6174,-0.6716,-0.7205,-0.7406,-0.7647,-0.7942,-0.7942,-0.7889,-0.7839,-0.7889,-0.7942,-0.7992,-0.9118,-0.9608,-0.9657,-1.0538,-1.0391,-0.9735,-1.1287,-1.1315,-1.0559,-1.2116,-1.2229,-1.1595,-1.1902,-1.2111,-1.2198,-1.1892,-1.1627,-1.1333,-1.09,-1.0581,-1.019,-0.9281,-0.9095,0.0,0.0,0.0,0.0,0.0,0.0,0.0,0.0,0.0,-1.0857,-1.1522,-1.221,-1.2916,-1.3616,-1.5631,-1.7393,-1.8026,-2.0778,-2.3013,-2.3382,-2.4616,-2.5775,-2.6327,-2.6473,-2.671,-2.7242,-2.7638,-2.8024,-2.8471,-2.8801,-2.8984,-2.8984,-2.8984,-2.8984,-2.8984,-2.8984,-2.8984,-2.8984,-2.8984,-2.8984,-2.8984,-2.8984,-2.8984,-2.8984,-2.8984,-2.8984,-2.8984,-2.8984,-2.8984,-2.8984,-2.8984,-2.8984,-2.8984,-2.8984,-2.8792,-2.8462,-2.804,-2.7636,-2.7335,0.0,0.0168,0.0067,0.0017,0.0,0.0,0.0,0.0,-0.0248,-0.0919,-0.1367,-0.1876,-0.2568,-0.3001,-0.3335,-0.361,-0.3795,-0.4066,-0.4462,-0.4818,-0.5207,-0.5676,-0.597,-0.6503,-0.7205,-0.7214,-0.7356,-0.7646,-0.7646,-0.7543,-0.7288,-0.7543,-0.7646,-0.7693,-0.9019,-0.9608,-0.9608,-0.9706,-0.9706,-0.9674,-1.0326,-1.0533,-1.0559,-1.2116,-1.2619,-1.2413,-1.1394,-1.1419,-1.1886,-1.1627,-1.1351,-1.1148,-1.1087,-1.0888,-1.0569,-1.022,0.0,-0.9498,-0.9648,-0.9919,-1.028,-1.0773,-1.0743,-1.1069,0.0,0.0,-1.2379,-1.3387,-1.3851,-1.4177,-1.4521,-1.5401,-1.6833,-1.9184,-2.036,-2.1916,-2.4484,-2.5349,-2.5689,-2.5789,-2.6017,-2.659,-2.7627,-2.7794,-2.8086,-2.8865,-2.8957,-2.8984,-2.8984,-2.8984,-2.8984,-2.8984,-2.8984,-2.8984,-2.8984,-2.8984,-2.8984,-2.8984,-2.8984,-2.8984,-2.8984,-2.8984,-2.8984,-2.8984,-2.8984,-2.8984,-2.8984,-2.8984,-2.8984,-2.8984,-2.8984,-2.8957,-2.8865,-2.8471,-2.8058,-2.7702,0.0,0.0286,0.0185,0.0084,0.0034,0.0,0.0,0.0,-0.0208,-0.0829,-0.1067,-0.1432,-0.2022,-0.2515,-0.2955,-0.3336,-0.3651,-0.3982,-0.4346,-0.4776,-0.5164,-0.5529,-0.5904,-0.6337,-0.6782,-0.6885,-0.7164,-0.7596,-0.7596,-0.7643,-0.769,-0.7789,-0.7842,-0.7842,-0.8432,-0.8676,-0.8676,-0.8676,-0.8676,-0.8757,-0.9523,-0.9729,-0.9679,-1.0793,-1.1271,-1.1428,-1.1461,-1.1553,0.0,-1.1339,-1.1317,-1.1329,-1.1166,-1.1033,-1.0864,-1.0412,-1.0358,0.0,-1.0942,-1.1134,0.0,0.0,-1.1962,-1.2283,-1.3109,-1.326,-1.3411,-1.4008,-1.4594,-1.5028,-1.5149,-1.6212,-1.7554,0.0,-2.0704,-2.2395,-2.3679,-2.4614,-2.5133,-2.5133,-2.5242,-2.586,-2.7332,-2.7717,-2.8104,-2.892,-2.8984,-2.8984,-2.8984,-2.8984,-2.8984,-2.8984,-2.8984,-2.8984,-2.8984,-2.8984,-2.8984,-2.8984,-2.8984,-2.8984,-2.8984,-2.8984,-2.8984,-2.8984,-2.8984,-2.8984,-2.8984,-2.8984,-2.8984,-2.8984,-2.8984,-2.8984,-2.8966,-2.8792,-2.848,-2.8104,0.0,0.0353,0.0252,0.0118,0.005,0.0,0.0,0.0,-0.015,-0.0591,-0.0771,-0.1107,-0.1815,-0.2194,-0.2607,-0.3163,-0.3487,-0.3854,-0.4224,-0.467,-0.5037,-0.5347,-0.572,-0.6104,-0.645,-0.6599,-0.6873,-0.7338,-0.7338,-0.7456,-0.769,-0.7739,-0.7839,-0.7892,-0.7992,-0.7988,-0.7985,-0.7944,-0.7928,-0.8006,-0.8901,-0.9084,-0.8935,-0.9657,-0.996,-1.0074,-1.0913,-1.1142,-1.1014,-1.0737,-1.0779,-1.0924,-1.0791,-1.084,-1.0815,-1.0575,-1.0882,-1.1389,-1.1591,0.0,0.0,-1.2469,-1.2994,-1.3471,-1.3498,-1.3912,-1.4292,-1.4479,-1.4986,-1.5415,-1.5487,-1.6558,0.0,-1.837,-2.0332,-2.2063,-2.287,-2.3684,-2.4284,-2.4518,-2.4638,-2.526,-2.6715,-2.7362,-2.8001,-2.8764,-2.892,-2.8984,-2.8984,-2.8984,-2.8984,-2.8984,-2.8984,-2.8984,-2.8984,-2.8984,-2.8984,-2.8984,-2.8984,-2.8984,-2.8984,-2.8984,-2.8984,-2.8984,-2.8984,-2.8984,-2.8984,-2.8984,-2.8984,-2.8984,-2.8984,-2.8984,-2.8984,-2.8984,-2.8801,-2.8544,0.0,0.0,0.0252,0.0118,0.005,0.0,0.0,0.0,0.0,-0.002,-0.0429,-0.1068,-0.1986,-0.2107,-0.2408,-0.3147,-0.3335,-0.3615,-0.4059,-0.4498,-0.486,-0.5175,-0.5426,-0.5755,-0.6276,-0.6331,-0.6453,-0.6706,-0.6706,-0.677,-0.6842,-0.7089,-0.7341,-0.7646,-0.7892,-0.7988,-0.7978,-0.7882,-0.7818,-0.7887,-0.8548,-0.871,-0.8607,-0.9285,-0.9179,-0.8727,-0.9353,-0.9745,-0.9913,-0.9654,-0.957,-0.9618,-0.9865,-1.0112,0.0,-1.0942,-1.1473,0.0,0.0,0.0,-1.2747,-1.3031,-1.3682,-1.4334,-1.4606,-1.4877,-1.5071,-1.5083,-1.5101,-1.5197,-1.5451,-1.5775,-1.6497,-1.8227,-1.8796,-1.9949,-2.2645,-2.295,-2.3272,-2.4122,-2.4447,-2.4907,0.0,-2.6697,-2.7613,-2.8379,-2.8764,-2.8984,-2.8984,-2.8984,-2.8984,-2.8984,-2.8984,-2.8984,-2.8984,-2.8984,-2.8984,-2.8984,-2.8984,-2.8984,-2.8984,-2.8984,-2.8984,-2.8984,-2.8984,-2.8984,-2.8984,-2.8984,-2.8984,-2.8984,-2.8984,-2.8984,-2.8984,-2.8984,-2.8975,-2.8911,0.0,0.0,0.0,0.0248,0.011,0.0,0.0,0.0,0.0,0.0,-0.0128,0.0,0.0,0.0,0.0,0.0,-0.2859,-0.3231,-0.3907,-0.4333,-0.4695,-0.4939,-0.5181,-0.5503,-0.5874,-0.5882,-0.6136,-0.6572,-0.6572,-0.6691,-0.6882,-0.6975,-0.7026,-0.7123,-0.7219,-0.7267,-0.7263,-0.7213,-0.7244,-0.734,-0.7419,-0.7468,-0.7506,-0.7522,-0.7496,-0.7463,0.0,-0.7981,-0.8782,-0.8538,-0.8782,-0.9251,-0.9342,0.0,0.0,-1.0611,-1.12,-1.17,0.0,0.0,-1.335,-1.3791,-1.4238,-1.4648,-1.4914,-1.5046,-1.5107,-1.5107,-1.5107,-1.5137,-1.5221,-1.5451,-1.596,-1.6867,-1.7955,-1.9088,-2.0337,-2.1709,-2.2573,-2.2627,-2.3634,0.0,0.0,0.0,0.0,-2.8015,-2.839,-2.8591,-2.8687,-2.8865,-2.8984,-2.8984,-2.8984,-2.8984,-2.8984,-2.8984,-2.8984,-2.8984,-2.8984,-2.8984,-2.8984,-2.8984,-2.8984,-2.8984,-2.8984,-2.8984,-2.8984,-2.8984,-2.8984,-2.8984,-2.8984,-2.8984,-2.8984,-2.8984,-2.8984,-2.8966,0.0,0.0,0.0,0.0,0.0,0.0,0.0,0.0,0.0,0.0,0.0,0.0,0.0,0.0,0.0,0.0,0.0,0.0,-0.349,-0.4006,-0.4387,-0.4596,-0.4828,-0.5061,-0.5341,-0.5347,-0.5568,-0.6028,-0.6028,-0.6235,-0.6608,-0.6608,-0.6651,-0.6743,-0.6743,-0.6743,-0.674,-0.6694,-0.6722,-0.6814,-0.6583,-0.6474,-0.6417,-0.6185,-0.6092,0.0,-0.5785,-0.634,-0.7284,-0.7522,-0.8217,-0.8975,-0.9065,-0.9612,-1.0322,-1.0827,-1.1417,-1.2085,-1.2916,-1.3387,-1.3803,-1.4431,-1.4793,-1.5016,-1.5089,-1.5179,-1.5167,-1.4877,-1.4817,-1.4787,-1.4696,-1.4817,-1.5197,-1.6012,-1.6926,-1.7962,-1.9154,-2.0359,-2.1191,-2.137,-2.2642,0.0,0.0,0.0,0.0,-2.745,-2.7966,-2.8305,-2.8507,-2.8696,-2.8865,-2.8984,-2.8984,-2.8984,-2.8984,-2.8984,-2.8984,-2.8984,-2.8984,-2.8984,-2.8984,-2.8984,-2.8984,-2.8984,-2.8984,-2.8984,-2.8984,-2.8984,-2.8984,-2.8984,-2.8984,-2.8984,-2.8984,-2.8984,-2.8984,-2.8984,0.0,0.0,0.0,0.0,0.0,0.0,0.0,0.0,0.0,0.0,0.0,0.0,0.0,0.0,0.0,0.0,0.0,0.0,-0.2864,-0.3497,-0.3969,-0.427,-0.4424,-0.4547,-0.4676,-0.4679,-0.4851,-0.5159,-0.5159,-0.546,-0.6025,-0.6025,-0.6157,-0.6424,-0.6424,-0.643,-0.6427,-0.6297,-0.6248,-0.6227,-0.5944,-0.5682,-0.547,-0.5332,-0.5035,-0.4682,-0.4693,-0.4965,-0.5473,-0.67,0.0,0.0,0.0,0.0,0.0,-1.1519,-1.2125,-1.2916,-1.3694,-1.3936,-1.4153,-1.4932,-1.5306,-1.5421,-1.5185,-1.5288,-1.5215,-1.4437,-1.4256,-1.4153,0.0,0.0,-1.431,-1.5602,-1.5855,-1.6689,-1.8851,-1.8971,-1.9251,0.0,0.0,0.0,0.0,0.0,0.0,-2.6743,0.0,-2.8122,-2.8457,-2.8466,-2.8636,-2.8984,-2.8984,-2.8984,-2.8984,-2.8984,-2.8984,-2.8984,-2.8984,-2.8984,-2.8984,-2.8984,-2.8984,-2.8984,-2.8984,-2.8984,-2.8984,-2.8984,-2.8984,-2.8984,-2.8984,-2.8984,-2.8984,-2.8984,-2.8984,-2.8984,0.0,0.0,0.0,0.0,0.0,0.0,0.0,0.0,0.0,0.0,0.0,0.0,0.0,0.0,0.0,0.0,0.0,0.0,-0.2696,-0.2991,-0.3415,-0.3989,-0.4143,-0.4306,-0.4547,-0.455,-0.4643,-0.4827,-0.4827,-0.4911,-0.5043,-0.5043,-0.5129,-0.5218,-0.5218,-0.5269,-0.539,-0.5227,-0.5227,-0.5323,-0.5164,-0.511,-0.5113,-0.5021,-0.4819,-0.457,-0.4659,-0.4883,0.0,0.0,0.0,0.0,0.0,0.0,-1.1335,0.0,0.0,-1.3393,-1.3797,-1.4346,-1.4896,-1.53,-1.5306,-1.524,-1.5366,-1.4986,-1.4491,-1.4087,-1.3694,-1.3278,0.0,0.0,0.0,-1.4582,-1.5372,0.0,-1.7463,-1.8732,0.0,0.0,0.0,-2.2022,-2.1916,-2.3669,0.0,0.0,-2.6626,-2.7599,-2.7753,-2.8208,-2.8526,-2.8636,-2.8865,-2.8984,-2.8984,-2.8984,-2.8984,-2.8984,-2.8984,-2.8984,-2.8984,-2.8984,-2.8984,-2.8984,-2.8984,-2.8984,-2.8984,-2.8984,-2.8984,-2.8984,-2.8984,-2.8984,-2.8984,-2.8984,-2.8984,-2.8984,0.0,0.0,0.0,0.0,0.0,0.0,0.0,0.0,0.0,0.0,0.0,0.0,0.0,0.0,0.0,0.0,0.0,0.0,0.0,-0.2482,-0.2983,-0.336,-0.3694,-0.3944,-0.4109,-0.4161,-0.4249,-0.4338,-0.4424,-0.4482,-0.4534,-0.4534,-0.4534,-0.4564,-0.4564,-0.4637,-0.4697,-0.4629,-0.464,0.0,0.0,-0.4495,-0.452,-0.4516,-0.4369,-0.4215,-0.4426,0.0,0.0,0.0,0.0,-1.0515,-1.1044,-1.1549,-1.2107,-1.2674,0.0,-1.3942,-1.4328,-1.4847,-1.5318,-1.5463,-1.539,-1.5197,-1.4871,-1.4449,-1.3918,-1.3188,-1.2801,0.0,0.0,0.0,0.0,0.0,0.0,0.0,-1.696,-1.8121,-1.8818,0.0,-2.0267,0.0,-2.111,-2.3293,-2.477,0.0,-2.6303,-2.7321,-2.7504,-2.7831,-2.8148,-2.8268,-2.8627,-2.8865,-2.8984,-2.8984,-2.8984,-2.8984,-2.8984,-2.8984,-2.8984,-2.8984,-2.8984,-2.8984,0.0,-2.8984,-2.8984,-2.8984,-2.8984,-2.8984,-2.8984,-2.8984,-2.8984,-2.8984,-2.8984,-2.8984,0.0,0.0,0.0,0.0,0.0,0.0,0.0,0.0,0.0,0.0,0.0,0.0,0.0,0.0,0.0,0.0,0.0,0.0,0.0,0.0,-0.2625,-0.2708,-0.3272,-0.3613,-0.3613,-0.3709,-0.381,-0.3857,0.0,-0.4102,-0.4205,-0.4205,-0.4213,-0.4227,-0.4227,-0.4238,-0.4251,-0.4235,-0.4227,-0.4219,-0.4096,-0.3951,-0.3876,0.0,-0.3866,0.0,0.0,0.0,0.0,0.0,-0.9914,-1.1419,-1.1922,-1.2638,-1.329,-1.3586,-1.402,-1.4515,-1.5022,-1.5354,-1.5541,-1.5511,-1.5475,-1.5179,-1.4141,-1.3827,-1.3387,-1.2131,0.0,-1.1606,-1.1099,0.0,-1.2602,-1.3634,0.0,-1.5819,-1.6893,-1.7521,-1.7883,-1.7925,-1.943,-2.0522,-2.0522,-2.2977,-2.4571,-2.4571,-2.5823,-2.6805,-2.7401,-2.7461,-2.7642,-2.802,-2.8337,-2.8636,-2.8925,-2.8984,-2.8984,-2.8984,-2.8984,-2.8984,-2.8984,-2.8984,-2.8984,-2.8984,-2.8984,0.0,-2.8984,-2.8984,-2.8984,-2.8984,-2.8984,-2.8984,-2.8984,-2.8984,-2.8984,-2.8984,0.0,0.0,0.0,0.0,0.0,0.0,0.0,0.0,0.0,0.0,0.0074,0.0,0.0,0.0,0.0,0.0,0.0,0.0,0.0,0.0,0.0,-0.2681,-0.3272,-0.3613,-0.3613,0.0,0.0,0.0,0.0,0.0,-0.3708,-0.3708,-0.3788,-0.3879,-0.3879,-0.3903,-0.3959,-0.392,-0.3879,-0.3868,-0.3753,-0.3664,-0.3642,-0.368,0.0,0.0,0.0,0.0,0.0,0.0,-1.0329,-1.2524,-1.3067,-1.3483,-1.387,-1.4364,-1.4727,-1.5034,-1.5348,-1.5626,-1.5771,-1.5553,-1.5336,-1.495,-1.4099,-1.3393,0.0,0.0,0.0,-1.0797,-1.0485,-1.1266,0.0,-1.3121,0.0,0.0,0.0,0.0,-1.7962,0.0,0.0,0.0,0.0,0.0,0.0,0.0,0.0,-2.4756,-2.7064,-2.7409,-2.7642,-2.802,-2.8337,-2.8517,-2.8576,-2.8865,-2.8984,-2.8984,-2.8984,-2.8984,-2.8984,-2.8984,-2.8984,-2.8984,-2.8984,0.0,-2.8984,-2.8984,-2.8984,-2.8984,-2.8984,-2.8984,-2.8984,-2.8984,-2.8984,-2.8984,0.0,0.0,0.0,0.0,0.0,0.0,0.0,0.0516,0.0476,0.0371,0.0217,0.0081,0.0,0.0,0.0,0.0,0.0,0.0,0.0,0.0,0.0,0.0,0.0,-0.3613,0.0,0.0,0.0,0.0,0.0,0.0,0.0,0.0,0.0,0.0,0.0,0.0,0.0,0.0,-0.3695,0.0,0.0,0.0,0.0,0.0,0.0,0.0,0.0,0.0,0.0,0.0,-0.9922,-1.2147,-1.3168,-1.3791,-1.4159,-1.4425,-1.4787,-1.5137,-1.5264,-1.559,-1.5795,-1.5396,-1.5101,-1.4582,-1.3357,0.0,0.0,0.0,0.0,-0.9991,-0.9721,0.0,0.0,0.0,0.0,0.0,0.0,0.0,0.0,0.0,0.0,0.0,0.0,0.0,0.0,0.0,0.0,-2.3946,-2.5945,-2.6865,-2.7418,-2.7711,-2.808,-2.8328,-2.8526,-2.8806,-2.8984,-2.8984,-2.8984,-2.8984,-2.8984,-2.8984,-2.8984,-2.8984,-2.8984,0.0,-2.8984,-2.8984,-2.8984,-2.8984,-2.8984,-2.8984,-2.8984,-2.8984,-2.8984,-2.8984,0.0,0.0,0.0,0.0,0.0,0.0,0.0,0.066,0.0628,0.0562,0.0408,0.0259,0.0079,0.0026,0.0,0.0,0.0,0.0,0.0,0.0,0.0,0.0,0.0,0.0,0.0,0.0,0.0,0.0,0.0,0.0,0.0,0.0,0.0,0.0,0.0,0.0,0.0,0.0,0.0,0.0,0.0,0.0,0.0,0.0,0.0,0.0,0.0,0.0,0.0,0.0,-0.8895,-1.0654,-1.2161,-1.3369,-1.4226,-1.428,-1.4684,-1.5119,-1.5179,-1.5535,-1.5765,-1.524,-1.4914,-1.4292,-1.2681,-1.182,0.0,0.0,-0.9468,-0.9378,-0.9215,0.0,0.0,0.0,0.0,0.0,0.0,0.0,0.0,0.0,0.0,0.0,0.0,0.0,0.0,0.0,0.0,0.0,-2.501,-2.6075,-2.6874,-2.7401,-2.7711,-2.802,-2.8268,-2.8627,-2.8806,-2.8806,-2.8865,-2.8865,-2.8925,-2.8984,-2.8984,-2.8984,-2.8984,0.0,0.0,-2.8984,-2.8984,-2.8984,-2.8984,-2.8984,-2.8984,-2.8984,-2.8984,-2.8984,0.0,0.0,0.0,0.0,0.0,0.0,0.0,0.083,0.0815,0.0698,0.0724,0.0637,0.0321,0.0116,0.0,0.0,0.0,0.0,0.0,0.0,0.0,0.0,0.0,0.0,0.0,0.0,0.0,0.0,0.0,0.0,0.0,0.0,0.0,0.0,0.0,0.0,0.0,0.0,0.0,0.0,0.0,0.0,0.0,0.0,0.0,0.0,0.0,0.0,0.0,0.0,0.0,-0.7757,-0.9276,-1.1688,-1.3984,-1.4226,0.0,0.0,-1.5396,-1.5674,-1.5765,-1.524,-1.4914,-1.4292,-1.2681,0.0,0.0,-0.9739,-0.9312,-0.9203,-0.9438,-0.9961,0.0,0.0,0.0,0.0,0.0,0.0,0.0,0.0,0.0,0.0,0.0,0.0,0.0,0.0,0.0,0.0,-2.4941,-2.5194,-2.5876,-2.7073,-2.7409,-2.7581,-2.7581,-2.7891,-2.808,-2.808,-2.8397,-2.8576,-2.8585,-2.8865,-2.8984,-2.8984,-2.8984,0.0,0.0,-2.8984,-2.8984,-2.8984,-2.8984,-2.8984,-2.8984,-2.8984,-2.8984,-2.8984,0.0,0.0,0.0,0.0,0.0,0.0,0.0848,0.0855,0.086,0.0868,0.0796,0.0707,0.0607,0.0364,0.0119,0.0,0.0,0.0,0.0,0.0,0.0,0.0,0.0,0.0,0.0,0.0,0.0,0.0,0.0,0.0,0.0,0.0,0.0,0.0,0.0,0.0,0.0,0.0,0.0,0.0,0.0,0.0,0.0,0.0,0.0,0.0,0.0,0.0,0.0,0.0,0.0,0.0,-0.7923,-0.9519,0.0,0.0,-1.3291,-1.3834,-1.4757,-1.5215,-1.533,-1.4962,-1.4552,-1.3851,-1.2409,0.0,-1.0539,-0.948,-0.9173,-0.9131,-0.9239,-0.9703,-1.0334,-1.122,-1.1667,-1.2475,0.0,0.0,0.0,0.0,0.0,0.0,0.0,0.0,0.0,0.0,0.0,0.0,-2.2577,-2.4193,-2.5692,-2.7073,-2.7349,-2.7521,-2.7521,-2.7831,-2.802,-2.802,-2.8148,-2.8268,-2.8526,-2.8636,-2.8806,-2.8984,-2.8984,0.0,0.0,-2.8984,-2.8984,-2.8984,-2.8984,-2.8984,-2.8984,-2.8984,-2.8984,-2.8984,0.0,0.0,0.0,0.0,0.0,0.0746,0.0853,0.0854,0.0857,0.0961,0.0859,0.0803,0.0803,0.0582,0.0329,0.0114,0.0028,0.0,0.0,0.0,0.0,0.0,0.0,0.0,0.0,0.0,0.0,0.0,-0.3662,0.0,0.0,0.0,0.0,0.0,0.0,0.0,0.0,0.0,0.0,0.0,0.0,0.0,0.0,0.0,0.0,0.0,0.0,0.0,0.0,0.0,0.0,0.0,0.0,0.0,0.0,0.0,-1.2204,-1.2905,-1.4249,-1.4847,-1.5046,-1.4781,-1.431,-1.3556,0.0,0.0,-1.0382,-0.9318,-0.9095,-0.9095,-0.9095,-0.948,-0.9985,-1.0587,-1.0972,-1.1769,-1.3302,0.0,0.0,0.0,0.0,0.0,0.0,0.0,0.0,0.0,0.0,0.0,0.0,-2.2882,-2.4695,-2.6449,-2.7056,-2.7409,-2.7409,-2.7599,-2.7728,-2.7728,-2.784,-2.796,-2.8208,-2.8337,-2.8507,-2.8677,-2.8677,0.0,0.0,-2.8677,-2.8677,-2.8677,-2.8677,-2.8677,-2.8737,-2.8806,-2.8865,-2.8865,0.0,0.0,0.0,0.0,0.0,0.0,0.0798,0.0858,0.0901,0.0906,0.0969,0.0957,0.0803,0.0751,0.0589,0.0324,0.0114,0.0,0.0,0.0,0.0,0.0,0.0,0.0,0.0,0.0,-0.3668,-0.3809,-0.3809,0.0,0.0,0.0,0.0,0.0,0.0,0.0,0.0,0.0,0.0,0.0,0.0,0.0,0.0,0.0,0.0,0.0,0.0,0.0,0.0,0.0,0.0,0.0,0.0,0.0,0.0,0.0,-1.1766,-1.2779,-1.3963,-1.4696,-1.5046,-1.4781,-1.431,-1.3556,0.0,-1.1298,-1.0382,-0.9318,-0.9095,-0.9095,-0.9095,-0.933,-0.9775,-1.0557,-1.1134,-1.1952,-1.3326,0.0,0.0,0.0,0.0,0.0,0.0,0.0,0.0,0.0,0.0,0.0,0.0,-2.1139,-2.2389,-2.501,-2.638,-2.7073,-2.7073,-2.7133,-2.7133,-2.7133,-2.7409,-2.7521,-2.7521,-2.7831,-2.802,0.0,0.0,0.0,0.0,-2.802,-2.802,-2.802,-2.802,-2.802,-2.802,-2.8397,-2.8526,-2.8576,0.0,0.0,0.0,0.0,0.0,0.0,0.0,0.0815,0.085,0.0903,0.0921,0.0935,0.0925,0.0781,0.0678,0.0589,0.0315,0.0,0.0,0.0,0.0,0.0,0.0,0.0,0.0,0.0,-0.3377,-0.3876,-0.396,-0.4023,0.0,0.0,0.0,0.0,0.0,0.0,0.0,0.0,0.0,0.0,0.0,0.0,0.0,0.0,0.0,0.0,0.0,0.0,0.0,0.0,0.0,0.0,0.0,0.0,0.0,-0.7484,0.0,0.0,-1.1091,-1.1618,-1.1852,-1.204,-1.1992,-1.1715,-1.1208,-1.0863,-1.0436,-0.9564,-0.9384,-0.9384,-0.9384,-0.9456,-0.9829,-1.0791,-1.1135,0.0,0.0,0.0,0.0,0.0,0.0,0.0,0.0,0.0,0.0,0.0,0.0,0.0,0.0,-2.0576,-2.2327,-2.501,-2.5509,-2.6197,-2.7073,-2.7073,-2.7073,-2.7073,-2.7194,-2.7289,-2.7521,-2.7581,-2.7771,0.0,0.0,0.0,0.0,-2.802,-2.802,-2.802,-2.802,-2.802,-2.802,-2.814,-2.8148,-2.8148,0.0,0.0,0.0,0.0,0.0,0.0,0.0,0.0791,0.0819,0.0898,0.0909,0.0925,0.0967,0.0856,0.0756,0.0706,0.0515,0.0,0.0,0.0,0.0,0.0,0.0,0.0,-0.2347,-0.2651,-0.32,-0.3973,-0.4126,-0.4232,-0.4319,-0.4319,-0.4191,0.0,0.0,0.0,0.0,0.0,0.0,0.0,0.0,0.0,0.0,0.0,0.0,0.0,0.0,0.0,0.0,0.0,0.0,0.0,0.0,0.0,0.0,0.0,-0.6599,0.0,0.0,-0.9952,-1.0176,-1.0407,-1.0637,-1.0679,-1.04,-1.0426,-1.0346,-0.966,-0.9516,-0.9516,-0.9516,-0.9516,-0.9793,-1.0641,-1.0979,0.0,0.0,0.0,0.0,0.0,0.0,0.0,0.0,0.0,0.0,0.0,0.0,0.0,0.0,-1.989,-2.1328,-2.3512,-2.407,-2.4756,-2.557,-2.6067,-2.6319,-2.6319,-2.6882,-2.7185,-2.7349,-2.7349,-2.7478,0.0,0.0,0.0,0.0,-2.7668,-2.7668,-2.7668,-2.7668,-2.7668,-2.7668,-2.7771,-2.7831,-2.7831,0.0,0.0,0.0,0.0,0.0,0.0,0.0,0.0789,0.0835,0.0897,0.0905,0.0902,0.0904,0.0914,0.0852,0.0732,0.0,0.0,0.0,0.0,0.0,0.0,0.0,0.0,-0.179,-0.2357,-0.3125,-0.4097,-0.427,-0.4455,-0.4717,-0.4723,-0.4591,-0.4303,-0.4035,0.0,0.0,0.0,0.0,0.0,0.0,0.0,0.0,0.0,0.0,0.0,0.0,0.0,0.0,0.0,0.0,0.0,0.0,0.0,0.0,0.0,0.0,0.0,0.0,-0.9281,0.0,0.0,-0.9925,-1.0166,-0.9707,-0.9944,0.0,-0.9564,-0.9474,-0.9498,-0.9534,-0.9514,-0.9733,-1.0316,-1.0864,0.0,0.0,0.0,0.0,0.0,0.0,0.0,0.0,0.0,0.0,0.0,0.0,0.0,0.0,-1.9078,-1.9641,-2.0886,-2.2201,-2.2889,-2.3076,-2.4324,-2.501,-2.5133,-2.638,-2.7012,-2.7073,-2.7073,-2.7073,0.0,0.0,0.0,0.0,-2.7073,-2.7073,-2.7073,-2.7073,-2.7073,-2.7133,-2.7409,-2.7461,-2.7521,0.0,0.0,0.0,0.0,0.0,0.0,0.0,0.0,0.0,0.0,0.0905,0.0893,0.0904,0.0902,0.09,0.0,0.0,0.0,0.0,0.0,0.0,0.0,0.0,0.0,-0.179,-0.2082,-0.2892,-0.4257,-0.4526,-0.4784,-0.4934,-0.5021,-0.4873,-0.4457,-0.4278,-0.3993,0.0,0.0,0.0,0.0,0.0,0.0,0.0,0.0,0.0,0.0,0.0,0.0,0.0,0.0,0.0,0.0,0.0,0.0,0.0,0.0,-0.473,-0.5032,-0.5745,0.0,-0.6545,-0.6954,-0.7662,-0.8314,0.0,-0.9102,-0.9546,-0.9011,0.0,0.0,-0.9739,-0.9817,-1.0184,0.0,0.0,0.0,0.0,0.0,0.0,0.0,0.0,0.0,0.0,0.0,0.0,0.0,0.0,0.0,0.0,-1.9078,-1.9264,-1.9577,-1.989,-2.1012,-2.3076,-2.3387,-2.407,-2.5071,-2.5448,-2.6136,-2.7073,-2.7073,-2.7073,0.0,0.0,0.0,-2.7073,-2.7073,-2.7073,-2.7073,-2.7073,-2.7073,-2.7133,-2.7194,-2.7185,-2.7185,0.0,0.0,0.0,0.0,0.0,0.0,0.0,0.0,0.0,0.0,0.0,0.0891,0.0894,0.0898,0.0,0.0,0.0,0.0,0.0,0.0,0.0,0.0,0.0,-0.056,-0.1762,-0.1968,-0.2781,-0.43,-0.4602,-0.4868,-0.5097,-0.5159,-0.4991,-0.4624,-0.4284,-0.3988,0.0,0.0,0.0,0.0,0.0,0.0,0.0,0.0,0.0,0.0,0.0,-0.3687,0.0,-0.4029,-0.4002,-0.3953,0.0,0.0,0.0,0.0,-0.4472,-0.4634,-0.4687,-0.5081,-0.5548,-0.5859,-0.6852,-0.7803,-0.7958,0.0,0.0,0.0,0.0,0.0,0.0,0.0,0.0,0.0,0.0,0.0,0.0,0.0,0.0,0.0,0.0,0.0,0.0,0.0,0.0,0.0,0.0,0.0,0.0,-1.9078,-1.9078,-1.9078,-1.9078,-1.9826,-2.1265,-2.1888,-2.2577,-2.3263,-2.3884,-2.4571,-2.5256,-2.5256,-2.557,0.0,0.0,0.0,-2.7073,-2.7073,-2.7073,-2.7073,-2.7073,-2.7073,-2.7073,-2.7073,-2.7073,-2.7073,0.0,0.0,0.0,0.0,0.0,0.0,0.0,0.0,0.0,0.0,0.0,0.0,0.0,0.0,0.0,0.0,0.0,0.0,0.0,0.0,0.0,0.0,0.0028,-0.0563,-0.1816,-0.1955,-0.2787,-0.4325,-0.4618,-0.4909,-0.5186,-0.5243,-0.5113,-0.4774,-0.4226,-0.3954,0.0,0.0,0.0,0.0,0.0,0.0,0.0,0.0,0.0,0.0,0.0,0.0,0.0,-0.4037,-0.4041,-0.3983,-0.4197,0.0,0.0,0.0,0.0,0.0,-0.4573,-0.5115,-0.5599,-0.5511,-0.6718,-0.791,-0.785,0.0,0.0,0.0,0.0,0.0,0.0,0.0,0.0,0.0,0.0,0.0,0.0,0.0,0.0,0.0,0.0,0.0,0.0,0.0,0.0,0.0,0.0,0.0,0.0,-1.9078,-1.9078,-1.9078,-1.9078,-1.9078,-1.9078,-2.0202,-2.0893,-2.1139,-2.2264,-2.2889,-2.3076,-2.3076,-2.3698,-2.4818,0.0,0.0,-2.6761,-2.6761,-2.6943,-2.7073,-2.7073,-2.7073,-2.7073,-2.7073,-2.7073,-2.7064,0.0,0.0,0.0,0.0,0.0,0.0,0.0,0.0,0.0,0.0,0.0,0.0,0.0,0.0,0.0,0.0,0.0,0.0,0.0,0.0,0.0,0.0196,0.0168,-0.0517,-0.2027,-0.207,-0.287,-0.4479,-0.4792,-0.504,-0.5195,-0.5504,-0.5316,-0.4785,-0.452,-0.4219,-0.39,-0.3868,0.0,0.0,0.0,0.0,0.0,0.0,0.0,0.0,0.0,0.0,0.0,-0.3721,-0.3871,-0.4037,-0.379,0.0,0.0,0.0,0.0,0.0,-0.4867,-0.5389,-0.5647,-0.5145,-0.6543,-0.795,-0.7559,0.0,0.0,0.0,0.0,0.0,0.0,0.0,0.0,0.0,0.0,0.0,0.0,0.0,0.0,0.0,0.0,0.0,0.0,0.0,0.0,0.0,0.0,0.0,0.0,-1.9078,-1.9078,-1.9078,-1.9078,-1.9078,-1.9078,-1.9328,-1.9954,-2.1076,-2.1328,-2.2013,-2.3076,-2.3076,-2.3201,-2.3387,0.0,-2.4193,-2.5386,-2.5386,-2.6075,-2.7073,-2.7073,-2.7073,-2.7073,-2.7073,-2.7073,-2.703,0.0,0.0,0.0,0.0,0.0,0.0,0.0,0.0,0.0,0.0,0.0,0.0,0.0,0.0,0.0,0.0,0.0,0.0,0.0,0.0,0.0656,0.0325,0.032,-0.0441,-0.2057,-0.2256,-0.3073,-0.4667,-0.5029,-0.5268,-0.5382,-0.5316,-0.5129,-0.4722,-0.4417,-0.4224,-0.4092,-0.3959,0.0,0.0,0.0,0.0,0.0,0.0,0.0,0.0,0.0,0.0,0.0,0.0,-0.3827,-0.3949,-0.3778,0.0,0.0,0.0,0.0,0.0,-0.4542,-0.5098,-0.5634,-0.5868,-0.7303,-0.8765,-0.9175,-0.9949,0.0,0.0,0.0,0.0,0.0,0.0,0.0,0.0,0.0,0.0,0.0,0.0,0.0,0.0,0.0,0.0,0.0,0.0,0.0,0.0,0.0,0.0,0.0,0.0,-1.9078,-1.9078,-1.9078,-1.9078,-1.9078,-1.9078,-1.9392,-2.0017,-2.0017,-2.0329,-2.0949,-2.0949,-2.1328,-2.2013,0.0,-2.2764,-2.4008,-2.4008,-2.4386,-2.501,-2.5762,-2.6006,-2.6136,-2.6822,-2.6936,-2.673,0.0,0.0,0.0,0.0,0.0,0.0,0.0,0.0,0.0,0.0,0.0,0.0,0.0,0.0,0.0,0.0,0.0,0.0,0.0,0.087,0.072,0.0427,0.0363,-0.0462,-0.2197,-0.2419,-0.3294,-0.4958,-0.5262,-0.5488,-0.558,-0.5268,-0.4969,-0.4761,-0.439,-0.4265,-0.4287,-0.407,-0.4027,0.0,0.0,0.0,0.0,0.0,0.0,0.0,0.0,0.0,0.0,0.0,0.0,0.0,0.0,0.0,0.0,-0.3946,-0.401,-0.4179,-0.4362,-0.4854,-0.5582,-0.6667,0.0,-0.9252,-1.061,-1.1061,0.0,0.0,0.0,0.0,0.0,0.0,0.0,0.0,0.0,0.0,0.0,0.0,0.0,0.0,0.0,0.0,0.0,0.0,0.0,0.0,0.0,0.0,0.0,0.0,-1.9078,-1.9078,-1.9078,-1.9078,-1.9078,-1.9078,-1.9078,-1.9078,-1.9078,-1.9078,-1.9078,-1.9078,-1.9641,-2.0639,-2.0639,-2.1391,-2.264,-2.264,-2.2827,-2.3201,-2.4263,-2.4586,-2.4638,-2.57,-2.5832,-2.55,0.0,0.0,0.0,0.0,0.0,0.0,0.0,0.0,0.0,0.0,0.0,0.0,0.0,0.0,0.0,0.0,0.0,0.0,0.0,0.0785,0.0627,0.0413,0.0281,-0.0673,-0.2598,-0.2537,-0.3456,-0.5372,-0.5427,-0.561,-0.5869,-0.551,-0.5216,-0.498,-0.4764,-0.4534,-0.43,-0.4281,-0.4213,-0.4075,0.0,0.0,0.0,0.0,0.0,0.0,0.0,0.0,0.0,0.0,0.0,0.0,0.0,0.0,-0.3964,-0.413,-0.41,-0.4171,-0.4855,-0.5091,-0.5484,-0.6981,-0.7859,-0.8788,-1.0498,-1.1202,0.0,-1.2469,0.0,0.0,0.0,0.0,0.0,0.0,0.0,0.0,0.0,0.0,0.0,0.0,0.0,0.0,0.0,0.0,0.0,0.0,0.0,0.0,0.0,0.0,0.0,-1.9078,-1.9078,-1.9078,-1.9078,-1.9078,-1.9078,-1.9078,-1.9078,-1.9078,-1.9078,-1.9078,-1.9136,-1.9264,-1.9264,-2.0017,-2.1265,-2.1265,-2.195,-2.3139,-2.3201,-2.3079,-2.2874,-2.3004,-2.2856,-2.2535,0.0,0.0,0.0,0.0,0.0,0.0,0.0,0.0,0.0,0.0,0.0,0.0,0.0,0.0,0.0,0.0,0.0,0.0,0.0,0.0617,0.0431,0.0272,0.0217,-0.046,-0.1871,-0.1844,-0.2451,-0.3714,-0.4318,-0.496,-0.5632,-0.5238,-0.4947,-0.4818,-0.4575,-0.4457,-0.4435,-0.433,-0.4314,-0.4314,-0.4011,0.0,0.0,0.0,0.0,0.0,0.0,0.0,0.0,0.0,-0.3746,-0.3849,-0.3748,-0.3868,-0.402,-0.3958,-0.3968,-0.408,-0.4439,-0.489,-0.5593,-0.696,-0.812,0.0,0.0,-1.2082,-1.2897,-1.3568,-1.3694,0.0,0.0,0.0,0.0,0.0,0.0,0.0,0.0,0.0,0.0,0.0,0.0,0.0,0.0,0.0,0.0,0.0,0.0,0.0,0.0,0.0,0.0,-1.8831,-1.8831,-1.8909,-1.9078,-1.9078,-1.9078,-1.9078,-1.9078,-1.9078,-1.9078,-1.9078,-1.9078,-1.9078,-1.9078,-1.9386,-1.989,-1.989,-2.0036,-2.0421,-2.1101,-2.1811,-2.2428,-2.2428,-2.2215,-2.1914,0.0,0.0,0.0,0.0,0.0,0.0,0.0,0.0,0.0,0.0,0.0,0.0,0.0,0.0,0.0,0.0,0.0,0.0,0.0701,0.0477,0.0288,0.0213,0.0154,-0.0193,-0.0945,-0.0953,-0.1726,-0.3247,-0.418,-0.49,-0.5443,-0.5041,-0.4847,-0.4794,-0.4553,-0.4477,-0.4575,-0.442,-0.4398,-0.4476,-0.4121,-0.3938,0.0,0.0,0.0,0.0,0.0,0.0,0.0,0.0,-0.3721,-0.3787,-0.3767,-0.3895,-0.4003,-0.3936,-0.4046,-0.4224,-0.4303,-0.4845,-0.563,-0.6574,0.0,0.0,-1.0961,-1.2466,-1.3688,-1.4304,-1.4431,0.0,0.0,0.0,0.0,0.0,0.0,0.0,0.0,0.0,0.0,0.0,0.0,0.0,0.0,0.0,0.0,0.0,0.0,0.0,0.0,0.0,0.0,0.0,-1.8559,-1.865,-1.8831,-1.8831,-1.8831,-1.8831,-1.8831,-1.8915,-1.9078,-1.9078,-1.903,-1.8951,-1.8951,-1.8909,-1.8831,-1.8831,-1.8722,-1.8665,-1.9385,-2.0154,-2.09,-2.09,-2.0698,-2.0368,0.0,0.0,0.0,0.0,0.0,0.0,0.0,0.0,0.0,0.0,0.0,0.0,0.0,0.0,0.0,0.0,0.0,0.0,0.0701,0.0393,0.0199,0.0206,0.0061,0.0,0.0,0.0,-0.1488,-0.449,-0.5305,-0.5605,-0.5402,-0.5124,-0.5015,-0.5002,-0.4799,-0.4719,-0.4777,-0.4572,-0.4503,-0.4484,-0.4213,-0.4013,0.0,0.0,0.0,0.0,0.0,0.0,0.0,0.0,-0.3706,-0.3648,-0.4001,-0.4,-0.393,-0.4048,-0.433,-0.4599,-0.4595,-0.499,-0.5485,0.0,0.0,0.0,-1.0156,-1.2051,-1.3709,-1.4564,0.0,0.0,0.0,0.0,0.0,0.0,0.0,0.0,0.0,0.0,0.0,0.0,0.0,0.0,0.0,0.0,0.0,0.0,0.0,0.0,0.0,0.0,0.0,0.0,-1.8294,-1.8294,-1.8294,-1.8294,-1.8294,-1.8294,-1.8294,-1.8565,-1.9066,-1.9066,-1.8927,-1.868,-1.868,-1.8535,-1.8294,-1.8294,-1.8294,-1.8294,-1.8287,-1.8118,-1.7871,-1.7871,-1.7702,-1.7485,0.0,0.0,0.0,0.0,0.0,0.0,0.0,0.0,0.0,0.0,0.0,0.0,0.0,0.0,0.0,0.0,0.0,0.0,0.0701,0.0393,0.0197,0.0199,0.006,0.0,0.0,-0.1163,-0.2212,-0.3112,-0.3964,-0.4564,-0.4991,-0.4882,-0.4798,-0.4637,-0.4735,-0.4705,-0.4575,-0.4536,-0.4503,-0.4484,-0.4213,-0.4013,0.0,0.0,0.0,0.0,0.0,0.0,0.0,0.0,0.0,0.0,-0.3735,-0.395,-0.4148,-0.3958,-0.4132,-0.4386,-0.433,-0.4993,0.0,0.0,0.0,0.0,0.0,-1.2166,0.0,0.0,0.0,0.0,0.0,0.0,0.0,0.0,0.0,0.0,0.0,0.0,0.0,0.0,0.0,0.0,0.0,0.0,0.0,0.0,0.0,0.0,0.0,0.0,0.0,0.0,-1.7998,-1.8094,-1.8294,-1.8294,-1.8294,-1.8294,-1.8294,-1.8372,-1.8523,-1.8523,-1.8481,-1.8408,-1.8408,-1.8366,-1.8275,-1.8082,-1.7998,-1.798,-1.7793,-1.7672,-1.7599,-1.7599,-1.7545,-1.7485,0.0,0.0,0.0,0.0,0.0,0.0,0.0,0.0,0.0,0.0,0.0898,0.0898,0.0,0.0,0.0,0.0,0.0,0.0,0.0,0.0449,0.0254,0.02,0.0119,0.0061,0.0,-0.1581,-0.2369,-0.2303,-0.3589,-0.4351,-0.459,-0.4779,-0.4828,-0.4697,-0.4939,-0.4936,-0.4786,-0.4654,-0.4621,-0.4561,-0.4336,-0.4186,-0.4035,0.0,0.0,0.0,0.0,0.0,0.0,0.0,0.0,0.0,-0.3687,-0.3879,-0.409,-0.3964,-0.4185,-0.4529,-0.4676,0.0,0.0,0.0,0.0,0.0,0.0,0.0,0.0,0.0,0.0,0.0,0.0,0.0,0.0,0.0,0.0,0.0,0.0,0.0,0.0,0.0,0.0,0.0,0.0,0.0,0.0,0.0,0.0,0.0,0.0,0.0,0.0,-1.7714,-1.7714,-1.7799,-1.7968,-1.7974,-1.7974,-1.7974,-1.7974,-1.7974,-1.798,-1.8197,-1.8233,-1.8125,-1.8016,-1.7974,-1.7962,-1.7787,-1.7714,-1.7702,-1.7545,-1.7485,-1.7485,-1.7485,-1.7485,-1.7485,0.0,0.0,0.0,0.0,0.0,0.0,0.0,0.0,0.0,0.0,0.0898,0.0898,0.0,0.0,0.0,0.0,0.0,0.0,0.0,0.0505,0.0342,0.0235,0.0207,0.0124,0.0,-0.1477,-0.2195,-0.2004,-0.3869,-0.4593,-0.4311,-0.4792,-0.5012,-0.501,-0.5246,-0.5306,-0.5105,-0.4882,-0.4708,-0.4613,-0.4512,-0.4397,-0.424,-0.414,0.0,0.0,0.0,0.0,0.0,0.0,0.0,0.0,-0.3734,-0.3783,-0.3838,-0.4009,-0.4394,-0.4874,-0.5295,0.0,0.0,0.0,0.0,0.0,0.0,0.0,0.0,0.0,0.0,0.0,0.0,0.0,0.0,0.0,0.0,0.0,0.0,0.0,0.0,0.0,0.0,0.0,0.0,0.0,0.0,0.0,0.0,0.0,0.0,0.0,-1.7485,-1.7485,-1.7485,-1.7485,-1.7485,-1.7485,-1.7485,-1.7485,-1.7485,-1.7485,-1.7497,-1.7992,-1.8082,-1.7823,-1.7587,-1.7485,-1.7485,-1.7485,-1.7485,-1.7485,-1.7485,-1.7485,-1.7485,-1.7485,-1.7485,-1.7485,0.0,0.0,0.0,0.0,0.0,0.0,0.0,0.0,0.0,0.0,0.0,0.0,0.0,0.0,0.0,0.0,0.0,0.0,0.0,0.0561,0.0398,0.0353,0.0154,0.0032,0.0,-0.1355,-0.2056,-0.201,-0.3726,-0.4463,-0.4311,-0.4792,-0.4928,-0.4844,-0.5121,-0.504,-0.4651,-0.4474,-0.4289,-0.4065,-0.4164,-0.4064,-0.3909,-0.3947,-0.3827,0.0,0.0,0.0,0.0,0.0,0.0,0.0,-0.3641,-0.3746,-0.3871,-0.3738,-0.413,-0.4587,0.0,-0.541,0.0,0.0,0.0,0.0,0.0,0.0,0.0,0.0,0.0,0.0,0.0,0.0,0.0,0.0,0.0,0.0,0.0,0.0,0.0,0.0,0.0,0.0,0.0,0.0,0.0,0.0,0.0,0.0,0.0,-1.7485,-1.7485,-1.7485,-1.7485,-1.7485,-1.7485,-1.7485,-1.7485,0.0,-1.7485,-1.7485,-1.7485,-1.7605,-1.7624,-1.7563,-1.7509,-1.7485,-1.7485,-1.7485,-1.7485,-1.7485,-1.7485,-1.7485,-1.7485,-1.7485,-1.7485,-1.7485,0.0,0.0,0.0,0.0,0.0,0.0,0.0,0.0,0.0,0.0,0.0,0.0,0.0,0.0,0.0,0.0,0.0,0.0,0.0,0.0673,0.0459,0.0301,0.0096,0.0,0.0,-0.1248,-0.1921,-0.1985,-0.3471,-0.4243,-0.4311,-0.4792,-0.5012,-0.501,-0.5195,-0.504,-0.4632,-0.4458,-0.4276,-0.4078,-0.4083,-0.4077,-0.404,-0.3924,-0.3822,-0.3687,-0.3632,0.0,0.0,0.0,0.0,0.0,0.0,0.0,-0.3765,-0.3754,-0.4012,-0.4397,0.0,0.0,0.0,0.0,0.0,0.0,0.0,0.0,0.0,0.0,0.0,0.0,0.0,0.0,0.0,0.0,0.0,0.0,0.0,0.0,0.0,0.0,0.0,0.0,0.0,0.0,0.0,0.0,0.0,0.0,0.0,-1.7298,-1.7352,-1.7479,-1.7485,-1.7485,-1.7485,-1.7485,-1.7485,-1.7485,-1.7485,-1.7485,-1.7485,-1.7485,-1.7485,-1.7485,-1.7485,-1.7485,-1.7485,-1.7485,-1.7485,-1.7485,-1.7485,-1.7485,-1.7485,-1.7485,-1.7485,-1.7485,0.0,0.0,0.0,0.0,0.0,0.0,0.0,0.0,0.0,0.0,0.0,0.0,0.0,0.0,0.0,0.0,0.0,0.0,0.0,0.0733,0.0493,0.0183,0.0065,0.0,0.0,-0.118,-0.1874,-0.2017,-0.328,-0.4083,-0.4433,-0.483,-0.5089,-0.5219,-0.5281,-0.5108,-0.4717,-0.4488,-0.43,-0.417,-0.4088,-0.4105,-0.4156,-0.3974,-0.3827,-0.3742,-0.3646,-0.3613,-0.3613,-0.3613,0.0,0.0,0.0,0.0,-0.3621,-0.3787,-0.3943,-0.4235,0.0,0.0,0.0,0.0,0.0,0.0,0.0,0.0,0.0,0.0,0.0,0.0,0.0,0.0,0.0,0.0,0.0,0.0,0.0,0.0,0.0,0.0,0.0,0.0,0.0,0.0,0.0,0.0,0.0,0.0,-1.7014,-1.7026,-1.7123,-1.734,-1.7346,-1.7346,-1.7346,-1.7394,-1.7412,-1.7412,-1.7461,-1.7485,-1.7485,-1.7485,-1.7485,-1.7485,-1.7485,-1.7485,-1.7485,-1.7485,-1.7485,-1.7485,-1.7485,-1.7485,-1.7485,-1.7485,-1.7485,-1.7485,0.0,0.0,0.0,0.0,0.0,0.0,0.0,0.0,0.0,0.0,0.0898,0.0898,0.0898,0.0898,0.0,0.0,0.0,0.0,0.0898,0.0,0.0,0.003,0.0,0.0,0.0,-0.1173,-0.1882,-0.2077,-0.3241,-0.4202,-0.4923,-0.4988,-0.5135,-0.5377,-0.5148,-0.486,-0.4531,-0.4151,-0.3879,-0.3715,-0.3797,-0.3783,-0.3715,-0.3783,-0.3736,-0.3632,-0.3619,-0.3613,-0.3613,-0.3613,-0.3613,0.0,0.0,0.0,0.0,0.0,-0.3786,-0.3992,0.0,0.0,0.0,0.0,0.0,0.0,0.0,0.0,0.0,0.0,0.0,0.0,0.0,0.0,0.0,0.0,0.0,0.0,0.0,0.0,0.0,0.0,0.0,0.0,0.0,0.0,0.0,0.0,0.0,0.0,-1.6748,-1.6754,-1.6767,-1.6803,-1.6803,-1.6803,-1.6803,-1.7032,-1.7141,-1.7147,-1.7376,-1.7485,-1.7485,-1.7485,-1.7485,-1.7485,-1.7485,-1.7485,-1.7485,-1.7485,-1.7485,-1.7485,-1.7485,-1.7485,-1.7485,-1.7485,-1.7485,-1.7485,0.0,0.0,0.0,0.0,0.0,0.0,0.0,0.0,0.0,0.0,0.0,0.0898,0.0898,0.0898,0.0,0.0,0.0,0.0,0.0645,0.0492,0.0,0.0,0.0,0.0,0.0,-0.1184,-0.1876,-0.2049,-0.3212,-0.4219,-0.5018,-0.5018,-0.5252,-0.5654,-0.5349,-0.505,-0.4743,-0.4246,-0.3908,-0.3773,-0.372,-0.3857,-0.4082,-0.3794,-0.3824,-0.395,-0.368,-0.3613,-0.3613,-0.3613,-0.3613,0.0,0.0,0.0,0.0,0.0,0.0,0.0,0.0,0.0,0.0,0.0,0.0,0.0,0.0,0.0,0.0,0.0,0.0,0.0,0.0,0.0,0.0,0.0,0.0,0.0,0.0,0.0,0.0,0.0,0.0,0.0,0.0,0.0,0.0,0.0,0.0,-1.6314,-1.6459,-1.6465,-1.6537,-1.6694,-1.67,-1.67,-1.67,-1.6815,-1.6875,-1.6875,-1.699,-1.7044,-1.705,-1.7195,-1.734,-1.7485,-1.7485,-1.7485,-1.7485,-1.7485,-1.7485,-1.7485,-1.7485,-1.7485,-1.7485,-1.7485,-1.7485,-1.7485,0.0,0.0,0.0,0.0,0.0,0.0,0.0,0.0,0.0,0.0,0.0,0.0,0.0898,0.0,0.0,0.0,0.0,0.0,0.0421,0.0,0.0,0.0,0.0,0.0,0.0,-0.119,-0.1865,-0.1999,-0.3197,-0.4235,-0.5059,-0.5059,-0.5409,-0.6021,-0.5635,-0.5279,-0.4898,-0.4425,-0.4137,-0.3981,-0.3838,-0.4062,-0.4427,-0.4069,-0.4172,-0.442,-0.3939,-0.3767,0.0,0.0,0.0,0.0,0.0,0.0,0.0,0.0,0.0,0.0,0.0,0.0,0.0,0.0,0.0,0.0,0.0,0.0,0.0,0.0,0.0,0.0,0.0,0.0,0.0,0.0,0.0,0.0,0.0,0.0,0.0,0.0,0.0,0.0,0.0,0.0,0.0,0.0,0.0,-1.5976,-1.6169,-1.6181,-1.6278,-1.6489,-1.6495,-1.6495,-1.6495,-1.6561,-1.6634,-1.67,-1.67,-1.67,-1.6706,-1.6905,-1.7098,-1.7292,-1.7424,-1.7485,-1.7485,-1.7485,-1.7485,-1.7485,-1.7485,-1.7485,-1.7473,-1.7406,-1.7382,-1.7376,0.0,0.0,0.0,0.0,0.0,0.0,0.0,0.0,0.0,0.0,0.0,0.0,0.0898,0.0898,0.0898,0.0898,0.0,0.0,0.0,0.0,0.0,0.0,0.0,0.0,0.0,-0.1178,-0.188,-0.1999,-0.3197,-0.4276,-0.5178,-0.5178,-0.5619,-0.6338,-0.5877,-0.5348,-0.4787,-0.4564,-0.4384,-0.4281,-0.4268,-0.4281,-0.4355,-0.4781,-0.4958,-0.4917,-0.4436,0.0,0.0,0.0,0.0,0.0,0.0,0.0,0.0,0.0,0.0,0.0,0.0,0.0,0.0,0.0,0.0,0.0,0.0,0.0,0.0,0.0,0.0,0.0,0.0,0.0,0.0,0.0,0.0,0.0,0.0,0.0,0.0,0.0,0.0,0.0,0.0,0.0,0.0,0.0,0.0,-1.5897,-1.591,-1.591,-1.5916,-1.5934,-1.5934,-1.5934,-1.5934,-1.6199,-1.6459,-1.67,-1.67,-1.67,-1.67,-1.6712,-1.673,-1.6767,-1.7267,-1.7485,-1.7485,-1.7485,-1.7485,-1.7485,-1.7485,-1.7485,-1.7455,-1.7201,-1.7111,-1.7074,0.0,0.0,0.0,0.0,0.0,0.0,0.0,0.0,0.0,0.0,0.0,0.0,0.0,0.0898,0.0898,0.0898,0.0898,0.0,0.0,0.0,0.0,0.0,0.0,0.0,0.0,-0.1175,-0.1829,-0.188,-0.3074,-0.4046,-0.4764,-0.4843,-0.5166,-0.5638,-0.5659,-0.557,-0.5332,-0.486,-0.4599,0.0,-0.4561,-0.4747,-0.4988,-0.501,-0.5168,-0.5373,0.0,0.0,0.0,0.0,0.0,0.0,-0.3747,-0.3671,-0.3613,-0.3613,0.0,0.0,0.0,0.0,0.0,0.0,0.0,0.0,0.0,0.0,0.0,0.0,0.0,0.0,0.0,0.0,0.0,0.0,0.0,0.0,0.0,0.0,0.0,0.0,0.0,0.0,0.0,0.0,0.0,0.0,0.0,0.0,-1.5891,-1.5891,-1.5891,-1.5891,-1.5891,-1.5891,-1.5891,-1.5988,-1.6085,-1.6181,-1.6181,-1.6181,-1.6187,-1.6356,-1.6435,-1.6453,-1.6821,-1.6984,-1.6984,-1.6984,-1.6984,-1.6984,-1.6984,-1.6984,-1.6966,-1.6875,-1.6839,-1.6827,0.0,0.0,0.0,0.0,0.0,0.0,0.0,0.0,0.0898,0.0898,0.0,0.0,0.0,0.0,0.0895,0.0828,0.0762,0.0673,0.0533,0.0421,0.0,0.0,0.0,0.0,0.0,-0.099,-0.1499,-0.1511,-0.2746,-0.3638,-0.4138,-0.4464,-0.484,-0.5192,-0.5314,-0.5483,-0.5594,0.0,0.0,-0.4936,0.0,0.0,-0.5434,-0.5477,-0.5648,-0.5861,0.0,0.0,0.0,0.0,0.0,0.0,-0.3956,-0.3769,-0.3613,-0.3613,-0.3613,0.0,0.0,0.0,0.0,0.0,0.0,0.0,0.0,0.0,0.0,0.0,0.0,0.0,0.0,0.0,0.0,0.0,0.0,0.0,0.0,0.0,0.0,0.0,0.0,0.0,0.0,0.0,0.0,0.0,0.0,0.0,-1.5891,-1.5891,-1.5891,-1.5891,-1.5891,-1.5891,-1.5891,-1.5891,-1.5891,-1.5891,-1.5891,-1.5891,-1.5897,-1.6066,-1.6151,-1.6163,-1.6344,-1.6531,-1.67,-1.67,-1.67,-1.67,-1.67,-1.67,-1.6688,-1.6592,-1.6561,-1.6549,0.0,0.0,0.0,0.0,0.0,0.0,0.0,0.0,0.0898,0.0898,0.0,0.0,0.0,0.0,0.0,0.0711,0.0516,0.0366,0.0225,0.0196,0.0,0.0,0.0,0.0,0.0,-0.0578,-0.0896,-0.0898,-0.2235,-0.3034,-0.3409,-0.4122,-0.4708,-0.5146,-0.4838,-0.4974,-0.5472,0.0,-0.5394,-0.5427,0.0,-0.5505,-0.5586,0.0,0.0,0.0,-0.5872,-0.5704,0.0,-0.5025,0.0,0.0,0.0,-0.3873,-0.3616,-0.3613,-0.3616,0.0,0.0,0.0,0.0,0.0,0.0,0.0,0.0,0.0,0.0,0.0,0.0,0.0,0.0,0.0,0.0,0.0,0.0,0.0,0.0,0.0,0.0,0.0,0.0,0.0,0.0,0.0,0.0,0.0,0.0,-1.5867,-1.5879,-1.5885,-1.5891,-1.5891,-1.5891,-1.5891,-1.5891,-1.5891,-1.5891,-1.5891,-1.5891,-1.5891,-1.5891,-1.5891,-1.5891,-1.5891,-1.5891,-1.6187,-1.6676,-1.6676,-1.6676,-1.6676,-1.6676,-1.6676,-1.664,-1.6368,-1.6266,-1.6229,0.0,0.0,0.0,0.0,0.0,0.0898,0.0898,0.0898,0.0905,0.0,0.0,0.0,0.0975,0.1003,0.0954,0.0788,0.0735,0.0596,0.0349,0.0256,0.0196,0.014,0.0056,0.0,0.0,-0.0594,-0.0905,-0.0898,-0.171,-0.2435,-0.3051,-0.3304,-0.3819,-0.4545,-0.4564,-0.4698,-0.4887,-0.4683,0.0,-0.5437,-0.5214,-0.5474,0.0,0.0,0.0,0.0,0.0,-0.6132,-0.595,0.0,-0.533,-0.4885,0.0,0.0,-0.3717,-0.3635,-0.3671,-0.3717,-0.3635,0.0,0.0,0.0,0.0,0.0,0.0,0.0,0.0,0.0,0.0,0.0,0.0,0.0,0.0,0.0,0.0,0.0,0.0,0.0,0.0,0.0,0.0,0.0,0.0,0.0,0.0,0.0,-1.5324,-1.5409,-1.5596,-1.5783,-1.5891,-1.5891,-1.5891,-1.5891,-1.5891,-1.5891,-1.5891,-1.5891,-1.5891,-1.5891,-1.5891,-1.5891,-1.5891,-1.5891,-1.5891,-1.5976,-1.6115,-1.6115,-1.6115,-1.6115,-1.6115,-1.6115,-1.6103,-1.6024,-1.6,-1.5988,0.0,0.0,0.0,0.0919,0.0937,0.0954,0.0954,0.0954,0.0965,0.0,0.0,0.0,0.1093,0.1022,0.096,0.0838,0.0701,0.0521,0.0361,0.0201,0.0112,0.0112,0.0028,0.0,0.0,-0.0348,-0.0523,-0.0515,-0.1143,-0.1775,-0.2447,-0.2728,-0.3311,-0.4103,-0.4123,-0.4254,-0.4446,-0.4124,0.0,0.0,-0.5371,0.0,0.0,-0.6252,-0.6426,0.0,0.0,0.0,-0.629,-0.6168,-0.5741,0.0,0.0,0.0,0.0,-0.3808,-0.3849,-0.3988,-0.3838,-0.3816,0.0,0.0,0.0,0.0,0.0,0.0,0.0,0.0,0.0,0.0,0.0,0.0,0.0,0.0,0.0,0.0,0.0,0.0,0.0,0.0,0.0,0.0,0.0,0.0,0.0,-1.4904,-1.4949,-1.5071,-1.533,-1.5481,-1.5565,-1.5565,-1.5668,-1.5728,-1.5728,-1.5831,-1.5891,-1.5891,-1.5891,-1.5891,-1.5891,-1.5891,-1.5891,-1.5891,-1.5891,-1.5891,-1.5891,-1.5891,-1.5891,-1.5891,-1.5891,-1.5891,-1.5891,-1.5891,-1.5891,-1.5891,0.0,0.0,0.0977,0.0926,0.0967,0.1003,0.101,0.1008,0.1051,0.0,0.1131,0.1161,0.1227,0.1098,0.1013,0.0935,0.0595,0.0344,0.0312,0.0147,0.0028,0.0,0.0,0.0,0.0,0.0,0.0,0.0,-0.0528,-0.1155,-0.1818,-0.2347,-0.3008,-0.3761,-0.3657,-0.3762,-0.4039,-0.3776,0.0,-0.5023,-0.5567,-0.5915,0.0,0.0,-0.6684,-0.6801,-0.6801,-0.6733,-0.6619,-0.6433,-0.5986,0.0,0.0,0.0,0.0,0.0,-0.4189,0.0,-0.4216,-0.4075,-0.4094,0.0,0.0,0.0,-0.4741,-0.4667,0.0,0.0,0.0,0.0,0.0,0.0,0.0,0.0,0.0,0.0,0.0,0.0,0.0,0.0,0.0,0.0,0.0,-1.4247,-1.4303,-1.4607,-1.4636,-1.4755,-1.5065,-1.5089,-1.5107,-1.5107,-1.533,-1.5457,-1.5457,-1.5716,-1.5849,-1.5849,-1.5879,-1.5891,-1.5891,-1.5891,-1.5891,-1.5891,-1.5891,-1.5891,-1.5891,-1.5891,-1.5891,-1.5891,-1.5891,-1.5891,-1.5891,-1.5891,-1.5891,-1.5891,0.0,0.096,0.0935,0.0977,0.0994,0.1016,0.1062,0.1083,0.1096,0.1174,0.1228,0.129,0.1373,0.1283,0.1209,0.1058,0.0882,0.0678,0.0399,0.0307,0.0173,0.0,0.0,0.0,0.0,0.0,0.0,0.0,-0.0116,-0.0723,-0.179,-0.193,-0.2581,-0.3643,-0.3621,-0.3623,-0.371,0.0,0.0,-0.478,-0.4955,0.0,-0.6252,-0.6371,-0.6565,-0.6801,-0.6801,-0.6787,-0.6733,-0.646,-0.6151,-0.5733,0.0,0.0,0.0,0.0,0.0,-0.4828,-0.4646,-0.4602,-0.4577,-0.4417,0.0,0.0,0.0,-0.4243,0.0,0.0,0.0,0.0,0.0,0.0,0.0,0.0,0.0,0.0,0.0,0.0,0.0,0.0,0.0,0.0,0.0,-1.3785,-1.3785,-1.4029,-1.4272,-1.4489,-1.4743,-1.4992,-1.5107,-1.5107,-1.5155,-1.5185,-1.5185,-1.5445,-1.5572,-1.5578,-1.5789,-1.5891,-1.5891,-1.5891,-1.5891,-1.5891,-1.5891,-1.5891,-1.5891,-1.5891,-1.5891,-1.5891,-1.5891,-1.5891,-1.5891,-1.5891,-1.5891,-1.5891,0.0988,0.0999,0.1018,0.1049,0.108,0.112,0.118,0.1213,0.1236,0.1289,0.1367,0.1414,0.1412,0.14,0.1331,0.1205,0.1036,0.086,0.0655,0.0444,0.0268,0.0144,0.0058,0.0,0.0,0.0,0.0,0.0,0.0,-0.0626,-0.179,-0.179,-0.2527,-0.3846,-0.3753,-0.3799,-0.395,0.0,-0.4289,-0.4646,-0.5148,0.0,-0.6385,-0.6627,-0.6825,-0.6978,-0.6978,-0.6902,-0.6755,-0.6453,-0.6233,0.0,0.0,-0.554,-0.554,0.0,-0.5091,-0.5189,-0.4985,-0.4923,-0.4909,-0.4849,0.0,0.0,0.0,0.0,0.0,0.0,0.0,0.0,0.0,0.0,0.0,0.0,0.0,0.0,0.0,0.0,0.0,0.0,0.0,0.0,0.0,-1.3491,-1.3545,-1.369,-1.4091,-1.4314,-1.432,-1.4538,-1.4702,-1.4702,-1.4835,-1.4914,-1.4914,-1.5173,-1.5366,-1.5499,-1.5632,-1.5765,-1.5891,-1.5891,-1.5891,-1.5891,-1.5891,-1.5891,-1.5891,-1.5891,-1.5891,-1.5891,-1.5891,-1.5891,-1.5891,-1.5891,-1.5891,-1.5891,0.1001,0.1035,0.1071,0.1082,0.117,0.1233,0.1295,0.131,0.1347,0.1396,0.1477,0.1502,0.144,0.1467,0.1457,0.1379,0.1169,0.1029,0.0955,0.0604,0.0375,0.0303,0.015,0.003,0.0,0.0,0.0,0.0,0.0,-0.062,-0.179,-0.179,-0.2605,-0.4039,-0.392,-0.4032,0.0,0.0,0.0,-0.4749,0.0,-0.6053,-0.6273,-0.6752,-0.6972,-0.7114,-0.7185,-0.7018,-0.679,-0.6478,0.0,-0.626,-0.5825,-0.5901,0.0,0.0,0.0,0.0,0.0,0.0,0.0,0.0,0.0,-0.4711,0.0,0.0,0.0,-0.4564,0.0,0.0,0.0,0.0,0.0,0.0,0.0,0.0,0.0,0.0,0.0,0.0,0.0,0.0,0.0,-1.3107,-1.3332,-1.3582,-1.3778,-1.3951,-1.3968,-1.4112,-1.425,-1.4298,-1.4515,-1.4636,-1.4636,-1.4902,-1.5137,-1.5348,-1.5451,-1.5608,-1.5813,-1.5867,-1.5891,-1.5891,-1.5891,-1.5891,-1.5891,-1.5891,-1.5891,-1.5891,-1.5891,-1.5891,-1.5891,-1.5891,-1.5891,-1.5891,0.0992,0.1002,0.1022,0.1106,0.1166,0.1227,0.1288,0.132,0.1327,0.1459,0.1503,0.1543,0.1586,0.1549,0.1548,0.1666,0.1399,0.1257,0.1191,0.0938,0.0683,0.0299,0.0285,0.0185,0.0,0.0,0.0,0.0,0.0,-0.0605,-0.179,-0.179,-0.2543,-0.3832,-0.399,0.0,0.0,0.0,-0.4901,0.0,-0.5773,-0.5803,0.0,-0.6354,-0.6668,-0.6722,-0.7095,-0.7128,-0.6942,0.0,-0.6668,-0.6535,0.0,-0.6285,-0.6292,0.0,0.0,0.0,0.0,0.0,0.0,0.0,-0.5398,0.0,0.0,0.0,-0.4523,-0.4081,0.0,0.0,0.0,0.0,0.0,0.0,0.0,0.0,0.0,0.0,0.0,0.0,0.0,0.0,0.0,0.0,-1.2814,-1.3782,-1.3009,-1.3048,-1.4214,-1.407,-1.407,-1.4298,-1.4328,-1.4346,-1.4346,-1.4618,-1.4775,-1.4811,-1.5276,-1.5517,-1.5553,-1.5783,-1.5891,-1.5891,-1.5891,-1.5891,-1.5891,-1.5891,-1.5891,-1.5891,-1.5891,-1.5891,-1.5891,-1.5891,-1.5891,-1.5891,0.1001,0.0989,0.1014,0.1087,0.113,0.1191,0.1288,0.1402,0.1485,0.1504,0.1564,0.1615,0.164,0.0,0.0,0.0,0.0,0.1408,0.0,0.0,0.089,0.0723,0.0433,0.0288,0.0228,0.0093,0.0,0.0,0.0,-0.0426,-0.1288,-0.1623,-0.2488,-0.3719,-0.4143,0.0,-0.4923,0.0,0.0,0.0,0.0,0.0,0.0,-0.6551,-0.6929,-0.695,-0.7155,-0.7136,-0.6956,0.0,-0.6662,0.0,0.0,0.0,0.0,0.0,0.0,0.0,0.0,0.0,0.0,0.0,0.0,0.0,-0.4631,0.0,-0.4465,0.0,0.0,0.0,0.0,0.0,0.0,0.0,0.0,0.0,0.0,0.0,0.0,0.0,0.0,0.0,0.0,0.0,0.0,0.0,-1.2479,-1.2479,-1.3555,-1.3795,-1.3931,-1.407,-1.407,-1.416,-1.4298,-1.4413,-1.4558,-1.4721,-1.4938,-1.5125,-1.5276,-1.5384,-1.5517,-1.5662,-1.5662,-1.5753,-1.5891,-1.5891,-1.5891,-1.5891,-1.5891,-1.5891,-1.5891,-1.5891,-1.5891,-1.5891,0.0984,0.0,0.0,0.1104,0.1114,0.1189,0.1319,0.1457,0.1545,0.1539,0.1596,0.0,0.1735,0.1731,0.0,0.0,0.1645,0.157,0.0,0.0,0.1012,0.1035,0.0611,0.0,0.0,0.0223,0.006,0.0,0.0,-0.031,-0.0909,-0.1518,-0.2385,-0.3457,-0.4229,-0.4849,-0.5364,0.0,0.0,-0.5386,-0.5645,-0.582,-0.5988,-0.6766,-0.7122,-0.721,-0.721,-0.7155,-0.6999,-0.679,-0.6719,0.0,-0.648,0.0,0.0,0.0,0.0,0.0,-0.6206,0.0,0.0,0.0,0.0,0.0,0.0,0.0,0.0,0.0,0.0,0.0,0.0,0.0,0.0,0.0,0.0,0.0,0.0,0.0,0.0,0.0,0.0,0.0,0.0,0.0,0.0,0.0,0.0,-1.1833,-1.3152,-1.3518,-1.3759,-1.3883,-1.3883,-1.3973,-1.4208,-1.425,-1.4401,-1.4606,-1.4678,-1.4817,-1.5004,-1.5077,-1.5252,-1.5499,-1.5499,-1.565,-1.5891,-1.5891,-1.5891,-1.5891,-1.5891,-1.5891,-1.5891,-1.5891,-1.5891,-1.5891,0.0988,0.1013,0.0,0.0,0.0,0.1259,0.1364,0.1461,0.1504,0.0,0.0,0.0,0.0,0.0,0.0,0.0,0.0,0.1698,0.1695,0.0,0.1116,0.1116,0.0763,0.0528,0.0,0.0375,0.025,0.0,0.0,-0.0313,-0.0908,-0.1504,-0.2243,-0.3081,-0.4255,-0.4961,-0.5222,-0.5684,-0.6078,-0.6341,-0.6354,-0.6684,-0.7117,0.0,-0.6853,-0.721,-0.721,0.0,0.0,-0.7013,-0.6975,0.0,0.0,0.0,0.0,0.0,0.0,0.0,0.0,0.0,0.0,-0.5556,0.0,0.0,0.0,0.0,-0.4784,0.0,0.0,0.0,0.0,0.0,-0.4696,-0.4531,0.0,0.0,0.0,0.0,0.0,0.0,0.0,0.0,0.0,0.0,0.0,0.0,0.0,0.0,-1.345,-1.3297,-1.3371,-1.3877,-1.3883,-1.3883,-1.3931,-1.416,-1.4298,-1.4316,-1.4588,-1.4721,-1.4739,-1.4992,-1.5252,-1.5499,-1.5499,-1.565,-1.5891,-1.5891,-1.5891,-1.5891,-1.5891,-1.5891,-1.5891,-1.5891,-1.5891,-1.5891,0.0,0.0,0.0,0.0,0.0,0.1165,0.1312,0.1487,0.0,0.0,0.0,0.0,0.0,0.1891,0.1913,0.0,0.0,0.1846,0.1825,0.1396,0.0,0.0,0.0,0.0499,0.0,0.0303,0.0104,0.0,0.0,-0.0093,-0.0313,-0.0909,-0.1441,-0.1915,0.0,-0.3804,0.0,0.0,0.0,0.0,0.0,-0.6725,-0.7196,0.0,0.0,-0.721,-0.721,-0.721,0.0,-0.7166,-0.7048,-0.6978,-0.6937,-0.6839,-0.6725,-0.6643,-0.6589,0.0,0.0,0.0,-0.6271,-0.5841,0.0,0.0,0.0,0.0,0.0,0.0,0.0,0.0,0.0,0.0,-0.4717,-0.4545,-0.4503,0.0,0.0,0.0,0.0,0.0,0.0,0.0,0.0,0.0,0.0,0.0,-0.9197,0.0,0.0,-1.2779,-1.3373,-1.3371,-1.355,-1.3642,-1.3642,-1.3732,-1.3775,-1.3775,-1.3868,-1.4012,-1.4163,-1.4252,-1.4529,-1.4992,-1.5161,-1.539,-1.5644,-1.5819,-1.5891,-1.5891,-1.5891,-1.5891,-1.5891,-1.5891,-1.5891,-1.5891,0.1141,0.0,0.0,0.0,0.0,0.0,0.0,0.0,0.0,0.0,0.1782,0.0,0.1979,0.0,0.1996,0.0,0.1996,0.1936,0.1874,0.1541,0.0,0.172,0.1031,0.0,0.0,0.0507,0.0232,0.0141,0.0034,0.0,0.0,-0.0606,-0.1011,-0.1265,0.0,-0.3201,0.0,0.0,-0.5475,0.0,0.0,-0.6877,0.0,0.0,-0.721,-0.721,0.0,-0.721,-0.721,-0.721,-0.7161,-0.7046,-0.7046,-0.6961,-0.6853,-0.6774,-0.6719,-0.6668,-0.6589,-0.6564,0.0,-0.6121,-0.5828,0.0,-0.5116,0.0,0.0,0.0,0.0,0.0,0.0,0.0,-0.4944,-0.4705,-0.452,-0.4276,0.0,0.0,0.0,0.0,0.0,0.0,0.0,0.0,-0.5284,-0.7334,0.0,0.0,0.0,0.0,-1.2722,-1.257,-1.3163,-1.3346,-1.2953,-1.3298,-1.3491,-1.3491,-1.3491,-1.3593,-1.3738,-1.3738,-1.4023,-1.4424,-1.4589,-1.4912,-1.5355,-1.5522,-1.5748,-1.5891,-1.5891,-1.5891,-1.5891,-1.5891,-1.5891,-1.5891,0.0,0.0,0.0,0.0,0.1274,0.0,0.0,0.0,0.1717,0.0,0.1836,0.1926,0.2016,0.2001,0.202,0.2104,0.2057,0.0,0.1805,0.1618,0.0,0.0,0.1491,0.1294,0.1319,0.0941,0.0643,0.0382,0.0148,0.0,0.0,-0.0599,-0.0933,-0.109,-0.1973,0.0,-0.4196,-0.4785,-0.5688,-0.6778,-0.7007,-0.7154,-0.721,-0.721,-0.721,-0.721,-0.721,-0.721,-0.721,-0.721,-0.721,-0.721,-0.721,-0.7136,-0.6991,-0.6986,-0.6902,-0.6809,-0.6804,-0.6801,-0.6719,-0.638,-0.6195,0.0,0.0,0.0,-0.5672,0.0,0.0,0.0,0.0,0.0,0.0,-0.505,-0.4605,-0.4132,0.0,0.0,0.0,0.0,0.0,0.0,0.0,0.0,-0.4505,-0.6005,-0.6397,0.0,0.0,0.0,-1.1441,-1.1539,-1.2763,-1.2953,-1.2029,-1.2953,-1.3394,-1.3491,-1.3491,-1.3491,-1.3491,-1.3491,-1.3622,-1.3893,-1.3905,-1.4336,-1.5059,-1.5065,-1.5387,-1.5891,-1.5891,-1.5891,-1.5891,-1.5891,-1.5891,-1.5891,0.1274,0.1327,0.1339,0.0,0.1373,0.141,0.0,0.0,0.0,0.0,0.1929,0.2019,0.211,0.2179,0.2184,0.2141,0.2108,0.0,0.0,0.0,0.0,0.1948,0.1388,0.1161,0.1395,0.0861,0.0,0.0387,0.012,0.0,0.0,-0.0144,-0.0247,-0.0282,0.0,0.0,-0.2328,-0.2565,-0.3856,-0.5753,-0.5821,-0.6374,0.0,0.0,-0.721,-0.721,-0.721,-0.721,-0.721,-0.721,-0.721,-0.721,-0.721,-0.7191,-0.715,-0.701,-0.6961,-0.6918,-0.6828,-0.6801,-0.6779,-0.669,-0.6442,-0.6213,0.0,0.0,0.0,0.0,0.0,0.0,0.0,0.0,0.0,-0.4925,-0.4442,-0.4121,0.0,0.0,0.0,0.0,0.0,0.0,0.0,0.0,-0.427,-0.4757,-0.5724,0.0,0.0,0.0,0.0,-1.0995,-1.172,-1.2257,-1.2565,-1.2063,-1.2209,-1.2958,-1.2958,-1.3055,-1.3195,-1.3195,-1.3331,-1.3593,-1.3831,-1.4138,-1.4544,-1.4942,-1.5288,-1.5636,-1.5838,-1.5891,-1.5891,-1.5891,-1.5891,-1.5891,0.1356,0.0,0.0,0.1428,0.0,0.0,0.1598,0.0,0.0,0.1872,0.1963,0.0,0.2089,0.2197,0.2222,0.2222,0.2139,0.0,0.2097,0.0,0.0,0.2001,0.1633,0.152,0.164,0.1129,0.0,0.0599,0.0,0.0121,0.0,0.0,0.0,0.0,0.0,-0.0612,0.0,-0.2222,-0.3342,-0.4588,-0.4611,0.0,0.0,-0.6429,-0.6763,-0.721,-0.721,-0.721,-0.721,-0.721,-0.721,-0.721,-0.721,-0.721,-0.7196,-0.7133,-0.7114,-0.7046,-0.6975,-0.6956,-0.6956,-0.6956,-0.6768,-0.6535,-0.6361,-0.6279,-0.6187,0.0,-0.6086,-0.6159,0.0,0.0,0.0,0.0,0.0,0.0,0.0,0.0,0.0,0.0,0.0,0.0,0.0,0.0,0.0,0.0,0.0,0.0,0.0,0.0,0.0,-1.015,-1.1046,-1.1526,-1.1575,-1.1321,-1.1517,-1.2116,-1.2116,-1.2414,-1.2953,-1.2953,-1.305,-1.3206,-1.3346,-1.3701,-1.4134,-1.443,-1.4867,-1.5315,-1.563,-1.5791,-1.5891,-1.5891,-1.5891,-1.5891,0.0,0.0,0.0,0.0,0.0,0.0,0.0,0.1757,0.0,0.1892,0.0,0.2036,0.2036,0.2107,0.2222,0.2222,0.0,0.2121,0.2041,0.2082,0.2075,0.1997,0.199,0.1961,0.1904,0.1524,0.0,0.0,0.0,0.0251,0.0,0.0,0.0,0.0,0.0,0.0,0.0,-0.2499,-0.3102,-0.3375,-0.3387,-0.4083,-0.5146,-0.5146,-0.5929,-0.6988,-0.6988,-0.7043,-0.721,-0.721,-0.721,-0.721,-0.721,-0.721,-0.721,-0.721,-0.721,-0.721,-0.721,-0.721,-0.721,-0.721,-0.7136,-0.6942,-0.67,-0.6559,-0.6448,-0.6317,-0.6206,-0.6184,0.0,0.0,0.0,0.0,0.0,0.0,0.0,0.0,0.0,0.0,0.0,0.0,0.0,0.0,0.0,0.0,0.0,0.0,0.0,0.0,0.0,-0.9029,-1.0263,-1.0631,-0.9948,0.0,-1.0828,-1.0974,-1.1121,-1.1668,-1.2613,-1.2759,-1.2813,-1.2813,-1.2845,-1.3204,-1.3868,-1.3901,-1.4346,-1.5035,-1.5315,-1.5583,-1.5838,-1.5838,-1.5891,-1.5891,0.0,0.0,0.0,0.0,0.0,0.1829,0.1843,0.1901,0.1951,0.199,0.2074,0.2197,0.2197,0.2212,0.2222,0.2222,0.2222,0.0,0.0,0.0,0.0,0.2086,0.2062,0.2032,0.1996,0.1568,0.1249,0.0,0.0588,0.0245,0.0,0.0,0.0,0.0,0.0,0.0,-0.0275,-0.0502,0.0,-0.2142,-0.21,-0.2854,-0.3916,-0.3916,-0.4643,-0.5706,-0.5706,-0.6374,-0.721,-0.721,-0.721,-0.721,-0.721,-0.721,-0.721,-0.721,-0.721,-0.721,-0.721,-0.721,-0.721,-0.721,-0.7193,-0.7117,-0.6825,-0.6752,-0.6676,-0.6453,-0.6341,-0.6328,-0.6176,0.0,0.0,0.0,0.0,0.0,0.0,0.0,0.0,0.0,0.0,0.0,0.0,0.0,0.0,0.0,0.0,0.0,0.0,0.0,0.0,0.0,-0.8135,0.0,0.0,0.0,-0.9008,-0.9903,-1.0783,-1.1321,-1.1517,-1.2414,-1.2813,-1.2824,-1.2964,-1.3256,-1.3594,-1.4049,-1.4509,-1.4987,-1.5041,-1.5309,-1.5583,-1.5583,-1.5684,-1.5891,0.0,0.0,0.0,0.0,0.0,0.0,0.0,0.202,0.0,0.2023,0.2057,0.2084,0.2084,0.2127,0.2222,0.2222,0.2222,0.2222,0.2222,0.2141,0.2125,0.211,0.2095,0.0,0.1998,0.1777,0.1448,0.0935,0.0741,0.0418,0.0,0.0,0.0,0.0,0.0,0.0,0.0,0.0,0.0,-0.0865,-0.0888,-0.1567,-0.2686,-0.2686,-0.3413,-0.4475,-0.4475,-0.4866,-0.5534,-0.6763,-0.721,-0.721,-0.721,-0.721,-0.721,-0.721,-0.721,-0.721,-0.721,-0.721,-0.721,-0.721,-0.721,-0.7147,-0.6855,-0.6801,-0.6733,-0.6435,-0.6387,-0.6314,-0.613,-0.5844,0.0,0.0,0.0,0.0,0.0,0.0,0.0,0.0,0.0,0.0,0.0,0.0,0.0,0.0,0.0,0.0,0.0,0.0,0.0,0.0,0.0,0.0,0.0,0.0,0.0,-0.8764,-0.9304,-0.9846,-1.0391,-1.1473,-1.1965,-1.2019,-1.2676,-1.3136,-1.3559,-1.4026,-1.4452,-1.4767,-1.4767,-1.4987,-1.5261,-1.5428,-1.5583,-1.5684,0.0,0.1798,0.0,0.0,0.1925,0.0,0.2015,0.2096,0.2129,0.2057,0.2048,0.2048,0.2048,0.2112,0.2222,0.2222,0.2222,0.2222,0.2222,0.2222,0.2144,0.212,0.2112,0.2076,0.2006,0.1939,0.1602,0.0,0.0,0.0611,0.0079,0.0037,0.0,0.0,0.0,0.0,0.0,0.0,0.0,0.0,0.0,-0.0566,-0.1415,-0.1415,-0.215,-0.3222,-0.321,-0.3375,-0.3877,-0.5819,-0.6594,-0.6877,-0.7099,-0.721,-0.721,-0.721,-0.721,-0.721,-0.721,-0.721,-0.721,-0.721,-0.721,-0.7147,-0.6855,-0.6801,-0.6733,-0.6435,-0.6387,-0.6314,-0.613,-0.5975,0.0,0.0,0.0,0.0,0.0,0.0,0.0,0.0,0.0,0.0,0.0,0.0,0.0,0.0,0.0,0.0,-0.4319,-0.4605,-0.5391,0.0,0.0,-0.7309,-0.7583,0.0,-0.7673,-0.7673,-0.7872,-0.8418,-0.9312,-1.0386,-1.0974,-1.1272,-1.2119,-1.2909,-1.3583,-1.4019,-1.4293,-1.4498,-1.4498,-1.4659,-1.4928,-1.5208,-1.5369,-1.5535,0.0,0.0,0.0,0.0,0.0,0.0,0.2018,0.2096,0.2218,0.221,0.2209,0.2209,0.2209,0.2216,0.2222,0.2222,0.2222,0.2222,0.2222,0.2222,0.2221,0.2218,0.2124,0.2106,0.2097,0.2012,0.1775,0.0,0.0,0.0735,0.0,0.0118,0.0,0.0,0.0,0.0,0.0,0.0,0.0,0.0,0.0,-0.0059,-0.0176,-0.0176,-0.0937,-0.1987,-0.1958,-0.269,-0.3654,-0.3879,-0.4643,-0.5761,-0.6877,-0.721,-0.721,-0.721,-0.721,-0.721,-0.721,-0.721,-0.721,-0.721,-0.721,-0.7147,-0.6855,-0.6801,-0.6733,-0.6435,-0.6387,-0.6314,-0.613,-0.6241,-0.6179,0.0,0.0,0.0,0.0,0.0,0.0,0.0,0.0,0.0,0.0,0.0,0.0,0.0,0.0,0.0,-0.4457,-0.452,-0.4868,-0.5628,0.0,-0.6111,-0.6258,-0.6475,-0.6534,-0.6584,-0.7528,-0.8071,-0.817,-0.9258,-1.0293,-1.1233,-1.1482,-1.2419,-1.3809,-1.4083,-1.4191,-1.4245,-1.4245,-1.4401,-1.4659,-1.4659,-1.5041,-1.5482,0.0,0.0,0.0,0.0,0.0,0.0,0.0,0.2198,0.2222,0.2222,0.2222,0.2222,0.2222,0.2222,0.2222,0.2222,0.2222,0.2222,0.2222,0.2222,0.2222,0.2222,0.2143,0.2128,0.211,0.2039,0.1824,0.0,0.0,0.0,0.0,0.0,0.0,0.0,0.0,0.0565,0.0588,0.0393,0.029,0.0298,0.006,0.0,0.0,0.0,-0.0301,-0.0716,-0.0711,-0.1058,-0.1569,-0.2286,-0.3329,-0.4419,-0.4864,-0.5031,-0.5198,-0.5926,-0.6096,-0.6262,-0.6988,-0.721,-0.721,-0.721,-0.721,-0.7147,-0.6855,-0.6801,-0.6733,-0.6435,-0.6387,-0.6357,-0.6312,-0.6257,-0.6211,-0.6114,0.0,0.0,0.0,0.0,0.0,0.0,0.0,0.0,0.0,0.0,0.0,0.0,0.0,0.0,0.0,-0.4427,0.0,-0.5314,0.0,-0.5961,-0.6083,-0.6317,-0.6387,-0.6387,-0.6833,-0.703,-0.708,-0.817,-0.9264,-1.043,-1.1332,-1.2156,-1.2828,-1.3821,-1.4196,-1.4196,-1.4196,-1.4245,-1.4401,-1.4713,-1.4987,-1.5256,0.2076,0.0,0.2038,0.0,0.2087,0.208,0.2212,0.2222,0.2222,0.2222,0.2222,0.2222,0.2222,0.2222,0.2222,0.2222,0.2222,0.2222,0.2222,0.2222,0.2222,0.2222,0.2222,0.0,0.211,0.2076,0.1947,0.1673,0.146,0.0,0.0,0.0,0.0,0.0,0.0948,0.0936,0.0969,0.0645,0.0481,0.0491,0.0123,0.0,0.0,0.0,0.0,0.0,0.0,0.0,-0.0119,-0.0996,-0.1843,-0.2664,-0.3367,-0.358,-0.3748,-0.4643,-0.4868,-0.5144,-0.6318,-0.6652,-0.6763,-0.7099,-0.721,-0.7147,-0.6855,-0.6801,-0.6733,-0.6435,-0.6387,-0.6387,-0.6387,-0.6301,-0.6219,-0.6317,0.0,0.0,0.0,0.0,0.0,0.0,0.0,-0.4569,0.0,0.0,0.0,0.0,0.0,0.0,0.0,0.0,0.0,0.0,0.0,0.0,-0.6083,-0.6317,-0.6387,-0.6387,-0.6387,-0.6387,-0.6434,-0.7528,-0.8507,-0.9431,-1.0784,-1.1447,-1.1651,-1.2724,-1.3364,-1.364,-1.331,-1.3586,-1.4191,-1.4337,-1.4654,-1.5095,0.2103,0.2108,0.2118,0.2216,0.2221,0.2221,0.2222,0.2222,0.2222,0.2222,0.2222,0.2222,0.2222,0.2222,0.2222,0.2222,0.2222,0.2222,0.2222,0.2222,0.2222,0.0,0.0,0.214,0.211,0.2138,0.216,0.1975,0.0,0.0,0.1364,0.0,0.1055,0.109,0.1051,0.1,0.1002,0.0659,0.0483,0.0483,0.0123,0.0,0.0,0.0,0.0,0.0,0.0,0.0,0.0,0.0,-0.006,-0.0468,-0.2827,-0.358,-0.358,-0.3636,-0.3636,-0.386,-0.5091,-0.5427,-0.5706,-0.6874,-0.721,-0.7147,-0.6855,-0.6801,-0.6733,-0.6435,-0.6387,-0.6387,-0.6387,-0.6384,-0.6355,-0.6127,0.0,0.0,0.0,0.0,0.0,0.0,-0.4799,-0.4506,-0.4503,0.0,0.0,0.0,0.0,0.0,0.0,0.0,0.0,-0.5481,-0.5776,0.0,-0.6083,-0.6317,-0.6387,-0.6387,-0.6387,-0.6387,-0.6434,-0.7528,-0.8106,-0.831,-0.9542,-1.0189,-1.0317,-1.0653,-1.1437,-1.2304,-1.1164,-1.2155,-1.4083,-1.3246,-1.3835,-1.5041,0.2138,0.214,0.2143,0.222,0.2222,0.2222,0.2222,0.2222,0.2222,0.2222,0.2222,0.2222,0.2222,0.2222,0.2222,0.0,0.2222,0.2222,0.0,0.2222,0.2222,0.2222,0.2222,0.2217,0.214,0.2129,0.2105,0.2067,0.0,0.0,0.0,0.1415,0.1366,0.1555,0.1598,0.1627,0.1645,0.1298,0.1189,0.1137,0.0572,0.0318,0.0318,0.0064,0.0,0.0,0.0,0.0,0.0,0.0,0.0,-0.0119,-0.0875,-0.1159,-0.1329,-0.2114,-0.2391,-0.2612,-0.3871,-0.4196,-0.4475,-0.5648,-0.5984,-0.6116,-0.6799,-0.6798,-0.6632,-0.6419,-0.6387,-0.6387,-0.6387,-0.6387,-0.6363,-0.6336,-0.6323,0.0,0.0,0.0,0.0,0.0,0.0,-0.4896,0.0,-0.4615,0.0,0.0,0.0,0.0,0.0,0.0,0.0,0.0,-0.5855,0.0,-0.6086,-0.6317,-0.6387,-0.6387,-0.6387,-0.6387,-0.6437,-0.6734,-0.7053,-0.7316,-0.8553,-0.9197,-0.9399,-1.0323,-1.0891,-1.1219,-1.0836,-1.1164,-1.1878,-1.2639,-1.329,-1.4002,0.2222,0.2222,0.2222,0.2222,0.2222,0.2222,0.2222,0.2222,0.2222,0.2222,0.2222,0.2222,0.2222,0.2222,0.0,0.2222,0.2222,0.2222,0.2222,0.2222,0.2222,0.2222,0.2222,0.2222,0.2222,0.2136,0.0,0.2126,0.2059,0.1997,0.1881,0.1759,0.1765,0.1959,0.1974,0.1992,0.2009,0.1628,0.151,0.146,0.0889,0.0635,0.0508,0.0254,0.0127,0.0,0.0,0.0,0.0,0.0,0.0,0.0,0.0,0.0,-0.0119,-0.0875,-0.1097,-0.1375,-0.2606,-0.2924,-0.3189,-0.4419,-0.47,-0.5012,-0.6077,-0.6102,-0.6028,-0.642,-0.6419,-0.6387,-0.6387,-0.6387,-0.6387,-0.6387,-0.6342,-0.6276,-0.6102,0.0,0.0,0.0,0.0,0.0,0.0,-0.4984,-0.5053,0.0,0.0,0.0,0.0,0.0,0.0,-0.5453,-0.5986,-0.6252,-0.6217,-0.6314,-0.6387,-0.6387,-0.6387,-0.6387,-0.6387,-0.6387,-0.657,-0.6854,-0.7583,-0.8056,-0.8315,-0.9082,-0.9629,-0.9962,-0.9574,-0.9904,-1.0836,-1.1873,-1.2635,-1.3403,0.2222,0.2222,0.2222,0.0,0.2222,0.2222,0.2222,0.2222,0.2222,0.2222,0.2222,0.2222,0.2222,0.2222,0.2222,0.2222,0.0,0.0,0.2222,0.2222,0.2222,0.2222,0.2222,0.2222,0.2222,0.2222,0.2222,0.2222,0.2124,0.2109,0.2109,0.2107,0.2121,0.2213,0.2154,0.2128,0.2061,0.1692,0.1549,0.1487,0.1177,0.0866,0.0556,0.0557,0.0312,0.0063,0.0063,0.0,0.0,0.0,0.0,0.0,0.0,0.0,0.0,0.0,0.0,-0.0231,-0.1381,-0.1648,-0.1963,-0.3194,-0.3527,-0.3844,-0.4871,-0.4943,-0.5132,-0.6259,-0.6428,-0.6395,-0.6387,-0.6387,-0.6387,-0.6387,-0.6333,-0.6265,-0.6102,0.0,0.0,0.0,0.0,0.0,-0.5091,-0.5332,-0.5478,0.0,0.0,0.0,0.0,0.0,-0.5453,-0.5901,-0.6154,-0.6331,-0.6384,-0.6387,-0.6387,-0.6387,-0.6395,-0.6398,-0.6398,-0.6408,-0.6592,-0.6815,-0.6815,-0.6945,-0.721,-0.721,-0.7817,-0.8702,-0.7598,-0.853,-1.0507,-1.0832,-1.1705,-1.3019,0.0,0.0,0.2222,0.2222,0.2222,0.2222,0.2222,0.2222,0.2222,0.2222,0.2222,0.2222,0.2222,0.2222,0.2222,0.2222,0.2222,0.2222,0.2222,0.2222,0.2222,0.2222,0.2222,0.2222,0.2222,0.2222,0.2222,0.2222,0.2124,0.2109,0.2109,0.2086,0.2078,0.215,0.2135,0.2128,0.2063,0.1985,0.1979,0.1915,0.1596,0.1395,0.1255,0.1005,0.0688,0.0372,0.0372,0.0186,0.0,0.0,0.0,0.0,0.0,0.0,0.0,0.0,0.0,-0.0059,-0.0352,-0.0405,-0.0743,-0.194,-0.2938,-0.362,-0.3776,-0.4496,-0.5128,-0.5197,-0.5923,-0.6497,-0.6403,-0.6387,-0.6387,-0.6387,-0.6263,-0.6119,-0.6089,-0.5958,0.0,0.0,-0.5806,-0.5822,-0.5545,-0.5719,-0.5733,0.0,0.0,0.0,0.0,-0.5822,-0.5926,-0.604,-0.6271,-0.636,-0.6387,-0.6387,-0.6387,-0.6387,-0.6478,-0.6575,-0.6578,-0.6673,-0.6798,-0.6942,-0.6942,-0.7024,-0.721,-0.721,-0.7376,-0.7595,-0.7321,-0.754,-0.8146,-0.9082,-1.0288,-1.1705,0.2222,0.2222,0.2222,0.2222,0.2222,0.2222,0.2222,0.2222,0.2222,0.2222,0.2222,0.2222,0.2222,0.2222,0.2222,0.2222,0.2222,0.2222,0.2222,0.2222,0.2222,0.2222,0.2222,0.2222,0.2222,0.2222,0.2222,0.2222,0.2138,0.213,0.2129,0.2113,0.2171,0.2171,0.2091,0.2084,0.2084,0.207,0.2128,0.2064,0.187,0.1733,0.1529,0.1339,0.1079,0.0755,0.0751,0.0624,0.0436,0.0309,0.0247,0.0185,0.0062,0.0,0.0,0.0,0.0,0.0,0.0,0.0,-0.0174,-0.0806,-0.1474,-0.2066,-0.2544,-0.3125,-0.385,-0.4786,-0.5385,-0.5926,-0.638,-0.6425,-0.6371,-0.6369,-0.6206,-0.6067,-0.601,-0.5945,0.0,-0.5817,-0.6024,-0.6097,-0.5912,-0.6048,-0.6048,-0.5812,-0.5909,0.0,-0.598,-0.6149,-0.6222,-0.617,-0.6342,-0.6387,-0.6387,-0.6387,-0.6387,-0.6387,-0.6454,-0.6564,-0.6622,-0.6687,-0.6817,-0.6986,-0.6986,-0.7051,-0.721,-0.721,-0.721,-0.721,-0.721,-0.721,-0.7321,-0.8478,-0.9412,-1.0288,0.2222,0.2222,0.2222,0.2222,0.2222,0.2222,0.2222,0.2222,0.2222,0.2222,0.2222,0.2222,0.2222,0.2222,0.2222,0.2222,0.2222,0.2222,0.2222,0.2222,0.2222,0.2222,0.2222,0.2222,0.2222,0.2222,0.2222,0.2222,0.2222,0.2222,0.2222,0.2222,0.2222,0.2221,0.2128,0.2116,0.2114,0.2089,0.2143,0.2143,0.2143,0.1945,0.1682,0.1682,0.1486,0.1159,0.1082,0.1077,0.0948,0.0685,0.0558,0.0495,0.0247,0.0123,0.0062,0.0062,0.0061,0.0,0.0,0.0,0.0,0.0,0.0,-0.028,-0.1288,-0.1606,-0.2189,-0.4254,-0.4727,-0.5132,-0.6154,-0.6364,-0.6399,-0.6287,-0.6181,-0.6064,-0.5923,0.0,-0.595,-0.5931,-0.6146,-0.6252,-0.6149,-0.6304,-0.6336,-0.6154,-0.6306,-0.6377,-0.6298,-0.6385,-0.6393,-0.6295,-0.6385,-0.6387,-0.6387,-0.6387,-0.6387,-0.6387,-0.6425,-0.6495,-0.6646,-0.6684,-0.6815,-0.701,-0.701,-0.7119,-0.721,-0.721,-0.721,-0.721,-0.721,-0.721,-0.7321,-0.826,-0.8758,-0.9085,0.2222,0.2222,0.2222,0.2222,0.2222,0.2222,0.2222,0.2222,0.2222,0.2222,0.2222,0.2222,0.2222,0.2222,0.2222,0.2222,0.2222,0.2222,0.2222,0.2222,0.2222,0.2222,0.2222,0.2222,0.2222,0.2222,0.2222,0.2222,0.2222,0.2222,0.2222,0.2222,0.2222,0.2222,0.2217,0.2215,0.2214,0.2209,0.2208,0.2208,0.2208,0.2125,0.2036,0.2036,0.1825,0.1547,0.148,0.135,0.109,0.0948,0.0944,0.0942,0.0868,0.0679,0.0432,0.0432,0.0247,0.0,0.0,0.0,0.0,0.0,0.0,-0.0056,-0.0224,-0.1062,-0.1833,-0.2079,-0.3648,-0.4998,-0.5079,-0.5804,-0.6399,-0.6287,-0.63,-0.6162,-0.5934,0.0,-0.6173,-0.607,-0.6265,-0.6352,-0.6336,-0.6328,-0.632,-0.6327,-0.6328,-0.6328,-0.6404,-0.6376,-0.6379,-0.6363,-0.6376,-0.6387,-0.6387,-0.6387,-0.6387,-0.6389,-0.6646,-0.6755,-0.6782,-0.698,-0.7147,-0.7182,-0.7182,-0.7193,-0.721,-0.721,-0.721,-0.721,-0.721,-0.721,-0.721,-0.7374,-0.8094,-0.892,0.2222,0.2222,0.2222,0.2222,0.2222,0.2222,0.2222,0.2222,0.2222,0.2222,0.2222,0.2222,0.2222,0.2222,0.2222,0.2222,0.2222,0.2222,0.2222,0.2222,0.2222,0.2222,0.2222,0.2222,0.2222,0.2222,0.2222,0.2222,0.2222,0.2222,0.2222,0.2222,0.2222,0.2222,0.2222,0.2222,0.2222,0.2222,0.2222,0.2222,0.2222,0.2213,0.2133,0.2133,0.2058,0.1913,0.1898,0.1762,0.1628,0.1412,0.1342,0.1274,0.1068,0.0875,0.0749,0.0743,0.0432,0.0,0.0,0.0,0.0,0.0,0.0,0.0,0.0,-0.0448,-0.1006,-0.1607,-0.2509,-0.3374,-0.3946,-0.4856,-0.5512,-0.5459,-0.5925,0.0,-0.6026,-0.6157,-0.6295,-0.6192,-0.6333,-0.6387,-0.6387,-0.6388,-0.638,-0.6381,-0.6388,-0.6382,-0.6384,-0.6387,-0.6387,-0.6387,-0.6387,-0.6387,-0.6387,-0.6387,-0.6387,-0.6389,-0.6619,-0.6738,-0.6806,-0.6983,-0.7152,-0.721,-0.721,-0.721,-0.721,-0.721,-0.721,-0.721,-0.721,-0.721,-0.721,-0.721,-0.754,-0.7983,0.2232,0.2171,0.2176,0.2176,0.2176,0.2176,0.2176,0.2176,0.2173,0.2166,0.2232,0.223,0.2223,0.2222,0.2222,0.2222,0.2222,0.2222,0.2222,0.2222,0.2222,0.2222,0.2222,0.2222,0.2222,0.2222,0.2222,0.2222,0.2222,0.2222,0.2222,0.2222,0.2222,0.2222,0.2222,0.2222,0.2222,0.2222,0.2222,0.2222,0.2222,0.2222,0.2222,0.2222,0.2222,0.2218,0.2128,0.212,0.2049,0.1824,0.1685,0.1681,0.1339,0.1206,0.1139,0.1122,0.0681,0.0185,0.0123,0.0061,0.0,0.0,0.0,0.0,0.0,0.0,-0.028,-0.1176,-0.1491,-0.1902,-0.2786,-0.379,-0.4471,-0.466,0.0,-0.5992,-0.6063,-0.6214,-0.6298,-0.632,-0.6369,-0.6387,-0.6387,-0.6387,-0.6387,-0.6387,-0.6387,-0.6387,-0.6387,-0.6387,-0.6387,-0.6387,-0.6387,-0.6387,-0.6387,-0.6387,-0.64,-0.643,-0.6603,-0.6725,-0.685,-0.697,-0.7128,-0.721,-0.721,-0.721,-0.721,-0.721,-0.721,-0.721,-0.721,-0.721,-0.721,-0.721,-0.721,-0.721,0.2196,0.2219,0.2169,0.2169,0.2169,0.2169,0.2169,0.2169,0.2229,0.22,0.2196,0.2186,0.2225,0.2222,0.2222,0.2222,0.2222,0.2222,0.2222,0.2222,0.2222,0.2222,0.2222,0.2222,0.2222,0.2222,0.2222,0.2222,0.2222,0.2222,0.2222,0.2222,0.2222,0.2222,0.2222,0.2222,0.2222,0.2222,0.2222,0.2222,0.2222,0.2222,0.2222,0.2222,0.2222,0.2222,0.2219,0.2218,0.2146,0.2116,0.204,0.2034,0.2005,0.1803,0.1541,0.1455,0.1185,0.0864,0.0556,0.0244,0.0,0.0,0.0,0.0,0.0,0.0,0.0,-0.0112,-0.0939,-0.1636,-0.1743,-0.2575,-0.3614,-0.4549,0.0,0.0,-0.5989,-0.6282,-0.6385,-0.6331,-0.6369,-0.6387,-0.6387,-0.6387,-0.6387,-0.6387,-0.6387,-0.6387,-0.6387,-0.6387,-0.6387,-0.6387,-0.6387,-0.6387,-0.6387,-0.6387,-0.6443,-0.6605,-0.673,-0.6853,-0.6975,-0.7144,-0.7202,-0.721,-0.721,-0.721,-0.721,-0.721,-0.721,-0.721,-0.721,-0.721,-0.721,-0.721,-0.721,-0.721,0.2224,0.2247,0.2259,0.2177,0.2255,0.2259,0.2177,0.2175,0.2171,0.223,0.2228,0.2217,0.2186,0.2183,0.2175,0.2224,0.2222,0.2222,0.2222,0.2222,0.2222,0.2222,0.2222,0.2222,0.2222,0.2222,0.2222,0.2222,0.2222,0.2222,0.2222,0.2222,0.2222,0.2222,0.2222,0.2222,0.2222,0.2222,0.2222,0.2222,0.2222,0.2222,0.2222,0.2222,0.2222,0.2222,0.2222,0.2222,0.222,0.2142,0.2138,0.2132,0.2101,0.2027,0.1887,0.1842,0.1571,0.1311,0.1176,0.0861,0.0611,0.0605,0.0478,0.0295,0.0289,0.0172,0.0,0.0,-0.0335,-0.0609,-0.0603,-0.1466,-0.2358,-0.2722,0.0,-0.4924,-0.5225,-0.5924,-0.6371,-0.6377,-0.636,-0.6387,-0.6387,-0.6387,-0.6387,-0.6387,-0.6387,-0.6387,-0.6387,-0.6387,-0.6387,-0.6387,-0.6387,-0.6387,-0.6387,-0.6387,-0.6449,-0.6622,-0.6744,-0.6866,-0.6989,-0.7158,-0.721,-0.721,-0.721,-0.721,-0.721,-0.721,-0.721,-0.721,-0.721,-0.721,-0.721,-0.721,-0.721,-0.721,0.2256,0.2277,0.2288,0.2204,0.2283,0.2288,0.2204,0.2202,0.2198,0.2261,0.2181,0.2234,0.2204,0.2191,0.2177,0.2224,0.2222,0.2222,0.2222,0.2222,0.2222,0.2222,0.2222,0.2222,0.2222,0.2222,0.2222,0.2222,0.2222,0.2222,0.2222,0.2222,0.2222,0.2222,0.2222,0.2222,0.2222,0.2222,0.2222,0.2222,0.2222,0.2222,0.2222,0.2222,0.2222,0.2222,0.2222,0.2222,0.2222,0.2222,0.2222,0.2218,0.213,0.2117,0.2101,0.2059,0.1843,0.1636,0.1683,0.1487,0.1293,0.1036,0.0848,0.066,0.0645,0.0405,0.0172,0.017,0.0056,0.0,0.0,-0.0606,-0.1204,-0.156,-0.2811,-0.4039,-0.4746,-0.5516,-0.6075,-0.6446,-0.6443,-0.6427,-0.6389,-0.6387,-0.6387,-0.6387,-0.6387,-0.6387,-0.6387,-0.6387,-0.6387,-0.6387,-0.6425,-0.6443,-0.6443,-0.6443,-0.6505,-0.6679,-0.6801,-0.6921,-0.7043,-0.7174,-0.721,-0.721,-0.721,-0.721,-0.721,-0.721,-0.721,-0.721,-0.721,-0.721,-0.721,-0.721,-0.721,-0.721,0.2291,0.2313,0.2333,0.2333,0.2333,0.2333,0.2333,0.2333,0.2322,0.2294,0.2264,0.2234,0.2204,0.2173,0.2223,0.2222,0.2222,0.2222,0.2222,0.2222,0.2222,0.2222,0.2222,0.2222,0.2222,0.2222,0.2222,0.2222,0.2222,0.2222,0.2222,0.2222,0.2222,0.2222,0.2222,0.2222,0.2222,0.2222,0.2222,0.2222,0.2222,0.2222,0.2222,0.2222,0.2222,0.2222,0.2222,0.2222,0.2222,0.2222,0.2222,0.2222,0.2222,0.2134,0.211,0.2109,0.2067,0.2019,0.2018,0.1998,0.1853,0.1173,0.0977,0.1026,0.1026,0.0765,0.0518,0.0518,0.0227,0.0,0.0,0.0,-0.0334,-0.1423,-0.1582,-0.2385,-0.4631,-0.499,-0.538,-0.6478,-0.6622,-0.6573,-0.64,-0.6389,-0.6389,-0.6389,-0.6389,-0.6389,-0.6389,-0.6389,-0.6389,-0.6389,-0.6556,-0.6622,-0.6622,-0.6622,-0.6681,-0.6804,-0.6929,-0.7046,-0.721,-0.721,-0.721,-0.721,-0.721,-0.721,-0.721,-0.721,-0.721,-0.721,-0.721,-0.721,-0.721,-0.721,-0.721,-0.721,0.3976,0.3052,0.2333,0.2333,0.2333,0.2333,0.2333,0.2333,0.2322,0.2294,0.2283,0.2258,0.2206,0.2192,0.2178,0.2224,0.2222,0.2222,0.2222,0.2222,0.2222,0.2222,0.2222,0.2222,0.2222,0.2222,0.2222,0.2222,0.2222,0.2222,0.2222,0.2222,0.2222,0.2222,0.2222,0.2222,0.2222,0.2222,0.2222,0.2222,0.2222,0.2222,0.2222,0.2222,0.2222,0.2222,0.2222,0.2222,0.2222,0.2222,0.2222,0.2222,0.2222,0.2216,0.2137,0.2116,0.2096,0.2073,0.203,0.2012,0.1939,0.1733,0.1539,0.1346,0.1331,0.1078,0.0771,0.0528,0.0404,0.0285,0.0057,0.0,-0.0112,-0.0445,-0.1101,-0.1852,-0.2544,-0.4013,-0.514,-0.5429,-0.6218,-0.6733,-0.6698,-0.6692,-0.6692,-0.6692,-0.6692,-0.6692,-0.6692,-0.6692,-0.6692,-0.6692,-0.6728,-0.6747,-0.6747,-0.6747,-0.6809,-0.6931,-0.697,-0.7046,-0.721,-0.721,-0.721,-0.721,-0.721,-0.721,-0.721,-0.721,-0.721,-0.721,-0.721,-0.721,-0.721,-0.721,-0.721,-0.721,0.5589,0.4366,0.3278,0.3278,0.2696,0.2333,0.2333,0.2333,0.2322,0.2294,0.228,0.2259,0.2222,0.2207,0.2198,0.2191,0.2191,0.2185,0.2174,0.2172,0.2167,0.2223,0.2222,0.2222,0.2222,0.2222,0.2222,0.2222,0.2222,0.2222,0.2222,0.2222,0.2222,0.2222,0.2222,0.2222,0.2222,0.2222,0.2222,0.2222,0.2222,0.2222,0.2222,0.2222,0.2222,0.2222,0.2222,0.2222,0.2222,0.2222,0.2222,0.2222,0.2222,0.2222,0.2218,0.2133,0.2119,0.2101,0.2064,0.2037,0.2014,0.1997,0.1861,0.1725,0.1709,0.1455,0.1143,0.0953,0.0701,0.046,0.023,0.0113,0.0,0.0,-0.0555,-0.1158,-0.1599,-0.2839,-0.4056,-0.4994,-0.5743,-0.6318,-0.6754,-0.6801,-0.6801,-0.6801,-0.6801,-0.6801,-0.6801,-0.6801,-0.6801,-0.6801,-0.685,-0.6874,-0.6874,-0.6918,-0.6956,-0.6986,-0.7029,-0.7144,-0.721,-0.721,-0.721,-0.721,-0.721,-0.721,-0.721,-0.721,-0.721,-0.721,-0.721,-0.721,-0.721,-0.721,-0.721,-0.721,0.7187,0.5958,0.4875,0.4875,0.3713,0.2696,0.2696,0.2623,0.254,0.2509,0.2337,0.2178,0.2176,0.2221,0.2215,0.2173,0.2175,0.2234,0.2206,0.2204,0.2191,0.2228,0.2226,0.2225,0.2222,0.2222,0.2222,0.2222,0.2222,0.2222,0.2222,0.2222,0.2222,0.2222,0.2222,0.2222,0.2222,0.2222,0.2222,0.2222,0.2222,0.2222,0.2222,0.2222,0.2222,0.2222,0.2222,0.2222,0.2222,0.2222,0.2222,0.2222,0.2222,0.2222,0.2222,0.2222,0.2135,0.2112,0.211,0.2069,0.2025,0.202,0.1999,0.1979,0.1977,0.1772,0.1512,0.1512,0.1003,0.0577,0.0519,0.0284,0.0056,0.0056,0.0,-0.0392,-0.1512,-0.1735,-0.2559,-0.4653,-0.5081,-0.5595,-0.6576,-0.6781,-0.6834,-0.6834,-0.6834,-0.6834,-0.6834,-0.6834,-0.6834,-0.6834,-0.6942,-0.6999,-0.6999,-0.7158,-0.7158,-0.7002,-0.7161,-0.721,-0.721,-0.721,-0.721,-0.721,-0.721,-0.721,-0.721,-0.721,-0.721,-0.721,-0.721,-0.721,-0.721,-0.721,-0.721,-0.721,0.8781,0.7551,0.6536,0.6536,0.6246,0.5956,0.5956,0.4944,0.413,0.4077,0.3067,0.2272,0.2178,0.2169,0.2168,0.2174,0.2175,0.2173,0.2166,0.2166,0.2222,0.2191,0.219,0.2179,0.2223,0.2222,0.2222,0.2222,0.2222,0.2222,0.2222,0.2222,0.2222,0.2222,0.2222,0.2222,0.2222,0.2222,0.2222,0.2222,0.2222,0.2222,0.2222,0.2222,0.2222,0.2222,0.2222,0.2222,0.2222,0.2222,0.2222,0.2222,0.2222,0.2222,0.2222,0.2222,0.2217,0.214,0.2116,0.2099,0.2078,0.2031,0.2014,0.2003,0.1981,0.1971,0.1844,0.1536,0.1392,0.119,0.0881,0.0578,0.0398,0.0337,0.0112,-0.0112,-0.0336,-0.1176,-0.1956,-0.2505,-0.4228,-0.5445,-0.57,-0.6581,-0.7133,-0.7133,-0.7133,-0.7133,-0.7133,-0.7133,-0.7133,-0.7133,-0.7158,-0.7174,-0.7174,-0.7196,-0.7196,-0.7174,-0.7199,-0.721,-0.721,-0.721,-0.721,-0.721,-0.721,-0.721,-0.721,-0.721,-0.721,-0.721,-0.721,-0.721,-0.721,-0.721,-0.721,-0.721,1.038,0.9144,0.8129,0.8129,0.7476,0.6968,0.6968,0.632,0.5788,0.5714,0.4354,0.335,0.3327,0.269,0.2273,0.2215,0.2215,0.2281,0.2268,0.2267,0.2253,0.2223,0.2221,0.2207,0.2177,0.2176,0.217,0.2222,0.2222,0.2222,0.2222,0.2222,0.2222,0.2222,0.2222,0.2222,0.2222,0.2222,0.2222,0.2222,0.2222,0.2222,0.2222,0.2222,0.2222,0.2222,0.2222,0.2222,0.2222,0.2222,0.2222,0.2222,0.2222,0.2222,0.2222,0.2222,0.2222,0.2218,0.2135,0.2121,0.2101,0.2069,0.204,0.2011,0.1983,0.1977,0.1977,0.1791,0.1586,0.1444,0.1253,0.0935,0.0688,0.0625,0.0395,0.0168,0.0168,-0.0448,-0.1176,-0.1735,-0.291,-0.4139,-0.5316,-0.6485,-0.721,-0.721,-0.721,-0.721,-0.721,-0.721,-0.721,-0.721,-0.721,-0.721,-0.721,-0.721,-0.721,-0.721,-0.721,-0.721,-0.721,-0.721,-0.721,-0.721,-0.721,-0.721,-0.721,-0.721,-0.721,-0.721,-0.721,-0.721,-0.721,-0.721,-0.721,-0.721,1.1619,1.0599,0.9726,0.9726,0.8636,0.7765,0.7765,0.7548,0.7378,0.7302,0.5937,0.5009,0.5009,0.3655,0.2595,0.233,0.2333,0.2323,0.23,0.2298,0.2285,0.2254,0.2182,0.2238,0.2208,0.2203,0.2185,0.2222,0.2222,0.2222,0.2222,0.2222,0.2222,0.2222,0.2222,0.2222,0.2222,0.2222,0.2222,0.2222,0.2222,0.2222,0.2222,0.2222,0.2222,0.2222,0.2222,0.2222,0.2222,0.2222,0.2222,0.2222,0.2222,0.2222,0.2222,0.2222,0.2222,0.2222,0.2222,0.2136,0.2116,0.211,0.2071,0.2025,0.1992,0.198,0.1977,0.1977,0.1773,0.1574,0.157,0.124,0.0985,0.0982,0.0683,0.0507,0.0507,0.0225,-0.028,-0.1288,-0.1623,-0.2686,-0.4868,-0.6207,-0.6874,-0.6874,-0.7099,-0.721,-0.721,-0.721,-0.721,-0.721,-0.721,-0.721,-0.721,-0.721,-0.721,-0.721,-0.721,-0.721,-0.721,-0.721,-0.721,-0.721,-0.721,-0.721,-0.721,-0.721,-0.721,-0.721,-0.721,-0.721,-0.721,-0.721,-0.7196,-0.718,1.1619,1.14,1.1257,1.1257,1.1109,1.0962,1.0962,0.987,0.8994,0.8979,0.7603,0.6663,0.6663,0.5293,0.3779,0.2405,0.2333,0.2331,0.2327,0.2327,0.2314,0.2286,0.2285,0.2271,0.217,0.2214,0.2185,0.2222,0.2222,0.2222,0.2222,0.2222,0.2222,0.2222,0.2222,0.2222,0.2222,0.2222,0.2222,0.2222,0.2222,0.2222,0.2222,0.2222,0.2222,0.2222,0.2222,0.2222,0.2222,0.2222,0.2222,0.2222,0.2222,0.2222,0.2222,0.2222,0.2222,0.2222,0.2222,0.2218,0.2142,0.2116,0.2103,0.2082,0.2026,0.1994,0.1977,0.1977,0.1973,0.1901,0.1875,0.1624,0.1373,0.1354,0.1043,0.0859,0.0859,0.0566,0.028,0.0112,-0.1008,-0.2351,-0.3692,-0.4923,-0.565,-0.565,-0.6599,-0.721,-0.721,-0.721,-0.721,-0.721,-0.721,-0.721,-0.721,-0.721,-0.721,-0.721,-0.721,-0.721,-0.721,-0.721,-0.721,-0.721,-0.721,-0.721,-0.721,-0.721,-0.721,-0.721,-0.721,-0.721,-0.721,-0.721,-0.7147,-0.7008,1.1619,1.1619,1.1619,1.1619,1.1619,1.1619,1.1619,1.1034,1.0599,1.0599,0.9219,0.8273,0.8273,0.6105,0.4439,0.3713,0.2842,0.2333,0.2333,0.2333,0.2327,0.2315,0.2314,0.23,0.2271,0.2258,0.2228,0.218,0.223,0.2222,0.2222,0.2222,0.2222,0.2222,0.2222,0.2222,0.2222,0.2222,0.2222,0.2222,0.2222,0.2222,0.2222,0.2222,0.2222,0.2222,0.2222,0.2222,0.2222,0.2222,0.2222,0.2222,0.2222,0.2222,0.2222,0.2222,0.2222,0.2222,0.2222,0.2222,0.2218,0.2138,0.2122,0.2097,0.2054,0.2021,0.1995,0.1979,0.1977,0.1973,0.1959,0.1821,0.1686,0.1674,0.1414,0.1104,0.0921,0.0629,0.0397,0.0225,-0.1008,-0.2015,-0.2519,-0.3692,-0.4698,-0.5371,-0.5873,-0.6485,-0.7154,-0.721,-0.721,-0.721,-0.721,-0.721,-0.721,-0.721,-0.721,-0.721,-0.721,-0.721,-0.721,-0.721,-0.721,-0.721,-0.721,-0.721,-0.721,-0.721,-0.7174,-0.7114,-0.7114,-0.7114,-0.7114,-0.7114,-0.7027,-0.6975]}]]